[[{"header":{"parameterUnit":"m.s-1","parameterCategory":1,"la1":30.6,"la2":29.2853,"lo1":-89.7004,"lo2":-87.6739,"dy":0.0162,"dx":0.0183,"nx":112,"ny":82,"refTime":"2024-09-16T12:00:00:Z","depth":0,"parameterNumber":2,"parameterNumberName":"U-component_of_WINDS"},"data":[0.0,0.0,0.0,0.0,0.0,0.0,0.0,0.0,0.0,0.0,0.0,0.0,0.0,0.0,0.0,0.0,0.0,0.0,0.0,0.0,0.0,0.0,0.0,0.0,0.0,0.0,0.0,0.0,0.0,0.0,0.0,0.0,0.0,0.0,0.0,0.0,0.0,0.0,0.0,0.0,0.0,0.0,0.0,0.0,0.0,0.0,0.0,0.0,0.0,0.0,0.0,0.0,0.0,0.0,0.0,0.0,0.0,0.0,0.0,0.0,0.0,0.0,0.0,0.0,0.0,0.0,0.0,0.0,0.0,0.0,0.0,0.0,0.0,0.0,0.0,0.0,0.0,0.0,0.0,0.0,0.0,0.0,0.0,0.0,0.0,0.0,0.0,0.0,0.0,0.0,2.0812,2.346,2.5507,2.6437,2.5828,2.5493,2.4211,2.1532,0.0,0.0,0.0,0.0,0.0,0.0,0.0,0.0,0.0,0.0,0.0,0.0,0.0,0.0,0.0,0.0,0.0,0.0,0.0,0.0,0.0,0.0,0.0,0.0,0.0,0.0,0.0,0.0,0.0,0.0,0.0,0.0,0.0,0.0,0.0,0.0,0.0,0.0,0.0,0.0,0.0,0.0,0.0,0.0,0.0,0.0,0.0,0.0,0.0,0.0,0.0,0.0,0.0,0.0,0.0,0.0,0.0,0.0,0.0,0.0,0.0,0.0,0.0,0.0,0.0,0.0,0.0,0.0,0.0,0.0,0.0,0.0,0.0,0.0,0.0,0.0,0.0,0.0,0.0,0.0,0.0,0.0,0.0,0.0,0.0,0.0,0.0,0.0,0.0,0.0,0.0,0.0,0.0,0.0,0.0,0.0,0.0,0.0,0.0,0.0,0.0,0.0,0.0,0.0,2.0653,2.4831,2.6133,2.664,2.6539,2.5079,2.3596,2.2215,0.0,0.0,0.0,0.0,0.0,0.0,0.0,0.0,0.0,0.0,0.0,0.0,0.0,0.0,0.0,0.0,0.0,0.0,0.0,0.0,0.0,0.0,0.0,0.0,0.0,0.0,0.0,0.0,0.0,0.0,0.0,0.0,0.0,0.0,0.0,0.0,0.0,0.0,0.0,0.0,0.0,0.0,0.0,0.0,0.0,0.0,0.0,0.0,0.0,0.0,0.0,0.0,0.0,0.0,0.0,0.0,0.0,0.0,0.0,0.0,0.0,0.0,0.0,0.0,0.0,0.0,0.0,0.0,0.0,0.0,0.0,0.0,0.0,0.0,0.0,0.0,0.0,0.0,0.0,0.0,0.0,0.0,0.0,0.0,0.0,0.0,0.0,0.0,0.0,0.0,0.0,0.0,0.0,0.0,0.0,0.0,0.0,0.0,0.0,0.0,0.0,0.0,0.0,2.0213,2.2429,2.5304,2.6251,2.6691,2.6691,2.516,2.3667,2.2367,1.979,0.0,0.0,0.0,0.0,0.0,0.0,0.0,0.0,0.0,0.0,0.0,0.0,0.0,0.0,0.0,0.0,0.0,0.0,0.0,0.0,0.0,0.0,0.0,0.0,0.0,0.0,0.0,0.0,0.0,0.0,0.0,0.0,0.0,0.0,0.0,0.0,0.0,0.0,0.0,0.0,0.0,0.0,0.0,0.0,0.0,0.0,0.0,0.0,0.0,0.0,0.0,0.0,0.0,0.0,0.0,0.0,0.0,0.0,0.0,0.0,0.0,0.0,0.0,0.0,0.0,0.0,0.0,0.0,0.0,0.0,0.0,0.0,0.0,0.0,0.0,0.0,0.0,0.0,0.0,0.0,0.0,0.0,0.0,0.0,0.0,0.0,0.0,0.0,0.0,0.0,0.0,0.0,0.0,0.0,0.0,0.0,0.0,0.0,0.0,0.0,0.0,0.0,2.2632,2.4222,2.571,2.6353,2.6691,2.6691,2.5024,2.3466,2.2367,1.8935,0.0,0.0,0.0,0.0,0.0,0.0,0.0,0.0,0.0,0.0,0.0,0.0,0.0,0.0,0.0,0.0,0.0,0.0,0.0,0.0,0.0,0.0,0.0,0.0,0.0,0.0,0.0,0.0,0.0,0.0,0.0,0.0,0.0,0.0,0.0,0.0,0.0,0.0,0.0,0.0,0.0,0.0,0.0,0.0,0.0,0.0,0.0,0.0,0.0,0.0,0.0,0.0,0.0,0.0,0.0,0.0,0.0,0.0,0.0,0.0,0.0,0.0,0.0,0.0,0.0,0.0,0.0,0.0,0.0,0.0,0.0,0.0,0.0,0.0,0.0,0.0,0.0,0.0,0.0,0.0,0.0,0.0,0.0,0.0,0.0,0.0,0.0,0.0,0.0,0.0,0.0,0.0,0.0,0.0,0.0,0.0,0.0,0.0,0.0,0.0,0.0,0.0,2.31,2.4997,2.6454,2.6657,2.6691,2.6691,2.4034,2.2326,2.2288,1.7367,0.0,0.0,0.0,0.0,0.0,0.0,0.0,0.0,0.0,0.0,0.0,0.0,0.0,0.0,0.0,0.0,0.0,0.0,0.0,0.0,0.0,0.0,0.0,0.0,0.0,0.0,0.0,0.0,0.0,0.0,0.0,0.0,0.0,0.0,0.0,0.0,0.0,0.0,0.0,0.0,0.0,0.0,0.0,0.0,0.0,0.0,0.0,0.0,0.0,0.0,0.0,0.0,0.0,0.0,0.0,0.0,0.0,0.0,0.0,0.0,0.0,0.0,0.0,0.0,0.0,0.0,0.0,0.0,0.0,0.0,0.0,0.0,0.0,0.0,0.0,0.0,0.0,0.0,0.0,0.0,0.0,0.0,0.0,0.0,0.0,0.0,0.0,0.0,0.0,0.0,0.0,0.0,0.0,0.0,0.0,0.0,0.0,0.0,0.0,0.0,0.0,0.0,2.2745,2.445,0.0,2.6262,2.6139,2.5783,2.3913,2.2391,2.1528,0.0,0.0,0.0,0.0,0.0,0.0,0.0,0.0,0.0,0.0,0.0,0.0,0.0,0.0,0.0,0.0,0.0,0.0,0.0,0.0,0.0,0.0,0.0,0.0,0.0,0.0,0.0,0.0,0.0,0.0,0.0,0.0,0.0,0.0,0.0,0.0,0.0,0.0,0.0,0.0,0.0,0.0,0.0,0.0,0.0,0.0,0.0,0.0,0.0,0.0,0.0,0.0,0.0,0.0,0.0,0.0,0.0,0.0,0.0,0.0,0.0,0.0,0.0,0.0,0.0,0.0,0.0,0.0,0.0,0.0,0.0,0.0,0.0,0.0,0.0,0.0,0.0,0.0,0.0,0.0,0.0,0.0,0.0,0.0,0.0,0.0,0.0,0.0,0.0,0.0,0.0,0.0,0.0,0.0,0.0,0.0,0.0,0.0,0.0,0.0,0.0,0.0,2.1126,2.2835,2.4337,0.0,2.6013,2.568,2.4938,2.3474,2.1977,2.0586,0.0,0.0,0.0,0.0,0.0,0.0,0.0,0.0,0.0,0.0,0.0,0.0,0.0,0.0,0.0,0.0,0.0,0.0,0.0,0.0,0.0,0.0,0.0,0.0,0.0,0.0,0.0,0.0,0.0,0.0,0.0,0.0,0.0,0.0,0.0,0.0,0.0,0.0,0.0,0.0,0.0,0.0,0.0,0.0,0.0,0.0,0.0,0.0,0.0,0.0,0.0,0.0,0.0,0.0,0.0,0.0,0.0,0.0,0.0,0.0,0.0,0.0,0.0,0.0,0.0,0.0,0.0,0.0,0.0,0.0,0.0,0.0,0.0,0.0,0.0,0.0,0.0,0.0,0.0,0.0,0.0,0.0,0.0,0.0,0.0,0.0,0.0,0.0,0.0,0.0,0.0,0.0,0.0,0.0,0.0,0.0,0.0,0.0,0.0,0.0,0.0,0.0,2.1837,2.3579,2.4874,2.5884,2.5997,2.5484,2.4301,2.2539,2.0887,0.0,0.0,0.0,0.0,0.0,0.0,0.0,0.0,0.0,0.0,0.0,0.0,0.0,0.0,0.0,0.0,0.0,0.0,0.0,0.0,0.0,0.0,0.0,0.0,0.0,0.0,0.0,0.0,0.0,0.0,0.0,0.0,0.0,0.0,0.0,0.0,0.0,0.0,0.0,0.0,0.0,0.0,0.0,0.0,0.0,0.0,0.0,0.0,0.0,0.0,0.0,0.0,0.0,0.0,0.0,0.0,0.0,0.0,0.0,0.0,0.0,0.0,0.0,0.0,0.0,0.0,0.0,0.0,0.0,0.0,0.0,0.0,0.0,0.0,0.0,0.0,0.0,0.0,0.0,0.0,0.0,0.0,0.0,0.0,0.0,0.0,0.0,0.0,0.0,0.0,0.0,0.0,0.0,0.0,0.0,0.0,0.0,0.0,0.0,0.0,0.0,0.0,0.0,2.1765,2.3338,2.4447,2.5341,2.5465,2.4834,2.3277,2.2215,2.0664,1.8346,0.0,0.0,0.0,0.0,0.0,0.0,0.0,0.0,0.0,0.0,0.0,0.0,0.0,0.0,0.0,0.0,0.0,0.0,0.0,0.0,0.0,0.0,0.0,0.0,0.0,0.0,0.0,0.0,0.0,0.0,0.0,0.0,0.0,0.0,0.0,0.0,0.0,0.0,0.0,0.0,0.0,0.0,0.0,0.0,0.0,0.0,0.0,0.0,0.0,0.0,0.0,0.0,0.0,0.0,0.0,0.0,0.0,0.0,0.0,0.0,0.0,0.0,0.0,0.0,0.0,0.0,0.0,0.0,0.0,0.0,0.0,0.0,0.0,0.0,0.0,0.0,0.0,0.0,0.0,0.0,0.0,0.0,0.0,0.0,0.0,0.0,0.0,0.0,0.0,0.0,0.0,0.0,0.0,0.0,0.0,0.0,0.0,0.0,0.0,0.0,0.0,0.0,2.1478,2.293,2.3897,2.4791,2.4855,2.4177,2.2435,2.1919,2.0475,1.7649,0.0,0.0,0.0,0.0,0.0,0.0,0.0,0.0,0.0,0.0,0.0,0.0,0.0,0.0,0.0,0.0,0.0,0.0,0.0,0.0,0.0,0.0,0.0,0.0,0.0,0.0,0.0,0.0,0.0,0.0,0.0,0.0,0.0,0.0,0.0,0.0,0.0,0.0,0.0,0.0,0.0,0.0,0.0,0.0,0.0,0.0,0.0,0.0,0.0,0.0,0.0,0.0,0.0,0.0,0.0,0.0,0.0,0.0,0.0,0.0,0.0,0.0,0.0,0.0,0.0,0.0,0.0,0.0,0.0,0.0,0.0,0.0,0.0,0.0,0.0,0.0,0.0,0.0,0.0,0.0,0.0,0.0,0.0,0.0,0.0,0.0,0.0,0.0,0.0,0.0,0.0,0.0,0.0,0.0,0.0,0.0,0.0,0.0,0.0,0.0,0.0,0.0,2.1019,2.2407,2.3375,2.429,2.4389,2.3677,2.1929,2.1739,2.0429,1.7456,0.0,0.0,0.0,0.0,0.0,0.0,0.0,0.0,0.0,0.0,0.0,0.0,0.0,0.0,0.0,0.0,0.0,0.0,0.0,0.0,0.0,0.0,0.0,0.0,0.0,0.0,0.0,0.0,0.0,0.0,0.0,0.0,0.0,0.0,0.0,0.0,0.0,0.0,0.0,0.0,0.0,0.0,0.0,0.0,0.0,0.0,0.0,0.0,0.0,0.0,0.0,0.0,0.0,0.0,0.0,0.0,0.0,0.0,0.0,0.0,1.82,0.0,0.0,0.0,0.0,0.0,0.0,0.0,0.0,0.0,0.0,0.0,0.0,0.0,0.0,0.0,0.0,0.0,0.0,0.0,0.0,0.0,0.0,0.0,0.0,0.0,0.0,0.0,0.0,0.0,0.0,0.0,0.0,0.0,0.0,0.0,0.0,0.0,0.0,0.0,0.0,0.0,2.0989,2.2104,2.3039,2.429,2.4389,2.3876,2.2615,2.1994,2.0745,1.8485,1.6593,0.0,0.0,0.0,0.0,0.0,0.0,0.0,0.0,0.0,0.0,0.0,0.0,0.0,0.0,0.0,0.0,0.0,0.0,0.0,0.0,0.0,0.0,0.0,0.0,0.0,0.0,0.0,0.0,0.0,0.0,0.0,0.0,0.0,0.0,0.0,0.0,0.0,0.0,0.0,0.0,0.0,0.0,0.0,0.0,0.0,0.0,0.0,0.0,0.0,0.0,0.0,0.0,0.0,0.0,0.0,0.0,0.0,0.0,0.0,0.0,1.9841,0.0,0.0,0.0,0.0,0.0,0.0,0.0,0.0,0.0,0.0,0.0,0.0,0.0,0.0,0.0,0.0,0.0,0.0,0.0,0.0,0.0,0.0,0.0,0.0,0.0,0.0,0.0,0.0,0.0,0.0,0.0,0.0,0.0,0.0,0.0,0.0,0.0,0.0,0.0,0.0,2.1166,2.1869,2.2568,2.3895,2.4032,2.3663,2.2768,2.2368,2.1306,1.9301,1.7924,0.0,0.0,0.0,0.0,0.0,0.0,0.0,0.0,0.0,0.0,0.0,0.0,0.0,0.0,0.0,0.0,0.0,0.0,0.0,0.0,0.0,0.0,0.0,0.0,0.0,0.0,0.0,0.0,0.0,0.0,0.0,0.0,0.0,0.0,0.0,0.0,0.0,0.0,0.0,0.0,0.0,0.0,0.0,0.0,0.0,0.0,0.0,0.0,0.0,0.0,0.0,0.0,0.0,2.5759,2.6454,2.7452,2.686,2.6911,2.73,2.4255,2.3296,2.3631,0.0,0.0,0.0,0.0,0.0,0.0,0.0,0.0,0.0,0.0,0.0,0.0,0.0,0.0,0.0,0.0,0.0,0.0,0.0,0.0,0.0,0.0,0.0,0.0,0.0,2.1404,2.0875,0.0,0.0,0.0,0.0,0.0,0.0,0.0,0.0,0.0,0.0,0.0,0.0,2.1313,2.1782,2.2308,2.3475,2.3595,2.3385,2.2877,2.2783,2.2004,2.0355,1.9375,1.8149,0.0,0.0,0.0,0.0,0.0,0.0,0.0,0.0,0.0,0.0,0.0,0.0,0.0,0.0,0.0,0.0,0.0,0.0,0.0,0.0,0.0,0.0,0.0,0.0,0.0,0.0,0.0,0.0,0.0,0.0,0.0,0.0,1.8484,1.9273,0.0,0.0,0.0,0.0,0.0,0.0,0.0,0.0,0.0,0.0,0.0,0.0,0.0,2.621,2.6012,2.8689,2.9841,2.9381,3.0649,3.1021,3.0598,3.0497,3.0514,3.0581,3.0091,0.0,2.5313,2.3259,0.0,0.0,0.0,0.0,0.0,0.0,0.0,0.0,0.0,0.0,0.0,0.0,0.0,0.0,0.0,0.0,0.0,0.0,0.0,0.0,0.0,0.0,2.3699,2.3292,2.3257,2.302,0.0,2.007,1.8395,1.8184,0.0,0.0,0.0,0.0,0.0,0.0,0.0,0.0,2.11,2.2015,2.2817,2.3535,2.3595,2.3565,2.349,2.2981,2.2604,2.2334,2.0572,1.9435,1.9216,1.6923,0.0,0.0,0.0,0.0,0.0,0.0,0.0,0.0,0.0,0.0,0.0,0.0,0.0,0.0,0.0,0.0,0.0,0.0,0.0,0.0,0.0,0.0,0.0,0.0,0.0,0.0,0.0,0.0,0.0,1.798,2.0494,2.1205,2.1832,2.1806,0.0,0.0,0.0,0.0,0.0,0.0,0.0,0.0,0.0,2.6994,2.8319,2.9281,2.982,3.114,3.185,3.1968,3.2611,3.2747,3.2442,3.2442,3.2442,3.2401,3.1686,3.0451,2.8844,2.6668,2.5024,2.3699,0.0,0.0,0.0,0.0,2.2095,2.2527,2.302,2.2995,0.0,0.0,0.0,0.0,0.0,0.0,0.0,0.0,0.0,0.0,0.0,0.0,0.0,2.4762,2.4732,2.4657,2.4388,2.3069,2.1605,0.0,1.95,1.8691,1.7673,0.0,0.0,0.0,0.0,2.0082,2.2123,2.2561,2.2921,2.3535,2.3595,2.3595,2.3595,2.3355,2.3041,2.2739,2.1884,2.1201,2.0827,1.8986,1.7702,0.0,0.0,0.0,0.0,0.0,0.0,0.0,0.0,0.0,0.0,0.0,0.0,0.0,0.0,0.0,0.0,0.0,0.0,0.0,0.0,0.0,0.0,0.0,0.0,0.0,0.0,0.0,0.0,1.9935,2.2171,2.2689,2.406,2.428,0.0,0.0,0.0,0.0,0.0,0.0,2.7382,2.8237,2.9363,3.0893,3.1322,3.1939,3.2831,3.3034,3.3423,3.3964,3.3964,3.3964,3.3964,3.3964,3.3964,3.3921,3.2948,3.2256,3.1614,2.9207,2.7248,2.5686,2.493,2.4649,2.4587,2.4641,2.5033,2.5591,2.6197,2.6197,2.579,2.5092,0.0,2.3378,2.1771,0.0,0.0,0.0,0.0,2.4396,2.5398,2.5618,2.5712,2.6038,2.6108,2.6063,2.5899,2.5558,2.4699,0.0,2.2161,2.1748,2.0078,0.0,0.0,0.0,0.0,2.1207,2.3341,2.3507,2.3535,2.3834,2.3864,2.3789,2.361,2.3595,2.34,2.2936,2.2813,2.2499,2.1964,2.0827,1.9809,1.8972,0.0,0.0,0.0,0.0,0.0,0.0,0.0,0.0,0.0,0.0,0.0,0.0,0.0,0.0,0.0,0.0,0.0,0.0,0.0,0.0,0.0,0.0,0.0,0.0,0.0,0.0,0.0,0.0,0.0,2.3248,2.6392,0.0,0.0,0.0,0.0,2.7216,2.7327,2.8237,3.0179,3.1057,3.1716,3.2178,3.3567,3.4346,3.4387,3.5098,3.547,3.5504,3.5504,3.5504,3.5504,3.5504,3.5504,3.5504,3.5414,3.4303,3.2332,2.9679,2.8334,2.7963,2.7287,2.6898,2.6765,2.6963,2.7042,2.7133,2.7418,2.6699,2.5843,2.703,2.6821,2.6096,2.5907,2.533,0.0,0.0,2.5607,2.5444,2.6329,2.6531,2.6696,2.737,2.752,2.7305,2.6677,2.6914,2.6688,0.0,2.3938,2.3417,2.3117,0.0,2.3041,2.3118,2.3634,2.4177,2.4507,2.5076,2.5241,2.4597,2.4522,2.4313,2.3655,2.3595,2.3595,2.355,2.2996,2.2667,2.2664,2.1964,2.0976,1.966,1.8283,0.0,0.0,0.0,0.0,0.0,0.0,0.0,0.0,0.0,0.0,0.0,0.0,0.0,0.0,0.0,0.0,0.0,0.0,0.0,0.0,0.0,0.0,0.0,0.0,0.0,0.0,0.0,0.0,2.6687,2.8652,0.0,2.8005,2.8592,2.9174,2.9451,3.0212,3.1124,3.2304,3.3564,3.4499,3.5193,3.6163,3.6688,3.6688,3.6958,3.7094,3.7094,3.7094,3.7094,3.7047,3.6534,3.6306,3.6224,3.4862,3.3831,3.3013,3.1197,2.9943,2.9078,2.8837,2.8697,2.8667,2.8707,2.8746,2.8776,2.8824,2.8547,2.8173,2.8218,2.7755,2.72,2.7534,2.7458,2.7407,2.8031,2.8115,2.8157,2.8434,2.8203,2.7949,2.8173,2.7889,2.75,2.7275,2.7399,2.7312,2.6666,2.594,2.5146,2.4275,2.4126,2.4126,2.4126,2.4323,2.4671,2.5181,2.5465,2.5525,2.5285,2.5255,2.4986,2.4313,2.4253,2.4073,2.3625,2.3385,2.3101,2.2739,2.2039,2.1276,2.0363,1.9031,1.7071,0.0,0.0,0.0,0.0,0.0,0.0,0.0,0.0,0.0,0.0,0.0,0.0,0.0,0.0,0.0,0.0,0.0,0.0,0.0,0.0,0.0,0.0,0.0,0.0,0.0,0.0,2.7639,2.8991,3.0542,3.131,3.0924,3.1453,3.2051,3.2564,3.3386,3.4134,3.4878,3.5859,3.662,3.7144,3.7652,3.7905,3.7905,3.7905,3.7905,3.7905,3.7905,3.7905,3.7905,3.7336,3.6936,3.6615,3.5219,3.4321,3.3743,3.2886,3.1754,3.0552,3.0328,3.0238,3.0238,3.0238,3.0238,3.0208,2.9968,2.9894,2.9789,2.9146,2.8622,2.8402,2.8947,2.9048,2.9012,2.9572,2.9666,2.9579,2.9579,2.9265,2.8936,2.8936,2.8577,2.8248,2.8248,2.8248,2.8248,2.8248,2.75,2.6457,2.5452,2.5285,2.5285,2.5285,2.5285,2.5525,2.6183,2.6273,2.6183,2.5959,2.5944,2.5585,2.4657,2.4418,2.4088,2.3625,2.3191,2.2877,2.2724,2.2039,2.138,2.0722,1.9166,1.7305,1.5197,0.0,0.0,0.0,0.0,0.0,0.0,0.0,0.0,0.0,0.0,0.0,0.0,0.0,0.0,0.0,0.0,0.0,0.0,0.0,0.0,0.0,0.0,0.0,2.5404,2.7725,2.9558,3.0029,3.2111,3.3345,3.2995,3.3955,3.5216,3.6705,3.6806,3.7144,3.7872,3.7922,3.7939,3.7939,3.7973,3.7973,3.7973,3.7973,3.7973,3.7973,3.7973,3.7973,3.7925,3.7925,3.7468,3.6713,3.6645,3.5803,3.4484,3.4454,3.3707,3.2497,3.1824,3.1497,3.1482,3.1482,3.1482,3.1377,3.0776,3.0537,3.0432,2.9834,2.9639,2.9801,3.036,3.0129,2.9786,3.036,3.0129,2.9639,2.9639,2.9624,2.9609,2.9609,2.9594,2.9579,2.9579,2.9579,2.9579,2.9579,2.8532,2.7475,2.6767,2.6632,2.6617,2.6617,2.6617,0.0,2.7535,2.7625,2.732,2.6692,2.6617,2.6093,2.4746,2.4059,2.364,2.3595,2.2413,2.1994,2.2664,2.2039,2.1395,2.0684,1.8728,1.7143,1.6002,0.0,0.0,0.0,0.0,0.0,0.0,0.0,0.0,0.0,0.0,0.0,0.0,0.0,0.0,0.0,0.0,0.0,0.0,0.0,0.0,0.0,2.7135,2.8955,2.9056,3.0443,3.2094,3.385,3.5128,3.6022,3.6452,3.6768,3.7144,3.7567,3.7601,3.7686,3.7889,3.8413,3.87,3.87,3.9208,3.9478,3.9478,3.9478,3.9478,3.9478,3.9478,3.9194,3.8612,3.8079,3.7383,3.6589,3.553,3.4866,3.4438,3.3955,3.3758,3.3634,3.2632,3.1958,3.1482,3.1482,3.1482,3.1452,3.1315,3.1255,3.1225,3.1046,3.1001,3.1001,3.1196,3.1099,3.0986,3.1196,3.1099,3.1001,3.1001,3.0627,3.0253,3.0253,2.9909,2.9579,2.9579,2.9579,2.9579,2.9579,2.928,2.8816,2.8173,2.7634,2.7355,2.7355,2.7355,0.0,2.7595,2.7625,2.755,2.732,2.7355,2.6961,2.6123,2.5435,2.4642,2.3655,2.2847,2.2278,2.1979,2.1799,2.1208,2.0138,1.863,1.7241,0.0,0.0,0.0,0.0,0.0,0.0,0.0,0.0,0.0,0.0,0.0,0.0,0.0,0.0,0.0,0.0,0.0,0.0,0.0,0.0,0.0,0.0,3.0349,3.2388,3.3037,3.343,3.4404,3.6349,3.6975,3.755,3.8294,3.8362,3.8481,3.8802,3.8819,3.8819,3.8819,3.9225,3.9445,3.9445,3.9868,4.007,4.007,4.007,4.007,4.007,4.007,3.9662,3.8908,3.8469,3.7658,0.0,3.5737,3.5178,3.4876,3.4502,3.4322,0.0,0.0,0.0,0.0,0.0,3.1943,3.1898,3.1571,3.1482,3.1482,3.1482,3.1482,3.1482,3.1482,3.1482,3.1482,3.1482,3.1482,3.1482,3.1482,3.124,3.0941,3.0941,3.0657,3.0402,3.0402,3.0402,3.0402,3.0402,0.0,0.0,2.946,2.8846,2.8464,2.8464,2.8173,2.8008,2.8008,2.7754,2.7625,2.7625,2.7625,2.7355,2.6647,2.5734,0.0,0.0,0.0,2.2099,2.171,2.1695,0.0,0.0,0.0,0.0,0.0,0.0,0.0,0.0,1.6636,1.6989,0.0,0.0,0.0,0.0,0.0,0.0,0.0,0.0,0.0,0.0,0.0,0.0,0.0,0.0,0.0,0.0,3.3536,3.5284,3.6806,3.6434,3.6502,3.7872,3.8024,3.8311,3.9039,3.9106,3.9394,4.002,4.007,4.007,4.007,0.0,0.0,0.0,0.0,4.007,4.007,4.007,4.007,4.007,4.002,3.9558,3.8745,3.8674,3.7873,3.6508,3.6508,3.6117,3.5504,3.5504,3.5145,3.4517,3.3784,3.3754,3.3993,3.3006,3.2617,0.0,3.1884,0.0,0.0,3.1586,3.1541,3.1482,3.1556,3.1586,3.1571,3.1497,3.1526,3.1571,3.1497,3.1482,3.1482,3.1482,3.1482,3.1482,3.1482,3.1482,3.1482,3.1482,3.1046,3.0612,3.0612,3.0043,2.9579,2.9579,2.9086,2.8682,2.8607,2.8068,2.7664,2.7625,0.0,0.0,2.6752,2.5555,2.4761,2.4701,2.3026,2.2024,2.2024,2.2003,2.1962,2.1806,2.1152,2.0806,2.0784,2.065,2.0386,1.9936,1.8565,1.8602,0.0,0.0,0.0,0.0,0.0,0.0,0.0,0.0,0.0,0.0,0.0,0.0,0.0,0.0,0.0,3.3291,3.5104,3.6857,3.8362,3.843,3.8447,3.8751,3.8785,3.9073,3.98,3.9868,3.9935,4.007,4.007,4.007,4.007,4.007,4.007,4.007,4.007,4.007,4.007,4.007,4.007,4.007,0.0,0.0,3.7978,3.7306,3.6569,3.5733,3.5733,3.5619,3.5504,3.5504,3.5429,3.519,3.3963,3.3559,3.3604,3.338,3.3305,3.3215,3.2557,3.2332,3.2332,3.2332,3.1958,3.1571,3.2153,3.2332,0.0,3.1616,3.1913,3.2198,3.1616,3.1482,3.1482,3.1482,3.1482,3.1482,3.1482,3.1482,3.1482,3.1482,3.1377,3.1345,3.1345,3.0357,2.9579,2.9579,2.9475,2.9205,2.8667,2.8487,2.8188,2.7685,2.7625,2.7565,2.7445,2.6662,2.5989,2.545,2.4567,2.4014,2.4014,2.3975,2.3507,2.2521,2.1784,2.1205,2.0745,2.0703,2.0835,2.1142,2.0408,2.022,0.0,0.0,0.0,0.0,0.0,0.0,0.0,0.0,0.0,0.0,0.0,2.9505,3.0074,0.0,3.4833,3.5761,3.7046,3.8278,3.9377,3.9529,3.9529,3.9529,3.9529,3.9681,4.0037,4.007,4.007,4.007,4.007,4.007,4.007,4.007,4.007,4.007,4.007,4.007,4.007,4.007,3.9901,3.9489,3.9086,3.8286,3.7219,3.6783,3.6228,3.5504,3.5504,3.5504,3.5504,3.5504,3.5504,3.5429,3.4756,3.4502,3.4457,3.4113,3.3978,3.3888,3.323,3.3006,3.3006,3.3006,3.2781,3.2572,3.2901,3.3006,3.2871,3.2213,3.2258,3.2362,3.1646,3.1482,3.1482,3.1482,3.1482,3.1482,3.1482,3.1482,3.1482,3.1482,3.1482,3.1482,3.1482,3.0986,3.0552,3.0552,3.0268,2.9924,2.9594,2.928,2.8831,2.8158,2.8083,2.7949,2.7655,2.6976,2.6303,2.5644,2.53,2.5121,2.5121,2.5077,2.4583,2.3604,2.2967,2.2405,2.2008,2.1648,2.192,2.2736,2.246,2.2184,0.0,0.0,0.0,0.0,0.0,0.0,0.0,2.5773,2.7505,2.8676,3.1168,3.3179,3.3527,3.5299,3.7045,3.7953,3.8717,3.9411,4.0003,4.007,4.007,4.007,4.007,4.007,4.007,4.007,4.007,4.007,4.007,4.007,4.007,4.007,4.007,4.007,4.007,4.007,4.007,3.9952,3.9542,3.8908,3.8619,3.7815,3.6615,3.6446,3.6054,3.5504,3.5504,3.5504,3.5504,3.5504,3.5504,3.5504,3.5504,3.5504,3.5429,3.4876,3.4666,3.4577,3.3918,3.3679,3.3679,3.3679,3.3604,3.3514,3.3649,3.3679,3.3544,3.2886,3.2796,3.2736,3.2078,3.1913,3.1913,3.1913,3.1824,3.1661,3.1661,3.1556,3.1482,3.1482,3.1482,3.1482,3.1482,3.1482,3.1482,3.1482,3.1061,3.0657,3.0522,3.0073,2.9505,2.8861,2.8786,2.8517,2.7829,2.7156,2.6557,2.6019,2.5989,2.5941,2.5797,2.5638,2.5276,2.4605,2.3884,2.354,2.3566,2.2967,2.3163,2.4155,2.4155,2.3904,2.1061,2.1669,2.2701,2.4492,2.5317,2.664,0.0,3.1596,3.2366,3.3495,3.5077,3.6299,3.6339,3.7644,3.8715,3.8853,3.9478,3.9986,4.007,4.007,4.007,4.007,4.007,4.007,4.007,4.007,4.007,4.007,4.007,4.007,4.007,4.007,4.007,4.007,4.007,4.007,4.007,3.9368,3.8962,3.8908,3.7526,3.6783,3.6615,3.5958,3.5554,3.5504,3.5504,3.5504,3.5504,3.5504,3.5504,3.5504,3.5504,3.5504,3.5489,3.5415,3.5385,3.5295,3.4607,3.4367,3.4367,3.4367,3.3978,3.3604,3.4188,3.4367,3.4233,3.3574,3.3799,3.4098,3.344,3.3275,3.3275,3.3275,3.2826,3.2407,3.2407,3.1943,3.1482,3.1482,3.1482,3.1482,3.1482,3.1482,3.1482,3.1482,3.1407,3.1195,3.0582,3.0447,3.0163,2.9535,2.9475,2.9205,2.8547,2.7859,2.7475,2.74,2.74,2.7083,2.6414,2.5748,2.5272,2.5023,2.3772,2.3647,2.4659,2.4104,2.413,2.4732,2.4732,2.4695,2.3624,2.476,2.5902,2.6937,2.8956,3.1039,3.2312,3.3745,3.4998,3.5677,3.7009,3.8075,3.8075,3.892,3.9631,0.0,3.9884,4.007,4.007,4.007,3.9918,3.9495,3.9817,4.007,4.007,4.007,4.007,4.007,4.007,4.007,4.007,4.007,4.007,4.007,4.007,3.9901,3.9437,3.9086,3.8453,3.7526,3.6904,3.6399,3.5943,3.5604,3.5504,3.5504,3.5504,3.5504,3.5504,3.5504,3.5504,3.5504,3.5504,3.5504,3.5504,3.5504,3.5504,3.5459,3.5175,3.507,3.507,3.507,3.4891,3.4711,3.4996,3.507,3.4936,3.4262,3.4262,3.4322,3.3664,3.3499,3.3499,3.3499,3.2991,3.2512,3.2512,3.2003,3.1482,3.1482,3.1482,3.1482,3.1482,3.1482,3.1482,3.1482,3.1482,3.1377,3.115,3.1106,3.0851,3.0193,2.9804,2.9475,2.919,2.8906,2.8742,2.8742,2.8742,2.8394,2.7605,2.7257,2.6616,2.5564,2.5023,2.4732,2.482,2.4594,2.4757,2.5272,2.5272,2.5448,2.5253,2.6691,2.8046,2.9126,3.1785,3.4099,3.3922,3.5497,3.7035,3.7356,3.8413,3.9292,3.9292,3.9715,4.007,4.007,4.007,4.007,4.007,3.9901,3.958,3.9056,3.9462,3.9783,3.9783,3.9952,4.007,4.007,4.007,4.007,4.007,4.007,4.007,4.007,3.9885,3.9489,3.8908,3.8453,3.77,3.6615,3.6384,3.6006,3.5504,3.5504,3.5504,3.5504,3.5504,3.5504,3.5504,3.5504,3.5504,3.5504,3.5504,3.5504,3.5504,3.5504,3.5504,3.5504,3.5504,3.5504,3.5504,3.5504,3.5504,3.5504,3.5504,3.5504,3.54,3.4906,3.4756,3.4651,3.4173,3.4053,3.4053,3.4053,3.3544,3.3051,3.3051,3.2392,3.1809,3.1809,3.1601,3.1482,3.1482,3.1482,3.1482,3.1482,3.1482,3.1482,3.1482,3.1482,3.1345,3.0836,3.0223,2.9834,2.9834,2.9684,2.9579,2.9579,2.9579,2.9098,2.8025,2.7968,2.7322,2.5842,2.5699,2.5486,2.5272,2.5109,2.531,2.5837,2.5837,2.6063,2.5389,2.6691,2.8518,3.1467,3.3347,3.4888,3.6344,3.7851,3.8903,3.892,3.9529,4.0054,4.0054,4.0054,4.007,4.007,4.007,4.007,4.007,3.9462,3.9022,3.8988,3.9005,3.9022,3.9022,3.9665,4.007,4.007,4.007,4.007,4.007,4.007,4.007,4.007,3.9315,3.8908,3.8908,3.7408,3.6661,3.66,3.5894,3.5504,3.5504,3.5504,3.5504,3.5504,3.5504,3.5504,3.5504,3.5504,3.5504,3.5504,3.5504,3.5504,3.5504,3.5504,3.5504,3.5504,3.5504,3.5504,3.5504,3.5504,3.5504,3.5504,3.5504,3.5504,3.5504,3.5489,3.5474,3.5474,3.5444,3.5444,3.5444,3.5444,3.4921,3.4412,3.4412,3.3395,3.2482,3.2482,3.1973,3.1482,3.1482,3.1482,3.1482,3.1482,3.1482,3.1482,3.1482,3.1482,3.1467,3.1437,3.0881,3.0477,3.0477,2.9924,2.9579,2.9579,2.9579,2.8861,2.7325,2.7252,2.6741,2.5615,2.5071,2.5347,2.6483,2.585,2.5875,2.6496,2.6496,2.6508,2.7368,2.9651,3.1884,3.3372,3.5622,3.7618,3.8125,3.9005,3.9715,3.9715,3.9529,3.936,3.936,3.8954,3.8802,3.9276,3.936,3.9529,4.0003,3.9868,3.9529,3.9056,3.9411,3.9529,3.9039,3.9648,0.0,4.007,4.007,4.007,4.007,4.007,3.985,3.9315,3.9032,3.8398,3.735,3.6843,3.6322,3.5894,3.5619,3.5504,3.5504,3.5504,3.5504,3.5504,3.5504,3.5504,3.5504,3.5504,3.5504,3.5504,3.5504,3.5504,3.5504,3.5504,3.5504,3.5504,3.5504,3.5504,3.5504,3.5504,3.5504,3.5504,3.5504,3.5504,3.5504,3.5504,3.5504,3.5504,3.5504,3.5504,3.5504,3.5504,3.4981,3.4472,3.4472,3.3784,3.3036,3.2602,3.2332,3.2048,3.1556,3.1482,3.1482,3.1482,3.1482,3.1482,3.1482,3.1482,3.1482,3.1482,3.133,3.118,3.118,3.1001,3.0624,3.0075,3.0061,2.9323,2.7591,2.7528,2.7118,2.6231,2.6,2.6088,2.6533,2.6332,2.6264,2.6533,2.6533,2.6653,2.9482,3.1749,3.3846,3.5639,3.7567,3.9056,3.9326,3.9546,3.9614,3.936,3.8497,3.7787,3.7787,3.7178,3.711,3.8396,3.8616,3.8954,3.9935,3.9851,3.9512,3.9056,3.9411,3.9512,3.9039,3.9648,0.0,4.007,4.007,4.007,4.007,4.007,3.9731,3.8908,3.8635,3.7889,3.66,3.6337,3.5943,3.5504,3.5504,3.5504,3.5504,3.5504,3.5504,3.5504,3.5504,3.5504,3.5504,3.5504,3.5504,3.5504,3.5504,3.5504,3.5504,3.5504,3.5504,3.5504,3.5504,3.5504,3.5504,3.5504,3.5504,3.5504,3.5504,3.5504,3.5504,3.5504,3.5504,3.5504,3.5504,3.5504,3.5504,3.5504,3.516,3.4846,3.4846,3.4322,3.3724,3.3305,3.3021,3.2736,3.2302,3.2048,3.1809,3.1511,3.1482,3.1482,3.1482,3.1482,3.1482,3.1482,3.1482,3.1482,3.1482,3.1482,3.1161,3.0329,3.0329,2.9504,2.7802,2.767,2.7284,2.6521,2.6533,2.6533,2.6533,2.6533,2.6634,2.6753,2.6753,2.7055,3.1596,3.3034,3.4539,3.8108,3.9022,3.9225,3.9868,3.9462,3.8717,3.7939,3.6569,3.5487,3.5402,3.4861,3.5148,3.7381,3.7838,3.8413,3.9868,3.9478,3.9056,0.0,3.9056,3.9056,3.9056,3.9681,0.0,4.007,0.0,4.007,4.007,4.007,3.9714,3.8854,3.8133,3.7397,3.6554,3.5831,3.5504,3.5504,3.5504,3.5504,3.5504,3.5504,3.5504,3.5504,3.5504,3.5504,3.5504,3.5504,3.5504,3.5504,3.5504,3.5504,3.5504,3.5504,3.5504,3.5504,3.5504,3.5504,3.5504,3.5504,3.5504,3.5504,3.5504,3.5504,3.5504,3.5504,3.5504,3.5504,3.5504,3.5504,3.5504,3.5504,3.5504,3.5504,3.5504,3.4996,3.4517,3.4487,3.3948,3.3499,3.3499,3.2976,3.2362,3.1676,3.1541,3.1511,3.1482,3.1482,3.1482,3.1482,3.1482,3.1482,3.1482,3.1467,3.1087,3.0269,3.0208,2.938,2.7736,2.767,2.7297,2.6533,2.6533,2.6533,2.6533,2.6559,2.6766,2.7281,2.7318,2.762,3.3423,3.5707,3.7804,3.8751,3.9394,3.9698,3.9343,3.87,3.7804,3.6485,3.5013,3.3643,3.2527,3.3068,3.4049,3.5182,3.6789,3.8413,3.9868,3.9918,3.98,3.98,3.98,3.98,3.98,3.9969,0.0,0.0,4.007,4.007,4.007,4.007,3.9506,3.8133,3.7921,3.7175,3.5782,3.5619,3.5504,3.5504,3.5504,3.5504,3.5504,3.5504,3.5504,3.5504,3.5504,3.5504,3.5504,3.5504,3.5504,3.5504,3.5504,3.5504,3.5504,3.5504,3.5504,3.5504,3.5504,3.5504,3.5504,3.5504,3.5504,3.5504,3.5504,3.5504,3.5504,3.5504,3.5504,3.5504,3.5504,3.5504,3.5504,3.5504,3.5504,3.5504,3.5504,3.537,3.51,3.4577,3.3948,3.3499,3.3499,3.3365,3.3185,3.3021,3.2572,3.2078,3.1541,3.1482,3.1482,3.1482,3.1482,3.1482,3.1482,3.097,3.0269,2.938,2.8748,2.7855,2.685,2.6782,2.6714,2.6533,2.6533,2.6533,2.6533,2.6866,2.7143,2.7293,2.7708,2.8185,3.5081,3.7212,3.9073,3.9394,3.9529,3.9242,3.7838,3.6705,3.5318,3.3152,3.1512,3.0209,2.9381,3.0446,3.1918,3.3305,3.5707,3.7922,3.9394,3.9884,4.007,4.007,4.007,4.007,4.007,4.007,4.007,0.0,4.007,4.007,4.007,3.9782,3.9049,3.7806,3.7456,3.6707,3.5504,3.5504,3.5504,3.5504,3.5504,3.5504,3.5504,3.5504,3.5504,3.5504,0.0,3.5504,3.5504,3.5504,3.5504,3.5504,3.5504,3.5504,3.5504,3.5504,3.5504,3.5504,3.5504,3.5504,3.5504,3.5504,3.5504,3.5504,3.5504,3.5504,3.5504,3.5504,3.5504,3.5504,3.5504,3.5504,3.5504,3.5504,3.5504,3.5504,3.5504,3.5504,3.5385,3.4996,3.4637,3.4277,3.3978,3.3918,3.3829,3.3544,3.2931,3.2377,3.2018,3.1661,3.1482,3.1482,3.1482,3.1482,3.1482,3.0777,2.995,2.9066,2.8182,2.7351,2.6521,2.6533,2.6533,2.6533,2.6533,2.6533,2.6533,2.7017,2.7406,2.7657,2.821,2.8762,3.6535,3.8007,3.9276,3.98,3.9427,3.8306,3.5904,3.4279,3.24,2.9389,2.7606,2.6555,2.6351,2.769,2.9553,3.171,3.4549,3.706,3.8751,3.9529,3.9969,4.007,4.007,4.007,4.007,4.007,4.007,4.007,4.007,4.007,4.007,3.9315,3.8525,3.769,3.6859,3.6165,3.5504,3.5504,3.5504,3.5504,3.5504,3.5504,3.5504,3.5504,3.5504,3.5504,0.0,0.0,3.5504,3.5504,3.5504,3.5504,3.5504,3.5504,3.5504,3.5504,3.5504,3.5504,3.5504,3.5504,3.5504,3.5504,3.5504,3.5504,3.5504,3.5504,3.5504,3.5504,3.5504,3.5504,3.5504,3.5504,3.5504,3.5504,3.5504,3.5504,3.5504,3.5504,3.5504,3.5504,3.5504,3.531,3.4711,3.4607,3.4427,3.3844,3.32,3.2736,3.2662,3.2003,3.1482,3.1482,3.1482,3.1482,3.1482,3.0644,2.9827,2.9066,2.8051,2.7229,2.6521,2.6533,2.6533,2.6533,2.6596,2.6634,2.6634,2.7205,2.7745,2.8235,2.8787,2.9315,3.7466,3.8785,3.9766,3.9292,3.8901,3.7806,3.4854,3.3311,3.1533,2.8196,2.6805,2.5824,2.4597,2.6362,2.8642,3.0499,3.3104,3.5842,3.8599,3.9106,3.9411,4.0003,4.007,4.007,4.007,4.007,0.0,0.0,0.0,4.007,4.007,3.9315,3.8286,3.6843,3.6054,3.5619,3.5504,3.5504,3.5504,3.5504,3.5504,3.5504,3.5504,3.5504,3.5504,3.5504,3.5504,0.0,3.5504,3.5504,3.5504,3.5504,3.5504,3.5504,3.5504,3.5504,3.5504,3.5504,3.5504,3.5504,3.5504,3.5504,3.5504,3.5504,3.5504,3.5504,3.5504,3.5504,3.5504,3.5504,3.5504,3.5504,3.5504,3.5504,3.5504,3.5504,3.5504,3.5504,3.5504,3.5504,3.5504,3.5474,3.5355,3.5325,3.5295,3.5175,3.4577,3.3933,3.3395,3.2273,3.1482,3.1482,3.1482,3.1482,3.1482,3.0072,2.9192,2.9002,2.7537,2.6658,2.6533,2.6533,2.6533,2.6533,2.6904,2.7143,2.7143,2.8147,2.8687,2.88,2.9377,2.9691,3.7872,3.8874,3.9428,3.9089,3.8435,3.6887,3.3038,3.1324,2.9532,2.5862,2.4701,2.4178,2.3614,2.5232,2.7114,2.8543,3.1014,3.3812,3.6823,3.7584,3.8396,3.9901,4.007,4.007,4.007,4.007,4.007,4.007,0.0,4.007,4.007,3.8978,3.7616,3.6054,3.5668,3.5504,3.5504,3.5504,3.5504,3.5504,3.5504,3.5504,3.5504,3.5504,3.5504,3.5504,3.5504,0.0,3.5504,3.5504,3.5504,3.5504,3.5504,3.5504,3.5504,3.5504,3.5504,3.5504,3.5504,3.5504,3.5504,3.5504,3.5504,3.5504,3.5504,3.5504,3.5504,3.5504,3.5504,3.5504,3.5504,3.5504,3.5504,3.5504,3.5504,3.5504,3.5504,3.5504,3.5504,3.5504,3.5504,3.5504,3.5504,3.5504,3.5504,3.5504,3.4921,3.4247,3.3589,3.2647,3.1913,3.1511,3.1482,3.1482,3.1482,2.995,2.9002,2.9002,2.7417,2.6533,2.6533,2.6533,2.6659,2.6879,2.7155,2.7419,2.7708,2.8536,2.8925,2.8938,2.9528,2.9792,3.7836,3.8653,3.9003,3.8755,3.7816,3.5792,3.1301,2.9478,2.7691,2.3981,2.3045,2.2972,2.3165,2.4351,2.5723,2.7006,2.9246,3.193,3.5165,3.6282,3.7601,3.9817,4.007,4.007,4.007,4.007,0.0,4.007,0.0,0.0,3.961,3.8446,3.7055,3.5569,3.5504,3.5504,3.5504,3.5504,3.5504,3.5504,3.5504,3.5504,3.5504,3.5504,3.5504,3.5504,3.5504,0.0,0.0,3.5504,3.5504,3.5504,3.5504,3.5504,3.5504,3.5504,3.5504,3.5504,3.5504,3.5504,3.5504,3.5504,3.5504,3.5504,3.5504,3.5504,3.5504,3.5504,3.5504,3.5504,3.5504,3.5504,3.5504,3.5504,3.5504,3.5504,3.5504,3.5504,3.5504,3.5504,3.5504,3.5504,3.5504,3.5504,3.5504,3.5504,3.504,3.4457,3.3784,3.3245,3.2617,3.1708,3.1382,3.1219,3.1219,2.969,2.8748,2.8748,2.7284,2.6533,2.6533,2.6533,2.6716,2.7268,2.7394,2.7733,2.8285,2.8837,2.9114,2.9126,2.9578,2.9792,3.7196,3.8267,3.9111,3.7923,3.6591,3.4528,3.0438,2.8678,2.7014,2.3845,2.3414,2.3522,2.3236,2.3876,2.5032,2.6878,2.8525,3.0994,3.504,3.6282,3.7601,3.9817,4.007,4.007,4.007,4.007,4.007,4.007,0.0,0.0,3.8108,3.7879,3.7055,3.5569,3.5504,3.5504,3.5504,3.5504,3.5504,3.5504,3.5504,3.5504,3.5504,3.5504,3.5504,3.5504,3.5504,0.0,0.0,3.5504,3.5504,3.5504,3.5504,3.5504,3.5504,3.5504,3.5504,3.5504,3.5504,3.5504,3.5504,3.5504,3.5504,3.5504,3.5504,3.5504,3.5504,3.5504,3.5504,3.5504,3.5504,3.5504,3.5504,3.5504,3.5504,3.5504,3.5504,3.5504,3.5504,3.5504,3.5504,3.5504,3.5504,3.5504,3.5504,3.5504,3.5444,3.516,3.4472,3.4322,3.3758,3.2246,3.1069,3.0389,3.0389,2.8812,2.7802,2.7802,2.6973,2.6533,2.6533,2.6533,2.6716,2.7268,2.777,2.8298,2.885,2.9428,2.9716,2.9716,2.9767,2.9792,3.6952,3.8122,3.8611,3.8111,3.6682,3.449,3.0969,2.8935,2.7046,2.4348,2.3753,2.3714,2.3795,2.3549,2.4016,2.6136,2.645,2.7896,3.2021,3.3063,3.4573,3.7719,3.8497,3.9106,0.0,0.0,4.007,4.007,0.0,0.0,3.8525,3.8035,3.7055,3.5569,3.5504,3.5504,3.5504,3.5504,3.5504,3.5504,3.5504,3.5504,3.5504,3.5504,3.5504,3.5504,3.5504,0.0,0.0,3.5504,3.5504,3.5504,3.5504,3.5504,3.5504,3.5504,3.5504,3.5504,3.5504,3.5504,3.5504,3.5504,3.5504,3.5504,3.5504,3.5504,3.5504,3.5504,3.5504,3.5504,3.5504,3.5504,3.5504,3.5504,3.5504,3.5504,3.5504,3.5504,3.5504,3.5504,3.5504,3.5504,3.5504,3.5504,3.5279,3.4691,3.461,3.4161,3.2897,3.2744,3.2354,3.1335,3.1297,3.114,3.0535,2.9092,2.8157,2.8157,2.7152,2.6533,2.6533,2.6779,2.7218,2.777,2.8323,2.8888,2.9453,2.9679,2.9792,2.9792,2.9792,2.9792,3.5851,3.716,3.7667,3.7502,3.6,3.381,3.089,2.8764,2.6793,2.4513,2.3937,2.3896,2.4016,2.3459,2.3534,2.512,2.5136,2.6273,2.9935,3.1062,3.2747,3.6045,3.711,3.8058,3.9326,3.9817,4.007,0.0,0.0,0.0,3.8962,3.8189,3.7175,3.5894,3.5619,3.5504,3.5504,3.5504,3.5504,3.5504,3.5504,3.5504,3.5504,3.5504,3.5504,3.5504,0.0,0.0,0.0,3.5504,3.5504,3.5504,3.5504,3.5504,3.5504,3.5504,3.5504,3.5504,3.5504,3.5504,3.5504,3.5504,3.5504,3.5504,3.5504,3.5504,3.5504,3.5504,3.5504,3.5504,3.5504,3.5504,3.5504,3.5504,3.5504,3.5504,3.5504,3.5504,3.5504,3.5504,3.5504,3.5439,3.5133,3.5067,3.4691,3.3739,3.3602,3.3155,3.2013,3.1902,3.1597,3.0825,3.1405,3.1388,3.0365,2.9125,2.8283,2.8183,2.7379,2.6866,2.6703,2.7231,2.7783,2.8335,2.8737,2.9214,2.9792,2.9792,2.9792,2.9792,2.9792,2.9792,3.3623,3.5055,3.6186,3.5648,3.4084,3.1991,2.9579,2.7763,2.6051,2.41,2.3976,2.4094,2.3774,2.3692,2.3746,2.3911,2.5149,2.7,2.9722,3.136,3.3102,3.5368,3.6315,3.7094,3.7855,3.9225,4.007,0.0,0.0,0.0,3.8962,3.8189,3.7456,3.66,3.5894,3.5504,3.5504,3.5504,3.5504,3.5504,3.5504,3.5504,3.5504,3.5504,3.5504,0.0,0.0,0.0,0.0,3.5504,3.5504,3.5504,3.5504,3.5504,3.5504,3.5504,3.5504,3.5504,3.5504,3.5504,3.5504,3.5504,3.5504,3.5504,3.5504,3.5504,3.5504,3.5504,3.5504,3.5504,3.5504,3.5504,3.5504,3.5504,3.5504,3.5504,3.5504,3.5504,3.5504,3.5504,3.5504,3.5213,3.4177,3.4027,3.3671,3.2749,3.2593,3.2593,3.2593,3.2593,3.2236,3.1302,3.1228,3.0692,2.9487,2.8638,2.7858,2.7318,2.7795,2.7846,2.7293,2.7808,2.8348,2.8913,2.8925,2.9214,2.9792,2.9792,2.9792,2.9792,2.9792,2.9792,3.0815,3.2118,3.29,3.273,3.1411,2.9789,2.85,2.6936,2.5454,2.4275,2.4132,2.417,2.4074,2.3671,2.413,2.6455,2.667,2.7418,3.0089,3.1947,3.3508,3.4709,3.733,3.9123,0.0,0.0,0.0,0.0,0.0,0.0,3.9731,3.8978,3.7946,3.6661,3.5894,3.5504,3.5504,3.5504,3.5504,3.5504,3.5504,3.5504,3.5504,3.5504,0.0,0.0,0.0,0.0,0.0,3.5504,3.5504,3.5504,3.5504,3.5504,3.5504,3.5504,3.5504,3.5504,3.5504,3.5504,3.5504,3.5504,3.5504,3.5504,3.5504,3.5504,3.5504,3.5504,3.5504,3.5504,3.5504,3.5504,3.5504,3.5504,3.5504,3.5504,3.5504,3.5504,3.5504,3.5504,3.5504,3.5424,3.5067,3.4476,3.3876,3.3602,3.2464,3.1683,3.1683,3.1057,3.057,3.0279,3.0203,3.0063,2.9718,2.9038,2.8586,2.8411,2.8222,2.8021,2.7846,2.8373,2.875,2.8925,2.9315,2.9616,2.9792,2.9792,2.9792,2.9792,2.9792,2.9792,2.8007,2.9659,3.0485,3.0485,2.9512,2.8338,2.753,2.6337,2.5182,2.4373,2.419,2.419,2.419,2.3774,2.4034,2.5979,2.6185,2.6871,2.9213,3.1278,3.3271,3.5131,3.7669,0.0,0.0,3.9918,0.0,0.0,0.0,0.0,4.007,3.9315,3.8453,3.7526,3.6461,3.5782,3.5504,3.5504,3.5504,3.5504,3.5504,3.5504,3.5504,3.5504,0.0,0.0,0.0,0.0,0.0,3.5504,3.5504,3.5504,3.5504,3.5504,3.5504,3.5504,3.5504,3.5504,3.5504,3.5504,3.5504,3.5504,3.5504,3.5504,3.5504,3.5504,3.5504,3.5504,3.5504,3.5504,3.5504,3.5504,3.5504,3.5504,3.5504,3.5504,3.5504,3.5504,3.5504,3.5504,3.5504,3.5359,3.4986,3.4394,3.3739,3.3031,3.196,3.1031,3.0696,3.0139,2.9792,2.9792,2.9792,2.9792,2.9792,2.9465,2.9164,2.8938,2.8812,2.8649,2.8423,2.895,2.9252,2.9252,2.9616,2.9792,2.9792,2.9792,2.9792,2.9792,2.9792,2.9792,0.0,2.731,2.848,2.848,2.797,2.7255,2.6521,2.5805,0.0,2.4355,2.419,2.4226,2.4355,2.399,2.3696,2.3679,2.4549,2.5928,2.7842,3.0125,3.2933,0.0,3.7635,0.0,3.9005,0.0,0.0,0.0,0.0,0.0,4.007,3.9368,3.8908,3.8799,3.7408,3.6337,3.5554,3.5504,3.5504,3.5504,3.5504,3.5504,3.5504,3.5504,0.0,0.0,0.0,0.0,0.0,3.5504,3.5504,3.5504,3.5504,3.5504,3.5504,3.5504,3.5504,3.5504,3.5504,3.5504,3.5504,3.5504,3.5504,3.5504,3.5504,3.5504,3.5504,3.5504,3.5504,3.5504,3.5504,3.5504,3.5504,3.5504,3.5504,3.5504,3.5504,3.5504,3.5504,3.5504,3.5504,3.5213,3.4245,3.4027,3.331,3.1669,3.1254,3.0833,2.9998,2.9869,2.9792,2.9792,2.9792,2.9792,2.9792,2.9792,2.9566,2.9026,2.9503,2.9553,2.9013,2.9503,2.9792,2.9792,2.9792,2.9792,2.9792,2.9792,2.9792,2.9792,2.9792,2.9792,2.1658,0.0,2.3492,2.3492,2.3804,2.408,0.0,2.419,2.4428,2.4245,2.419,2.4575,2.5805,2.4775,2.4746,2.794,2.7927,2.839,3.0913,3.3677,3.6417,3.9005,3.9462,3.9631,3.98,0.0,0.0,0.0,0.0,4.007,4.007,3.9901,3.9279,3.8092,3.769,3.716,3.6337,3.5782,3.5504,3.5504,3.5504,3.5504,3.5504,3.5504,0.0,0.0,0.0,0.0,3.5504,3.5504,3.5504,3.5504,3.5504,3.5504,3.5504,3.5504,3.5504,3.5504,3.5504,3.5504,3.5504,3.5504,3.5504,3.5504,3.5504,3.5504,3.5504,3.5504,3.5504,3.5504,3.5504,3.5504,3.5504,3.5504,3.5504,3.5504,3.5504,3.5504,3.5504,3.5504,3.5504,3.5424,3.5213,3.3891,3.3031,3.331,3.1489,3.0279,3.0833,3.0203,2.9792,2.9792,2.9792,2.9792,2.9792,2.9792,2.9729,2.9591,2.9716,2.9729,2.9591,2.9716,2.9792,2.9792,2.9792,2.9792,2.9792,2.9792,2.9792,2.9792,2.9792,2.9365,1.995,2.1125,2.2446,2.2795,2.3235,2.3657,2.4025,2.4153,2.419,2.419,2.419,2.4465,2.5346,2.5078,2.5416,2.7639,2.8436,2.9968,3.333,3.5825,3.799,3.9851,4.007,4.007,0.0,0.0,0.0,0.0,0.0,4.007,4.007,3.9731,3.9156,3.8302,3.7616,3.6859,3.6117,3.5733,3.5504,3.5504,3.5504,3.5504,3.5504,3.5504,3.5504,0.0,0.0,0.0,3.5504,3.5504,3.5504,3.5504,3.5504,3.5504,3.5504,3.5504,3.5504,3.5504,3.5504,3.5504,3.5504,3.5504,3.5213,3.4839,3.4839,3.4839,3.4905,3.5359,3.5504,3.5504,3.5504,3.5504,3.5504,3.5504,3.5504,3.5504,3.5504,3.5504,3.5359,3.4905,3.4839,3.4691,3.4259,3.3325,3.2593,3.2678,3.1402,3.0482,3.0558,3.0139,2.9792,2.9792,2.9792,2.9792,2.9792,2.9792,2.9792,2.9792,2.9792,2.9792,2.9792,2.9792,2.9792,2.9792,2.9792,2.9792,2.9792,2.9792,2.9792,2.9792,2.9275,2.8688,1.958,2.1308,2.3107,2.3529,2.3823,2.419,2.4869,2.4593,2.419,2.419,2.419,2.43,2.4685,2.555,2.626,2.6455,2.8638,0.0,3.543,3.7178,3.8565,3.9918,4.007,0.0,0.0,0.0,0.0,0.0,0.0,4.007,4.007,3.9437,3.8978,3.8745,3.7483,3.6337,3.5504,3.5504,3.5504,3.5504,3.5504,3.5504,3.5504,3.5504,3.5504,0.0,0.0,0.0,3.5504,3.5504,3.5504,3.5504,3.5504,3.5504,3.5504,3.5504,3.5504,3.5504,3.5504,3.5504,3.5504,3.5294,3.4839,3.4177,3.4027,3.4095,3.4394,3.5279,3.5504,3.5504,3.5504,3.5504,3.5504,3.5504,3.5504,3.5504,3.5504,3.5504,3.5213,3.4394,3.4095,3.3739,3.2961,3.2593,3.2105,3.1315,3.1106,3.0696,2.9934,2.9792,2.9792,2.9792,2.9792,2.9792,2.9792,2.9792,2.9792,2.9792,2.9792,2.9792,2.9792,2.9792,2.9792,2.9792,2.9792,2.9792,2.9792,2.9792,2.9792,2.9792,2.8597,2.8016,2.0866,2.2189,2.2685,2.1383,2.2116,2.3235,2.3345,2.3804,2.419,2.419,2.419,2.4814,2.6869,2.7376,2.8281,3.0703,3.2948,3.5139,0.0,0.0,3.914,3.9969,0.0,0.0,0.0,0.0,0.0,0.0,0.0,4.007,4.007,3.9952,3.9332,3.8035,3.7748,3.6951,3.5504,3.5504,3.5504,3.5504,3.5504,3.5504,3.5504,3.5504,3.5504,0.0,0.0,3.5504,3.5504,3.5504,3.5504,3.5504,3.5504,3.5504,3.5504,3.5504,3.5504,3.5504,3.5504,3.5504,3.5359,3.4543,3.4691,3.5133,3.4245,3.461,3.5279,3.5439,3.5504,3.5504,3.5504,3.5504,3.5504,3.5504,3.5504,3.5504,3.5504,3.5504,3.5424,3.5294,3.461,3.3959,3.3808,3.2464,3.1389,3.1254,3.0558,2.9934,2.9792,2.9792,2.9792,2.9792,2.9792,2.9792,2.9792,2.9792,2.9792,2.9792,2.9792,2.9792,2.9792,2.9792,2.9792,2.9792,2.9792,2.9792,2.9792,2.9792,2.9792,2.9792,2.8597,2.7602,1.9579,2.1099,2.2263,2.1915,2.3419,2.4961,2.4961,2.5236,2.5621,2.6062,2.6153,2.6612,2.8172,2.9326,3.1046,3.3933,0.0,3.6666,3.8275,3.8785,3.9259,0.0,0.0,0.0,0.0,0.0,0.0,0.0,0.0,0.0,4.007,3.9662,3.9156,3.8414,3.8035,3.7235,3.6117,3.6117,3.5894,3.5504,3.5504,3.5504,3.5504,3.5504,3.5504,3.5504,0.0,3.5504,3.5504,3.5504,3.5504,3.5504,3.5504,3.5504,3.5504,3.5504,3.5504,3.5504,3.5504,3.5504,3.5424,3.4986,3.4758,3.461,3.4163,3.4312,3.4691,3.4691,3.5067,3.5504,3.5504,3.5504,3.5504,3.5504,3.5504,3.5504,3.5504,3.5504,3.5359,3.4758,3.4312,3.3808,3.331,3.2105,3.118,3.118,3.0419,2.9792,2.9792,2.9792,2.9792,2.9792,2.9792,2.9792,2.9792,2.9792,2.9792,2.9792,2.9792,2.9792,2.9792,2.9792,2.9792,2.9792,2.9792,2.9792,2.9792,2.9792,2.9792,2.9792,2.8597,2.7522,1.892,2.0591,2.2263,2.3088,2.4667,2.619,2.6759,2.6888,2.7163,2.8154,2.8503,2.8833,2.9457,3.1202,3.3538,3.6596,3.717,3.7721,3.9088,3.9242,3.9462,0.0,0.0,0.0,0.0,0.0,0.0,0.0,0.0,0.0,4.007,3.9489,3.9086,3.8908,3.8358,3.7616,3.6615,3.6615,3.6228,3.5504,3.5504,3.5504,3.5504,3.5504,3.5504,3.5504,3.5504,3.5504,3.5504,3.5504,3.5504,3.5504,3.5504,3.5504,3.5504,3.5504,3.5504,3.5504,3.5504,3.5504,3.5439,3.5213,3.4773,3.4312,3.4095,3.4177,3.4327,3.4327,3.4905,3.5439,3.5213,3.5001,3.4854,3.4854,3.4854,3.4854,3.5067,3.5133,3.4986,3.4476,3.3959,3.3449,3.2749,3.1815,3.118,3.118,3.0558,3.0139,3.0139,2.9934,2.9792,2.9792,2.9792,2.9792,2.9792,2.9792,2.9792,2.9792,2.9792,2.9792,2.9792,2.9792,2.9792,2.9792,2.9792,2.9792,2.9792,2.9792,2.9792,2.9792,2.8359,2.729,2.0867,2.2308,2.3107,2.3914,2.4245,2.4961,2.72,2.7714,2.8154,2.9714,3.0613,3.1146,3.1219,3.2809,3.5247,3.8656,3.8789,3.8803,3.9866,0.0,0.0,0.0,0.0,0.0,0.0,0.0,0.0,0.0,0.0,0.0,4.007,4.007,3.9662,3.8908,3.8854,3.8117,3.66,3.6615,3.6228,3.5504,3.5504,3.5504,3.5504,3.5504,3.5504,3.5504,3.5504,3.5504,3.5504,3.5504,3.5504,3.5504,3.5504,3.5504,3.5504,3.5504,3.5504,3.5504,3.5504,3.5504,3.5359,3.4394,3.4691,3.5213,3.4245,3.4624,3.5359,3.5359,3.5424,3.5279,3.4327,3.3463,3.282,3.282,3.282,3.3031,3.3891,3.4095,3.4394,3.5213,3.3905,3.2664,3.2593,3.1815,3.118,3.118,3.1106,3.1106,3.1106,3.0343,2.9792,2.9792,2.9792,2.9792,2.9792,2.9792,2.9792,2.9792,2.9792,2.9792,2.9792,2.9792,2.9792,2.9792,2.9792,2.9792,2.9792,2.9792,2.9792,2.9714,2.7637,2.6554,1.8566,2.0633,2.2446,2.3254,2.4575,2.619,2.8117,2.8925,3.0026,3.2669,3.344,3.3972,3.5,3.5908,3.7129,3.9084,3.9338,3.9485,4.0018,0.0,0.0,0.0,0.0,0.0,0.0,0.0,0.0,0.0,0.0,0.0,0.0,4.007,3.9952,3.9662,3.9662,3.8924,3.7381,3.7338,3.6707,3.5504,3.5504,3.5504,3.5504,3.5504,3.5504,3.5504,3.5504,3.5504,3.5504,3.5504,3.5504,3.5504,3.5504,3.5504,3.5504,3.5504,3.5504,3.5504,3.5504,3.5504,3.5439,3.5067,3.5213,3.5439,3.5052,3.5213,3.5504,3.5504,3.5052,3.461,3.4839,3.4691,3.4409,3.4409,3.3891,3.3739,3.4691,3.3973,3.338,3.4394,3.3533,3.2593,3.2593,3.1815,3.118,3.118,3.0696,3.0355,3.0355,2.9998,2.9792,2.9792,2.9792,2.9792,2.9792,2.9792,2.9792,2.9792,2.9792,2.9792,2.9792,2.9792,2.9792,2.9792,2.9792,2.9792,2.9792,2.9792,2.9792,2.9792,2.8199,2.7128,1.7806,2.008,2.2373,2.318,2.4997,2.7236,2.9604,3.0577,3.1806,3.4798,3.5422,3.5936,3.7569,3.7653,0.0,0.0,3.9754,4.0026,0.0,0.0,0.0,0.0,0.0,0.0,0.0,0.0,0.0,0.0,0.0,0.0,0.0,4.007,4.007,0.0,4.007,3.9454,3.8133,3.7921,3.7115,3.5831,3.5619,3.5504,3.5504,3.5504,3.5504,3.5504,3.5504,3.5504,3.5504,3.5504,3.5504,3.5504,3.5504,3.5504,3.5504,3.5504,3.5504,3.5504,3.5504,3.5504,3.5504,3.5504,3.5504,3.5504,3.5504,3.5504,3.5504,3.5504,3.4986,3.461,3.5294,3.5067,3.4558,3.4558,3.4041,3.3822,3.4839,3.3973,3.331,3.4327,3.3685,3.2961,3.2664,3.2105,3.1536,3.1254,3.062,3.0203,3.0203,2.9998,2.9792,2.9792,2.9792,2.9792,2.9792,2.9792,2.9792,2.9792,2.9792,2.9792,2.9792,2.9792,2.9792,2.9792,2.9792,2.9792,2.9792,2.9792,2.9792,2.9792,2.8279,2.736,1.9432,2.1306,2.3199,2.4006,2.5438,2.7677,3.1696,3.2614,3.333,3.5807,3.6321,3.6798,3.8414,3.7612,0.0,3.9102,4.0129,0.0,0.0,0.0,0.0,0.0,0.0,0.0,0.0,0.0,0.0,0.0,0.0,0.0,0.0,4.007,4.007,0.0,4.007,3.9714,3.8908,3.8206,3.7397,3.6615,3.5831,3.5504,3.5504,3.5504,3.5504,3.5504,3.5504,3.5504,3.5504,3.5504,3.5504,3.5504,3.5504,3.5504,3.5504,3.5504,3.5504,3.5504,3.5504,3.5504,3.5504,3.5504,3.5504,3.5504,3.5504,3.5504,3.5504,3.5504,3.5504,3.5504,3.5504,3.4056,3.2593,3.2593,3.2593,3.289,3.3808,3.4027,3.4245,3.5279,3.4691,3.3671,3.2749,3.2593,3.2321,3.1315,3.118,3.118,3.118,3.0419,2.9792,2.9792,2.9792,2.9792,2.9792,2.9792,2.9792,2.9792,2.9792,2.9792,2.9792,2.9792,2.9792,2.9792,2.9792,2.9792,2.9792,2.9792,2.9792,2.9714,2.7545,2.7035,1.8982,2.0645,2.2782,2.4763,2.6792,2.903,3.1953,3.3054,3.4321,3.7367,3.7991,3.8138,3.8615,3.8363,0.0,3.9768,0.0,0.0,0.0,0.0,0.0,0.0,0.0,0.0,0.0,0.0,0.0,0.0,0.0,0.0,0.0,4.007,0.0,0.0,4.007,3.9714,3.8908,3.869,3.8189,3.7456,3.6631,3.6006,3.5504,3.5504,3.5504,3.5504,3.5504,3.5504,3.5504,3.5504,3.5504,3.5504,3.5504,3.5504,3.5504,3.5504,3.5504,3.5504,3.5504,3.5504,3.5504,3.5504,3.5504,3.5504,3.5504,3.5504,3.5504,3.5504,3.5504,3.5504,3.5504,3.5067,3.4624,3.4624,3.4109,3.3822,3.4839,3.3973,3.331,3.4259,3.3671,3.2961,3.2664,3.2593,3.2536,3.2249,3.2177,3.196,3.1241,3.097,3.0558,2.9856,2.9792,2.9792,2.9792,2.9792,2.9792,2.9792,2.9792,2.9792,2.9792,2.9792,2.9792,2.9792,2.9792,2.9792,2.9792,2.9792,2.9792,2.9792,2.8279,2.7775,1.9877,2.1652,2.3858,2.6004,2.8025,3.0283,3.3366,3.4688,3.5917,3.823,3.845,3.8322,3.8652,3.8707,0.0,0.0,0.0,0.0,0.0,0.0,0.0,0.0,0.0,0.0,0.0,0.0,0.0,0.0,0.0,0.0,0.0,0.0,0.0,0.0,3.9495,3.9413,3.8952,3.8937,3.869,3.8262,3.744,3.6874,3.6368,3.5797,3.5504,3.5504,3.5504,3.5504,3.5504,3.5504,3.5504,3.5504,3.5504,3.5504,3.5504,3.5504,3.5504,3.5504,3.5504,3.5504,3.5504,3.5504,3.5504,3.5504,3.5504,3.5504,3.5504,3.5504,3.5504,3.5504,3.5504,3.5504,3.5504,3.5504,3.5052,3.4758,3.5359,3.4558,3.3905,3.4476,3.4124,3.3616,3.3241,3.3171,3.3031,3.2664,3.2593,3.2249,3.1315,3.118,3.0833,2.9934,2.9792,2.9792,2.9792,2.9792,2.9792,2.9792,2.9792,2.9792,2.9792,2.9792,2.9792,2.9792,2.9792,2.9792,2.9792,2.9792,2.9792,2.9792,2.8597,2.8347,2.1574,2.36,2.5754,2.7592,2.9352,3.1623,3.533,3.6853,3.7716,3.8524,3.812,3.7826,3.8579,3.8707,3.8771,0.0,0.0,0.0,0.0,0.0,0.0,0.0,0.0,0.0,0.0,0.0,0.0,0.0,0.0,0.0,0.0,0.0,0.0,3.7905,3.8548,3.8903,3.8903,3.8852,3.8834,0.0,3.8132,3.7735,3.7671,3.6259,3.5554,3.5504,3.5504,3.5504,3.5504,3.5504,3.5504,3.5504,3.5504,3.5504,3.5504,3.5504,3.5504,3.5504,3.5504,3.5504,3.5504,3.5504,3.5504,3.5504,3.5504,3.5504,3.5504,3.5504,3.5504,3.5504,3.5504,3.5504,3.5504,3.5504,3.5504,3.5504,3.5504,3.5504,3.5504,3.5504,3.5504,3.5213,3.4312,3.4163,3.3822,3.2961,3.289,3.2536,3.1536,3.1389,3.097,2.9934,2.9792,2.9792,2.9792,2.9792,2.9792,2.9792,2.9792,2.9792,2.9792,2.9792,2.9792,2.9792,2.9792,2.9792,2.9792,2.9792,2.9792,2.9792,2.8767,2.8767,2.2092,2.3465,2.5468,2.9026,3.1974,3.4183,3.5092,3.6431,3.7716,3.8524,3.856,3.8487,3.867,3.8707,3.8915,0.0,0.0,0.0,0.0,0.0,0.0,0.0,0.0,0.0,0.0,0.0,0.0,0.0,0.0,0.0,3.7905,0.0,0.0,3.7905,3.8058,3.8142,3.8142,3.8132,3.8101,0.0,3.789,3.7507,3.693,3.6523,3.6054,3.5504,3.5504,3.5504,3.5504,3.5504,3.5504,3.5504,3.5504,3.5504,3.5504,3.5504,3.5504,3.5504,3.5504,3.5504,3.5504,3.5504,3.5504,3.5504,3.5504,3.5504,3.5504,3.5504,3.5504,3.5504,3.5504,3.5504,3.5504,3.5504,3.5504,3.5504,3.5504,3.5504,3.5504,3.5504,3.5504,3.5424,3.5213,3.5213,3.5133,3.492,3.4854,3.4423,3.3213,3.3059,3.2218,3.0011,2.9792,2.9792,2.9792,2.9792,2.9792,2.9792,2.9792,2.9792,2.9792,2.9792,2.9792,2.9792,2.9792,2.9792,2.9792,2.9792,2.9792,2.9792,2.9534,2.9534,2.1933,2.3733,2.611,3.0118,3.3093,3.499,3.499,3.6009,3.7147,3.7955,3.8432,3.8707,3.8707,3.8707,0.0,0.0,0.0,0.0,0.0,0.0,0.0,0.0,0.0,0.0,0.0,0.0,0.0,0.0,0.0,3.6806,0.0,3.6806,3.6806,3.6806,3.7178,3.7364,3.7364,3.7719,3.7905,3.7905,3.7836,3.7418,3.668,3.6669,3.6211,3.5472,3.552,3.5347,3.4996,3.4666,3.4726,3.5011,3.5011,3.522,3.5459,3.513,3.522,3.5459,3.513,3.5235,3.5504,3.5504,3.5504,3.5504,3.5504,3.5504,3.5504,3.5504,3.5504,3.5504,3.5504,3.5504,3.5504,3.5504,3.5504,3.5504,3.5504,3.5504,3.5504,3.5504,3.5504,3.5504,3.5504,3.5504,3.5504,3.5504,3.5504,3.5294,3.4572,3.4505,3.363,3.1415,3.1132,3.0784,2.9869,2.9792,2.9792,2.9792,2.9792,2.9792,2.9792,2.9792,2.9792,2.9792,2.9792,2.9792,2.9792,2.9792,2.9792,2.9792,2.9792,2.9534,2.1243,2.3955,2.7069,3.0725,3.3173,3.4687,3.4843,3.5487,3.6266,3.6927,3.7826,3.8542,3.867,0.0,0.0,0.0,0.0,0.0,0.0,0.0,0.0,0.0,0.0,0.0,0.0,0.0,0.0,0.0,0.0,3.5694,3.5622,3.5622,3.5622,3.5622,3.6248,3.6586,3.6586,3.7195,3.7516,3.7516,3.7516,3.7246,3.672,3.6722,3.6222,3.5318,3.5363,3.4973,3.4262,3.3724,3.3814,3.4307,3.4307,3.4666,3.51,3.4517,3.4666,3.51,3.4637,3.4846,3.5355,3.5474,3.5504,3.5504,3.5504,3.5504,3.5504,3.5504,3.5504,3.5504,3.5504,3.5504,3.5504,3.5504,3.5504,3.5504,3.5504,3.5504,3.5504,3.5504,3.5504,3.5504,3.5504,3.5504,3.5504,3.5504,3.5504,3.5504,3.5504,3.5504,3.4854,3.3255,3.2536,3.1476,2.9934,2.9792,2.9792,2.9792,2.9792,2.9792,2.9792,2.9792,2.9792,2.9792,2.9792,2.9792,2.9792,2.9792,2.9792,2.9792,2.9624,2.9028,1.9918,2.3507,2.7614,3.034,3.2147,3.3449,3.4165,3.4774,3.5192,0.0,3.6578,3.7863,3.8579,0.0,0.0,0.0,0.0,0.0,0.0,0.0,0.0,0.0,0.0,0.0,0.0,0.0,0.0,0.0,3.6333,3.6097,3.5605,3.5622,3.5622,3.5622,3.5723,3.5774,3.5774,3.5876,3.5926,3.5926,3.5926,3.6219,3.6767,3.6804,3.5999,3.4635,3.4635,3.427,3.3619,3.3529,3.3544,3.3619,3.3619,3.3679,3.3754,3.3664,3.3679,3.3829,3.4307,3.4532,3.4711,3.531,3.5504,3.5504,3.5504,3.5504,3.5504,3.5504,3.5504,3.5504,3.5504,3.5504,3.5504,3.5504,3.5504,3.5504,3.5504,3.5504,3.5504,3.5504,3.5504,3.5504,3.5504,3.5504,3.5504,3.5504,3.5504,3.5504,3.5504,3.5504,3.5424,3.5148,3.2146,3.0075,2.9792,2.9792,2.9792,2.9792,2.9792,2.9792,2.9792,2.9792,2.9792,2.9792,2.9792,2.9792,2.9792,2.9792,2.9792,2.9792,2.8779,2.8267,2.0651,2.4004,2.7207,2.9772,3.1111,3.2131,3.3268,3.3722,3.4083,3.4862,3.5605,3.6486,0.0,0.0,0.0,0.0,0.0,0.0,0.0,0.0,0.0,0.0,0.0,0.0,0.0,0.0,0.0,0.0,3.6981,3.6603,3.6097,3.6054,3.5898,3.5622,3.5622,3.5622,3.5622,3.5622,3.5622,3.5622,3.5622,3.5808,3.6129,3.6129,3.5531,3.4542,3.4613,3.397,3.2916,3.2542,3.2617,3.2946,3.2946,3.317,3.344,3.308,3.3185,3.3484,3.341,3.3619,3.4038,3.4711,3.4936,3.4996,3.5385,3.5504,3.5504,3.5504,3.5504,3.5504,3.5504,3.5504,3.5504,3.5504,3.5504,3.5504,3.5504,3.5504,3.5504,3.5504,3.5504,3.5504,3.5504,3.5504,3.5504,3.5504,3.5504,3.5504,3.5504,3.5504,3.5504,3.5504,3.4002,3.2146,3.0011,2.9792,2.9792,2.9792,2.9792,2.9792,2.9792,2.9792,2.9792,2.9792,2.9792,2.9792,2.9792,2.9792,2.9792,2.9792,2.9275,2.8688,2.0831,2.3551,2.5666,2.8425,2.9915,3.0997,3.2268,3.2839,3.3376,0.0,3.4649,3.5211,0.0,0.0,0.0,0.0,0.0,0.0,0.0,0.0,0.0,0.0,0.0,0.0,0.0,0.0,0.0,0.0,3.7578,3.7135,3.6643,3.6457,3.6224,3.5827,3.565,3.5622,3.5622,3.5622,3.5622,3.5622,3.5622,3.5622,3.5622,3.5622,3.5257,3.4626,3.4626,3.3957,3.2749,3.2049,3.2182,3.2737,3.2375,3.2676,3.3215,3.2496,3.2572,3.2946,3.2617,3.2841,3.3365,3.4008,3.4337,3.4547,3.4891,3.5235,3.5474,3.5295,3.537,3.5504,3.5504,3.5504,3.5504,3.5504,3.5504,3.5504,3.5504,3.5504,3.5504,3.5504,3.5504,3.5504,3.5504,3.5504,3.5504,3.5504,3.5504,3.5504,3.5504,3.5504,3.5504,3.5504,3.5504,3.4356,3.1516,3.0368,2.9792,2.9792,2.9792,2.9792,2.9792,2.9792,2.9792,2.9792,2.9792,2.9792,2.9792,2.9792,2.9792,2.9792,2.9534,2.8937,1.9246,2.1073,2.2544,2.5927,2.8434,3.0281,3.1175,0.0,3.3327,3.3134,3.3724,3.4433,0.0,0.0,0.0,0.0,0.0,0.0,0.0,0.0,0.0,0.0,0.0,0.0,0.0,0.0,0.0,0.0,3.7859,3.7649,3.7173,3.6684,3.6392,3.6333,3.5854,3.5622,3.5622,3.5622,3.5622,3.5622,3.5622,3.5622,3.5622,3.5622,3.5224,3.4593,3.4593,3.4185,3.3491,3.2803,3.2964,3.3387,3.2038,3.197,3.253,3.1799,3.1541,3.1719,3.2302,3.2542,3.2677,3.3335,3.3963,3.4367,3.3784,3.4487,3.537,3.4711,3.4996,3.5504,3.5504,3.5504,3.5504,3.5504,3.5504,3.5504,3.5504,3.5504,3.5504,3.5504,3.5504,3.5504,3.5504,3.5504,3.5504,3.5504,3.5504,3.5504,3.5504,3.5504,3.5504,3.5504,3.5504,3.5439,3.5213,3.1869,2.9792,2.9792,2.9792,2.9792,2.9792,2.9792,2.9792,2.9792,2.9792,2.9792,2.9792,2.9792,2.9792,2.9792,2.8688,2.8176,1.7292,1.9273,2.1273,2.3581,2.5589,2.7312,2.8574,3.0064,3.1293,3.1598,3.2289,0.0,0.0,0.0,0.0,0.0,0.0,0.0,0.0,0.0,0.0,0.0,0.0,0.0,0.0,0.0,0.0,0.0,0.0,0.0,3.6143,3.5918,3.5539,3.4921,3.4737,3.4728,3.4895,3.4895,3.5131,3.5622,3.5622,3.5622,3.5622,3.5622,3.547,3.5253,3.5253,3.4592,3.3582,3.3339,3.3145,3.2895,3.2367,3.2064,3.1853,3.1582,3.1482,3.1511,3.1735,3.1884,3.1988,3.2647,3.3021,3.3245,3.344,3.3844,3.4262,3.4427,3.4651,3.4951,3.5385,3.5504,3.5504,3.5504,3.5504,3.5504,3.5504,3.5504,3.5504,3.5504,3.5504,3.5504,3.5504,3.5504,3.5504,3.5504,3.5504,3.5504,3.5504,3.5504,3.5504,3.5504,3.5504,3.5504,3.5504,3.4221,3.2932,3.1696,3.1206,3.0934,3.0696,3.0139,2.9792,2.9792,2.9792,2.9792,2.9792,2.9792,2.9792,2.9792,2.9365,2.9197,1.6099,1.7927,1.9908,2.187,2.3428,2.4927,2.679,2.8294,2.9537,3.0423,3.1258,0.0,0.0,0.0,0.0,0.0,0.0,0.0,0.0,0.0,0.0,0.0,0.0,0.0,0.0,0.0,0.0,0.0,0.0,0.0,3.5805,3.5465,3.4818,3.3888,3.3865,3.3943,3.4117,3.4134,3.4506,3.525,3.525,3.5368,3.5622,3.5622,3.5622,3.5622,3.5622,3.5098,3.4252,3.4037,3.3786,3.3547,3.3093,3.2772,3.2501,3.2296,3.2048,3.1894,3.216,3.2048,3.197,3.268,3.2856,3.2866,3.3093,3.3307,3.3544,3.3754,3.4128,3.4577,3.504,3.5325,3.5504,3.5504,3.5504,3.5504,3.5504,3.5504,3.5504,3.5504,3.5504,3.5504,3.5504,3.5504,3.5504,3.5504,3.5504,3.5504,3.5504,3.5504,3.5504,3.5504,3.5504,3.5504,3.5504,3.5504,3.4773,3.3045,3.2146,3.1563,3.118,3.0279,2.9792,2.9792,2.9792,2.9792,2.9792,2.9792,2.9792,2.9792,2.9792,2.9624,0.0,0.0,0.0,2.0735,2.2023,2.3331,2.5832,0.0,2.8153,2.9575,3.0556,0.0,0.0,0.0,0.0,0.0,0.0,0.0,0.0,0.0,0.0,0.0,0.0,0.0,0.0,0.0,0.0,0.0,0.0,3.6229,3.6229,3.5277,3.4349,3.3405,3.338,3.3355,3.3372,3.3372,3.3744,3.4455,3.4455,3.4844,3.5554,3.5554,3.5554,3.5554,3.5571,3.5588,3.5543,3.4878,3.4988,3.5424,3.4153,3.4037,3.4479,3.3836,3.3198,3.2749,3.3391,3.3182,3.2749,3.3391,3.3571,3.3392,3.2827,3.302,3.3366,3.2691,3.3425,3.4427,3.4442,3.4936,3.5444,3.5444,3.5459,3.5474,3.5474,3.5489,3.5504,3.5504,3.5504,3.5504,3.5504,3.5504,3.5504,3.5504,3.5504,3.5504,3.5504,3.5504,3.5504,3.5504,3.5504,3.5504,3.5504,3.5504,3.5001,3.3713,3.2434,3.1636,3.1328,3.0343,2.9869,2.9869,2.9792,2.9792,2.9792,2.9792,2.9792,2.9792,2.9792,2.9197,1.4662,0.0,0.0,0.0,0.0,0.0,0.0,0.0,2.4668,2.6277,2.7294,0.0,0.0,0.0,0.0,0.0,0.0,0.0,0.0,0.0,0.0,0.0,0.0,0.0,0.0,0.0,0.0,0.0,3.4486,3.4486,3.4486,3.3954,3.3354,3.2791,3.2429,3.2342,3.2577,3.2594,3.2966,3.3711,3.3711,3.3812,3.4015,3.4015,3.4015,3.4049,3.4573,3.4793,3.4844,3.5189,3.5144,3.4847,3.4479,3.4137,3.3836,3.3684,3.3495,3.3339,3.3547,3.3495,3.3339,3.3531,3.3607,3.3525,3.3387,3.3091,3.2885,3.3161,3.3137,3.3155,3.3649,3.3903,3.4053,3.4053,3.4307,3.4562,3.4562,3.5055,3.5504,3.5504,3.5504,3.5504,3.5504,3.5504,3.5504,3.5504,3.5504,3.5504,3.5504,3.5504,3.5504,3.5504,3.5504,3.5504,3.5504,3.5504,3.5359,3.5001,3.3973,3.3325,3.3241,3.1683,3.0833,3.0833,3.0139,2.9792,2.9792,2.9792,2.9792,2.9792,2.9792,2.9624,1.5761,1.6958,1.8281,1.8121,0.0,0.0,2.1532,2.235,0.0,0.0,2.6255,0.0,0.0,0.0,0.0,0.0,0.0,0.0,0.0,0.0,0.0,0.0,0.0,0.0,0.0,3.3311,3.344,3.377,3.3807,3.3734,3.355,3.3332,3.2983,3.2517,3.2022,3.1903,3.2081,3.1919,3.2205,3.2933,3.2933,3.3102,3.3406,3.3406,3.3406,3.3423,3.3846,3.4032,3.4066,3.4506,3.4807,3.5005,3.5005,3.48,3.4447,3.4447,3.4252,3.4037,3.435,3.4252,3.4087,3.435,3.4252,3.4037,3.4037,3.3339,3.2664,3.3051,3.2825,3.2662,3.332,3.3499,3.3544,3.3739,3.3993,3.4292,3.4666,3.5145,3.5504,3.5504,3.5504,3.5504,3.5504,3.5504,3.5504,3.5504,3.5504,3.5504,3.5504,3.5504,3.5504,3.5504,3.5504,3.5504,3.5504,3.5504,3.5504,3.5504,3.4543,3.4027,3.4027,3.2177,3.118,3.118,3.0279,2.9792,2.9792,2.9792,2.9792,2.9792,2.9792,2.9792,1.8222,1.8813,1.9591,2.0063,0.0,0.0,2.306,2.3013,2.3197,0.0,0.0,0.0,0.0,0.0,0.0,0.0,0.0,0.0,0.0,0.0,0.0,0.0,0.0,0.0,3.2445,3.2467,3.2761,3.3476,3.3623,3.3506,3.3146,3.3237,3.3045,3.2583,3.2127,3.1844,3.1789,3.1411,3.1512,3.2195,3.2195,3.251,3.3169,3.3169,3.3169,3.3169,3.3237,3.3288,3.3288,3.3372,3.4235,3.5504,3.5504,3.5537,3.5622,3.5622,3.5207,3.48,3.5407,3.5207,3.4783,3.5407,3.5207,3.4736,3.4736,3.3836,3.2788,3.2749,3.2645,3.2749,3.3352,3.3487,3.3547,3.3968,3.3965,3.4113,3.4891,3.5295,3.5504,3.5504,3.5504,3.5504,3.5504,3.5504,3.5504,3.5504,3.5504,3.5504,3.5504,3.5504,3.5504,3.5504,3.5504,3.5504,3.5504,3.5504,3.5504,3.5504,3.4691,3.4177,3.4177,3.2393,3.1389,3.1389,3.0355,2.9792,2.9792,2.9792,2.9792,2.9792,2.9792,2.9792,2.0189,2.0586,0.0,0.0,0.0,0.0,2.0135,2.0435,2.1119,0.0,2.2504,2.2985,0.0,0.0,0.0,0.0,0.0,0.0,0.0,0.0,0.0,0.0,0.0,0.0,3.1927,3.1752,3.1696,3.1843,3.2467,3.2782,3.2729,3.3332,3.3494,3.3075,3.2616,3.2161,3.1808,3.1411,3.1258,3.141,3.141,3.1478,3.163,3.163,3.163,3.1664,3.2256,3.2493,3.2544,3.3152,3.3931,3.4709,3.4709,3.5081,3.5622,3.5622,3.5515,3.5407,3.556,3.5515,3.5424,3.5577,3.5515,3.5407,3.5407,3.4847,3.4087,3.3531,3.3382,3.3419,3.3546,3.3325,3.3029,3.3122,3.2581,3.2034,3.2273,3.3993,3.5504,3.5504,3.5504,3.5504,3.5504,3.5504,3.5504,3.5504,3.5504,3.5504,3.5504,3.5504,3.5504,3.5504,3.5504,3.5504,3.5504,3.5504,3.5504,3.5504,3.5294,3.5213,3.5213,3.3325,3.2321,3.2321,3.0633,2.9792,2.9792,2.9792,2.9792,2.9792,2.9792,2.9792,2.2031,0.0,0.0,2.1453,0.0,0.0,0.0,2.1671,2.1999,2.324,2.2799,2.2598,2.3906,0.0,0.0,0.0,0.0,0.0,0.0,0.0,0.0,0.0,0.0,0.0,3.0488,3.0431,3.0646,3.1354,3.177,3.2008,3.2008,3.2761,3.3121,3.2911,3.2877,3.2745,3.25,3.1842,3.1507,3.1507,3.1291,3.119,3.119,3.119,3.119,3.1207,3.1579,3.1732,3.1765,3.2138,3.273,3.3457,3.4201,3.4726,3.5115,3.547,3.5622,3.5622,3.5622,3.5622,3.5622,3.5622,3.5622,3.5622,3.5622,3.5144,3.4479,3.3786,3.3582,3.3582,3.3582,3.3235,3.2772,3.2296,3.1838,3.1898,3.323,3.4562,3.5504,3.5504,3.5504,3.5504,3.5504,3.5504,3.5504,3.5504,3.5504,3.5504,3.5504,3.5504,3.5504,3.5504,3.5504,3.5504,3.5504,3.5504,3.5504,3.5504,3.5504,3.5504,3.5504,3.4109,3.2961,3.2205,3.057,2.9792,2.9792,2.9792,2.9792,2.9792,2.9792,2.9792,0.0,0.0,0.0,0.0,0.0,2.427,0.0,0.0,0.0,2.4749,2.3902,0.0,0.0,0.0,0.0,0.0,0.0,0.0,0.0,0.0,0.0,0.0,0.0,0.0,0.0,2.8762,2.9233,3.0601,3.0735,3.0864,3.1146,3.1935,3.2449,3.2614,3.2845,3.3021,3.3214,3.2366,3.1915,3.1915,3.1507,3.1329,3.1329,3.123,3.119,3.119,3.119,3.119,3.119,3.119,3.1546,3.2205,3.3541,3.415,3.437,3.5131,3.5402,3.5419,3.5571,3.5622,3.5622,3.5622,3.5622,3.5622,3.5622,3.5207,3.4688,3.4137,3.4003,3.4003,3.4003,3.3684,3.3219,3.2461,3.1894,3.2064,3.4277,3.5145,3.5504,3.5504,3.5504,3.5504,3.5504,3.5504,3.5504,3.5504,3.5504,3.5504,3.5504,3.5504,3.5504,3.5504,3.5504,3.5504,3.5504,3.5504,3.5504,3.5504,3.5504,3.5504,3.5504,3.4691,3.3339,3.1368,3.0292,2.9792,2.9792,2.9792,2.9792,2.9792,2.9792,2.9792,0.0,0.0,0.0,0.0,2.3711,0.0,0.0,0.0,2.3047,2.3246,0.0,0.0,0.0,0.0,0.0,0.0,0.0,0.0,0.0,0.0,0.0,0.0,0.0,0.0,0.0,2.6827,2.6804,2.8107,2.8307,2.8956,3.0265,3.1091,3.1861,3.2596,3.2319,3.248,3.3196,3.2681,3.2417,3.2417,3.1968,3.1716,3.1733,3.1351,3.119,3.119,3.119,3.119,3.119,3.119,3.1241,3.1393,3.2205,3.2933,3.3609,3.4353,3.4624,3.4726,3.5385,3.5622,3.5622,3.5622,3.5622,3.5622,3.5622,3.556,3.547,3.5362,3.5362,3.5362,3.5362,3.5316,3.527,3.5161,3.3271,3.1556,3.1855,3.3844,3.5504,3.5504,3.5504,3.5504,3.5504,3.5504,3.5504,3.5504,3.5504,3.5504,3.5504,3.5504,3.5504,3.5504,3.5504,3.5504,3.5504,3.5504,3.5504,3.5504,3.5504,3.5504,3.5504,3.5359,3.3644,3.0075,2.9869,2.9792,2.9792,2.9792,2.9792,2.9792,2.9792,2.9792,0.0,0.0,0.0,0.0,0.0,0.0,2.2988,0.0,2.3205,0.0,0.0,0.0,0.0,0.0,0.0,0.0,2.3242,0.0,0.0,0.0,0.0,0.0,0.0,0.0,0.0,0.0,0.0,0.0,0.0,2.7261,2.8746,2.9567,3.0393,3.1182,3.1488,3.2028,3.283,3.2421,3.2442,3.2921,3.2433,3.2057,3.1771,3.164,3.1411,3.119,3.119,3.119,3.119,3.119,3.119,3.1224,3.1529,3.2104,3.2848,3.3592,3.4134,3.4539,3.4861,3.525,3.5622,3.5622,3.5622,3.5622,3.5622,3.5622,3.5622,3.5622,3.5622,3.5622,3.5622,3.5622,3.5622,3.5622,3.4704,3.3887,3.3887,3.351,3.3649,3.5205,3.5504,3.5504,3.5504,3.5504,3.5504,3.5504,3.5504,3.5504,3.5504,3.5504,3.5504,3.5504,3.5504,3.5504,3.5504,3.5504,3.5504,3.5504,3.5504,3.5504,3.5504,3.5504,3.4721,3.3143,3.0934,2.9792,2.9792,2.9792,2.9792,2.9792,2.9792,2.9792,2.5703,0.0,0.0,0.0,0.0,0.0,0.0,0.0,0.0,0.0,0.0,0.0,0.0,0.0,0.0,0.0,0.0,2.2361,0.0,0.0,0.0,0.0,0.0,0.0,0.0,0.0,0.0,0.0,0.0,0.0,2.7386,2.8227,2.9053,2.9861,3.065,3.1458,3.2265,3.2202,3.2444,3.3024,3.2813,3.25,3.2196,3.1915,3.1623,3.1351,3.1269,3.119,3.119,3.119,3.119,3.119,3.119,3.1512,3.207,3.2831,3.344,3.3947,3.4353,3.4979,3.5622,3.5622,3.5622,3.5622,3.5622,3.5622,3.5622,3.5622,3.5622,3.5622,3.5622,3.5622,3.5622,3.5622,3.5622,3.5622,3.5622,3.4037,3.32,3.5143,3.553,3.5492,3.5499,3.5504,3.5504,3.5504,3.5504,3.5504,3.5504,3.5504,3.5504,3.5504,3.5504,3.5504,3.5504,3.5504,3.5504,3.5504,3.5504,3.5504,3.5504,3.5504,3.5504,3.5504,3.1723,2.9934,3.0292,2.9934,2.9792,2.9792,2.9792,2.9792,0.0,0.0,0.0,2.3652,0.0,0.0,0.0,0.0,2.4375,0.0,0.0,0.0,0.0,0.0,2.4082,2.3222,0.0,0.0,0.0,0.0,0.0,0.0,0.0,0.0,0.0,0.0,0.0,0.0,0.0,0.0,2.6542,2.7402,2.8209,2.8994,2.9824,3.0613,3.1421,3.2184,3.2588,3.2625,3.2998,3.3184,3.3105,3.223,3.1789,3.1752,3.1389,3.119,3.119,3.119,3.119,3.119,3.119,3.1207,3.1309,3.2036,3.2364,3.2544,3.3998,3.4979,3.5622,3.5622,3.5622,3.5622,3.5622,3.5622,3.5622,3.5622,3.5622,3.5622,3.5622,3.5622,3.5622,3.5622,3.5622,3.5622,3.5622,3.5515,3.5487,3.5588,3.5621,3.558,3.5518,3.5504,3.5504,3.5504,3.5504,3.5504,3.5504,3.5504,3.5504,3.5504,3.5504,3.5504,3.5504,3.5504,3.5504,3.5504,3.5504,3.5504,3.5504,3.5504,3.5504,3.5504,3.1723,3.0444,3.1649,3.0368,2.9792,2.9792,2.9792,2.9792,0.0,0.0,2.7734,2.543,0.0,0.0,0.0,0.0,0.0,0.0,0.0,0.0,0.0,0.0,2.4102,2.3242,2.2632,2.1444,0.0,0.0,0.0,0.0,0.0,0.0,0.0,0.0,0.0,0.0,2.2819,0.0,0.0,2.6641,2.7365,2.8172,2.8998,2.9787,3.0595,3.0889,3.1274,3.1806,3.2482,3.2655,3.2426,3.2639,3.2565,3.2248,3.1806,3.1603,3.1565,3.1329,3.119,3.119,3.119,3.119,3.1224,3.1461,3.1867,3.2534,3.3981,3.4979,3.5622,3.5622,3.5622,3.5622,3.5622,3.5622,3.5622,3.5622,3.5622,3.5622,3.5622,3.5622,3.5622,3.5622,3.5622,3.5622,3.5622,3.5622,3.5622,3.5622,3.5622,3.5589,3.5591,3.56,3.5537,3.554,3.5504,3.5504,3.5504,3.5504,3.5504,3.5504,3.5504,3.5504,3.5504,3.5504,3.5504,3.5504,3.5504,3.5504,3.5504,3.3814,3.2871,3.2871,3.1917,3.1216,3.0775,3.0734,3.0419,2.9792,2.9792,2.9792,2.7617,2.8281,0.0,2.666,2.6152,0.0,2.3301,0.0,0.0,0.0,0.0,0.0,0.0,0.0,2.4102,2.3242,2.2159,2.0516,0.0,1.7237,0.0,0.0,0.0,0.0,0.0,0.0,2.037,2.1926,2.1649,0.0,0.0,0.0,2.6622,2.7346,2.8154,2.8962,2.9769,3.0063,3.0467,3.098,3.1788,3.2025,3.1828,3.2466,3.2601,3.2321,3.2125,3.2057,3.2039,3.1582,3.1411,3.1389,3.1269,3.119,3.119,3.119,3.1647,3.2442,3.3677,3.459,3.5267,3.5537,3.5622,3.5622,3.5622,3.5622,3.5622,3.5622,3.5622,3.5622,3.5622,3.5622,3.5622,3.5622,3.5622,3.5622,3.5622,3.5622,3.5622,3.5622,3.5622,3.5622,3.5622,3.5622,3.5607,3.5528,3.554,3.5205,3.4207,3.4098,3.4098,3.4098,3.4098,3.4098,3.4098,3.4098,3.4098,3.4098,3.4098,3.4098,3.4098,3.2452,3.1482,3.1482,3.2105,3.2014,3.1061,3.0735,3.0086,2.9202,2.939,2.9478]},{"header":{"parameterUnit":"m.s-1","parameterCategory":1,"la1":30.6,"la2":29.2853,"lo1":-89.7004,"lo2":-87.6739,"dy":0.0162,"dx":0.0183,"nx":112,"ny":82,"refTime":"2024-09-16T12:00:00:Z","depth":0,"parameterNumber":3,"parameterNumberName":"V-component_of_WINDS"},"data":[0.0,0.0,0.0,0.0,0.0,0.0,0.0,0.0,0.0,0.0,0.0,0.0,0.0,0.0,0.0,0.0,0.0,0.0,0.0,0.0,0.0,0.0,0.0,0.0,0.0,0.0,0.0,0.0,0.0,0.0,0.0,0.0,0.0,0.0,0.0,0.0,0.0,0.0,0.0,0.0,0.0,0.0,0.0,0.0,0.0,0.0,0.0,0.0,0.0,0.0,0.0,0.0,0.0,0.0,0.0,0.0,0.0,0.0,0.0,0.0,0.0,0.0,0.0,0.0,0.0,0.0,0.0,0.0,0.0,0.0,0.0,0.0,0.0,0.0,0.0,0.0,0.0,0.0,0.0,0.0,0.0,0.0,0.0,0.0,0.0,0.0,0.0,0.0,0.0,0.0,1.2077,1.3545,1.4727,1.5264,1.4912,1.4867,1.4119,1.2432,0.0,0.0,0.0,0.0,0.0,0.0,0.0,0.0,0.0,0.0,0.0,0.0,0.0,0.0,0.0,0.0,0.0,0.0,0.0,0.0,0.0,0.0,0.0,0.0,0.0,0.0,0.0,0.0,0.0,0.0,0.0,0.0,0.0,0.0,0.0,0.0,0.0,0.0,0.0,0.0,0.0,0.0,0.0,0.0,0.0,0.0,0.0,0.0,0.0,0.0,0.0,0.0,0.0,0.0,0.0,0.0,0.0,0.0,0.0,0.0,0.0,0.0,0.0,0.0,0.0,0.0,0.0,0.0,0.0,0.0,0.0,0.0,0.0,0.0,0.0,0.0,0.0,0.0,0.0,0.0,0.0,0.0,0.0,0.0,0.0,0.0,0.0,0.0,0.0,0.0,0.0,0.0,0.0,0.0,0.0,0.0,0.0,0.0,0.0,0.0,0.0,0.0,0.0,0.0,1.1924,1.4336,1.5088,1.5381,1.5322,1.5144,1.4389,1.289,0.0,0.0,0.0,0.0,0.0,0.0,0.0,0.0,0.0,0.0,0.0,0.0,0.0,0.0,0.0,0.0,0.0,0.0,0.0,0.0,0.0,0.0,0.0,0.0,0.0,0.0,0.0,0.0,0.0,0.0,0.0,0.0,0.0,0.0,0.0,0.0,0.0,0.0,0.0,0.0,0.0,0.0,0.0,0.0,0.0,0.0,0.0,0.0,0.0,0.0,0.0,0.0,0.0,0.0,0.0,0.0,0.0,0.0,0.0,0.0,0.0,0.0,0.0,0.0,0.0,0.0,0.0,0.0,0.0,0.0,0.0,0.0,0.0,0.0,0.0,0.0,0.0,0.0,0.0,0.0,0.0,0.0,0.0,0.0,0.0,0.0,0.0,0.0,0.0,0.0,0.0,0.0,0.0,0.0,0.0,0.0,0.0,0.0,0.0,0.0,0.0,0.0,0.0,1.167,1.2949,1.4609,1.5156,1.541,1.541,1.4894,1.4081,1.2978,1.1426,0.0,0.0,0.0,0.0,0.0,0.0,0.0,0.0,0.0,0.0,0.0,0.0,0.0,0.0,0.0,0.0,0.0,0.0,0.0,0.0,0.0,0.0,0.0,0.0,0.0,0.0,0.0,0.0,0.0,0.0,0.0,0.0,0.0,0.0,0.0,0.0,0.0,0.0,0.0,0.0,0.0,0.0,0.0,0.0,0.0,0.0,0.0,0.0,0.0,0.0,0.0,0.0,0.0,0.0,0.0,0.0,0.0,0.0,0.0,0.0,0.0,0.0,0.0,0.0,0.0,0.0,0.0,0.0,0.0,0.0,0.0,0.0,0.0,0.0,0.0,0.0,0.0,0.0,0.0,0.0,0.0,0.0,0.0,0.0,0.0,0.0,0.0,0.0,0.0,0.0,0.0,0.0,0.0,0.0,0.0,0.0,0.0,0.0,0.0,0.0,0.0,0.0,1.3066,1.3984,1.4844,1.5215,1.541,1.541,1.474,1.3961,1.2978,1.1377,0.0,0.0,0.0,0.0,0.0,0.0,0.0,0.0,0.0,0.0,0.0,0.0,0.0,0.0,0.0,0.0,0.0,0.0,0.0,0.0,0.0,0.0,0.0,0.0,0.0,0.0,0.0,0.0,0.0,0.0,0.0,0.0,0.0,0.0,0.0,0.0,0.0,0.0,0.0,0.0,0.0,0.0,0.0,0.0,0.0,0.0,0.0,0.0,0.0,0.0,0.0,0.0,0.0,0.0,0.0,0.0,0.0,0.0,0.0,0.0,0.0,0.0,0.0,0.0,0.0,0.0,0.0,0.0,0.0,0.0,0.0,0.0,0.0,0.0,0.0,0.0,0.0,0.0,0.0,0.0,0.0,0.0,0.0,0.0,0.0,0.0,0.0,0.0,0.0,0.0,0.0,0.0,0.0,0.0,0.0,0.0,0.0,0.0,0.0,0.0,0.0,0.0,1.327,1.436,1.5273,1.5391,1.541,1.541,1.5238,1.4499,1.2998,1.1659,0.0,0.0,0.0,0.0,0.0,0.0,0.0,0.0,0.0,0.0,0.0,0.0,0.0,0.0,0.0,0.0,0.0,0.0,0.0,0.0,0.0,0.0,0.0,0.0,0.0,0.0,0.0,0.0,0.0,0.0,0.0,0.0,0.0,0.0,0.0,0.0,0.0,0.0,0.0,0.0,0.0,0.0,0.0,0.0,0.0,0.0,0.0,0.0,0.0,0.0,0.0,0.0,0.0,0.0,0.0,0.0,0.0,0.0,0.0,0.0,0.0,0.0,0.0,0.0,0.0,0.0,0.0,0.0,0.0,0.0,0.0,0.0,0.0,0.0,0.0,0.0,0.0,0.0,0.0,0.0,0.0,0.0,0.0,0.0,0.0,0.0,0.0,0.0,0.0,0.0,0.0,0.0,0.0,0.0,0.0,0.0,0.0,0.0,0.0,0.0,0.0,0.0,1.3066,1.433,0.0,1.6093,1.6255,1.6743,1.6205,1.5317,1.4114,0.0,0.0,0.0,0.0,0.0,0.0,0.0,0.0,0.0,0.0,0.0,0.0,0.0,0.0,0.0,0.0,0.0,0.0,0.0,0.0,0.0,0.0,0.0,0.0,0.0,0.0,0.0,0.0,0.0,0.0,0.0,0.0,0.0,0.0,0.0,0.0,0.0,0.0,0.0,0.0,0.0,0.0,0.0,0.0,0.0,0.0,0.0,0.0,0.0,0.0,0.0,0.0,0.0,0.0,0.0,0.0,0.0,0.0,0.0,0.0,0.0,0.0,0.0,0.0,0.0,0.0,0.0,0.0,0.0,0.0,0.0,0.0,0.0,0.0,0.0,0.0,0.0,0.0,0.0,0.0,0.0,0.0,0.0,0.0,0.0,0.0,0.0,0.0,0.0,0.0,0.0,0.0,0.0,0.0,0.0,0.0,0.0,0.0,0.0,0.0,0.0,0.0,1.2197,1.3184,1.4407,0.0,1.6492,1.6757,1.73,1.6667,1.5604,1.4082,0.0,0.0,0.0,0.0,0.0,0.0,0.0,0.0,0.0,0.0,0.0,0.0,0.0,0.0,0.0,0.0,0.0,0.0,0.0,0.0,0.0,0.0,0.0,0.0,0.0,0.0,0.0,0.0,0.0,0.0,0.0,0.0,0.0,0.0,0.0,0.0,0.0,0.0,0.0,0.0,0.0,0.0,0.0,0.0,0.0,0.0,0.0,0.0,0.0,0.0,0.0,0.0,0.0,0.0,0.0,0.0,0.0,0.0,0.0,0.0,0.0,0.0,0.0,0.0,0.0,0.0,0.0,0.0,0.0,0.0,0.0,0.0,0.0,0.0,0.0,0.0,0.0,0.0,0.0,0.0,0.0,0.0,0.0,0.0,0.0,0.0,0.0,0.0,0.0,0.0,0.0,0.0,0.0,0.0,0.0,0.0,0.0,0.0,0.0,0.0,0.0,0.0,1.2607,1.3613,1.4725,1.6331,1.6482,1.6629,1.678,1.6527,1.5245,0.0,0.0,0.0,0.0,0.0,0.0,0.0,0.0,0.0,0.0,0.0,0.0,0.0,0.0,0.0,0.0,0.0,0.0,0.0,0.0,0.0,0.0,0.0,0.0,0.0,0.0,0.0,0.0,0.0,0.0,0.0,0.0,0.0,0.0,0.0,0.0,0.0,0.0,0.0,0.0,0.0,0.0,0.0,0.0,0.0,0.0,0.0,0.0,0.0,0.0,0.0,0.0,0.0,0.0,0.0,0.0,0.0,0.0,0.0,0.0,0.0,0.0,0.0,0.0,0.0,0.0,0.0,0.0,0.0,0.0,0.0,0.0,0.0,0.0,0.0,0.0,0.0,0.0,0.0,0.0,0.0,0.0,0.0,0.0,0.0,0.0,0.0,0.0,0.0,0.0,0.0,0.0,0.0,0.0,0.0,0.0,0.0,0.0,0.0,0.0,0.0,0.0,0.0,1.2693,1.4023,1.5425,1.7092,1.7257,1.7551,1.8268,1.7909,1.6659,1.4333,0.0,0.0,0.0,0.0,0.0,0.0,0.0,0.0,0.0,0.0,0.0,0.0,0.0,0.0,0.0,0.0,0.0,0.0,0.0,0.0,0.0,0.0,0.0,0.0,0.0,0.0,0.0,0.0,0.0,0.0,0.0,0.0,0.0,0.0,0.0,0.0,0.0,0.0,0.0,0.0,0.0,0.0,0.0,0.0,0.0,0.0,0.0,0.0,0.0,0.0,0.0,0.0,0.0,0.0,0.0,0.0,0.0,0.0,0.0,0.0,0.0,0.0,0.0,0.0,0.0,0.0,0.0,0.0,0.0,0.0,0.0,0.0,0.0,0.0,0.0,0.0,0.0,0.0,0.0,0.0,0.0,0.0,0.0,0.0,0.0,0.0,0.0,0.0,0.0,0.0,0.0,0.0,0.0,0.0,0.0,0.0,0.0,0.0,0.0,0.0,0.0,0.0,1.3097,1.4608,1.6194,1.7847,1.8058,1.8219,1.8659,1.8392,1.7105,1.4484,0.0,0.0,0.0,0.0,0.0,0.0,0.0,0.0,0.0,0.0,0.0,0.0,0.0,0.0,0.0,0.0,0.0,0.0,0.0,0.0,0.0,0.0,0.0,0.0,0.0,0.0,0.0,0.0,0.0,0.0,0.0,0.0,0.0,0.0,0.0,0.0,0.0,0.0,0.0,0.0,0.0,0.0,0.0,0.0,0.0,0.0,0.0,0.0,0.0,0.0,0.0,0.0,0.0,0.0,0.0,0.0,0.0,0.0,0.0,0.0,0.0,0.0,0.0,0.0,0.0,0.0,0.0,0.0,0.0,0.0,0.0,0.0,0.0,0.0,0.0,0.0,0.0,0.0,0.0,0.0,0.0,0.0,0.0,0.0,0.0,0.0,0.0,0.0,0.0,0.0,0.0,0.0,0.0,0.0,0.0,0.0,0.0,0.0,0.0,0.0,0.0,0.0,1.3715,1.5328,1.6905,1.8555,1.8715,1.8582,1.8319,1.8242,1.6916,1.3885,0.0,0.0,0.0,0.0,0.0,0.0,0.0,0.0,0.0,0.0,0.0,0.0,0.0,0.0,0.0,0.0,0.0,0.0,0.0,0.0,0.0,0.0,0.0,0.0,0.0,0.0,0.0,0.0,0.0,0.0,0.0,0.0,0.0,0.0,0.0,0.0,0.0,0.0,0.0,0.0,0.0,0.0,0.0,0.0,0.0,0.0,0.0,0.0,0.0,0.0,0.0,0.0,0.0,0.0,0.0,0.0,0.0,0.0,0.0,0.0,1.0508,0.0,0.0,0.0,0.0,0.0,0.0,0.0,0.0,0.0,0.0,0.0,0.0,0.0,0.0,0.0,0.0,0.0,0.0,0.0,0.0,0.0,0.0,0.0,0.0,0.0,0.0,0.0,0.0,0.0,0.0,0.0,0.0,0.0,0.0,0.0,0.0,0.0,0.0,0.0,0.0,0.0,1.3761,1.5694,1.7361,1.8555,1.8715,1.8738,1.8808,1.8455,1.733,1.5374,1.3862,0.0,0.0,0.0,0.0,0.0,0.0,0.0,0.0,0.0,0.0,0.0,0.0,0.0,0.0,0.0,0.0,0.0,0.0,0.0,0.0,0.0,0.0,0.0,0.0,0.0,0.0,0.0,0.0,0.0,0.0,0.0,0.0,0.0,0.0,0.0,0.0,0.0,0.0,0.0,0.0,0.0,0.0,0.0,0.0,0.0,0.0,0.0,0.0,0.0,0.0,0.0,0.0,0.0,0.0,0.0,0.0,0.0,0.0,0.0,0.0,1.1455,0.0,0.0,0.0,0.0,0.0,0.0,0.0,0.0,0.0,0.0,0.0,0.0,0.0,0.0,0.0,0.0,0.0,0.0,0.0,0.0,0.0,0.0,0.0,0.0,0.0,0.0,0.0,0.0,0.0,0.0,0.0,0.0,0.0,0.0,0.0,0.0,0.0,0.0,0.0,0.0,1.4547,1.6479,1.8032,1.9092,1.9202,1.9162,1.9021,1.8769,1.7877,1.6195,1.504,0.0,0.0,0.0,0.0,0.0,0.0,0.0,0.0,0.0,0.0,0.0,0.0,0.0,0.0,0.0,0.0,0.0,0.0,0.0,0.0,0.0,0.0,0.0,0.0,0.0,0.0,0.0,0.0,0.0,0.0,0.0,0.0,0.0,0.0,0.0,0.0,0.0,0.0,0.0,0.0,0.0,0.0,0.0,0.0,0.0,0.0,0.0,0.0,0.0,0.0,0.0,0.0,0.0,1.4797,1.5196,1.585,1.5508,1.5537,1.5762,1.4004,1.3518,1.3989,0.0,0.0,0.0,0.0,0.0,0.0,0.0,0.0,0.0,0.0,0.0,0.0,0.0,0.0,0.0,0.0,0.0,0.0,0.0,0.0,0.0,0.0,0.0,0.0,0.0,1.6573,1.6457,0.0,0.0,0.0,0.0,0.0,0.0,0.0,0.0,0.0,0.0,0.0,0.0,1.5556,1.7326,1.8719,1.9698,1.9798,1.9623,1.9196,1.9033,1.8382,1.7005,1.6258,1.5229,0.0,0.0,0.0,0.0,0.0,0.0,0.0,0.0,0.0,0.0,0.0,0.0,0.0,0.0,0.0,0.0,0.0,0.0,0.0,0.0,0.0,0.0,0.0,0.0,0.0,0.0,0.0,0.0,0.0,0.0,0.0,0.0,0.7989,0.909,0.0,0.0,0.0,0.0,0.0,0.0,0.0,0.0,0.0,0.0,0.0,0.0,0.0,1.4231,1.4867,1.648,1.7142,1.6963,1.7695,1.791,1.7666,1.7607,1.7617,1.7656,1.7373,0.0,1.6282,1.5985,0.0,0.0,0.0,0.0,0.0,0.0,0.0,0.0,0.0,0.0,0.0,0.0,0.0,0.0,0.0,0.0,0.0,0.0,0.0,0.0,0.0,0.0,1.8267,1.9031,1.9257,1.9146,0.0,1.568,1.3426,1.3151,0.0,0.0,0.0,0.0,0.0,0.0,0.0,0.0,1.6264,1.7907,1.9145,1.9748,1.9798,1.9773,1.971,1.9284,1.8883,1.8657,1.7262,1.6308,1.6053,1.4137,0.0,0.0,0.0,0.0,0.0,0.0,0.0,0.0,0.0,0.0,0.0,0.0,0.0,0.0,0.0,0.0,0.0,0.0,0.0,0.0,0.0,0.0,0.0,0.0,0.0,0.0,0.0,0.0,0.0,0.7678,0.8752,0.9275,0.9099,0.8645,0.0,0.0,0.0,0.0,0.0,0.0,0.0,0.0,0.0,1.4505,1.5216,1.6064,1.7217,1.7978,1.8389,1.8457,1.8828,1.8906,1.873,1.873,1.873,1.8801,1.9799,2.006,1.9547,1.7988,1.7038,1.6517,0.0,0.0,0.0,0.0,1.5471,1.5773,1.6496,1.6631,0.0,0.0,0.0,0.0,0.0,0.0,0.0,0.0,0.0,0.0,0.0,0.0,0.0,2.0503,2.0752,2.069,2.0464,1.8933,1.7108,0.0,1.4495,1.3517,1.249,0.0,0.0,0.0,0.0,1.5409,1.7207,1.8351,1.9233,1.9748,1.9798,1.9798,1.9798,1.9597,1.9334,1.8995,1.8282,1.779,1.7476,1.5932,1.4788,0.0,0.0,0.0,0.0,0.0,0.0,0.0,0.0,0.0,0.0,0.0,0.0,0.0,0.0,0.0,0.0,0.0,0.0,0.0,0.0,0.0,0.0,0.0,0.0,0.0,0.0,0.0,0.0,0.8668,0.9698,0.9631,1.0399,1.0431,0.0,0.0,0.0,0.0,0.0,0.0,1.3802,1.4233,1.5204,1.6861,1.7095,1.7796,1.8955,1.9072,1.9297,1.9609,1.9609,1.9609,1.9609,1.9609,1.9609,1.9683,2.1092,2.1859,2.2034,2.0262,1.9346,1.9006,1.8616,1.824,1.8028,1.8317,1.8608,1.8937,1.9562,1.9562,1.9259,1.8823,0.0,1.7299,1.589,0.0,0.0,0.0,0.0,1.8384,1.9932,2.0378,2.0636,2.1656,2.1907,2.187,2.1732,2.1256,2.018,0.0,1.7159,1.6314,1.4993,0.0,0.0,0.0,0.0,1.6793,1.8566,1.9292,1.9748,1.9999,2.0024,1.9962,1.9811,1.9798,1.9635,1.9246,1.9058,1.8795,1.843,1.7476,1.6622,1.5919,0.0,0.0,0.0,0.0,0.0,0.0,0.0,0.0,0.0,0.0,0.0,0.0,0.0,0.0,0.0,0.0,0.0,0.0,0.0,0.0,0.0,0.0,0.0,0.0,0.0,0.0,0.0,0.0,0.0,1.0779,1.2447,0.0,0.0,0.0,0.0,1.3348,1.3476,1.4233,1.6046,1.66,1.731,1.8484,1.9282,1.973,1.9853,2.0264,2.0478,2.0498,2.0498,2.0498,2.0498,2.0498,2.0498,2.0498,2.0653,2.1435,2.2745,2.3397,2.3047,2.1946,2.1415,2.0546,1.9715,2.0783,2.1222,2.139,2.2501,2.2205,2.1494,2.248,2.1719,2.0115,1.8737,1.8068,0.0,0.0,1.8948,1.9968,2.1704,2.2163,2.2301,2.2865,2.299,2.2912,2.2385,2.1697,2.1039,0.0,1.9997,1.9218,1.8061,0.0,1.784,1.79,1.8382,1.9146,2.0382,2.1041,2.1179,2.0731,2.0668,2.0401,1.9849,1.9798,1.9798,1.9761,1.9296,1.902,1.8933,1.843,1.7601,1.6497,1.5341,0.0,0.0,0.0,0.0,0.0,0.0,0.0,0.0,0.0,0.0,0.0,0.0,0.0,0.0,0.0,0.0,0.0,0.0,0.0,0.0,0.0,0.0,0.0,0.0,0.0,0.0,0.0,0.0,1.2872,1.4363,0.0,1.3735,1.4568,1.5187,1.5331,1.6233,1.7252,1.8184,1.8893,1.9618,2.0216,2.0879,2.1182,2.1182,2.1338,2.1416,2.1416,2.1416,2.1416,2.1497,2.2169,2.2467,2.2525,2.3514,2.4243,2.4765,2.5376,2.4903,2.3864,2.3666,2.3343,2.3008,2.3455,2.3591,2.3616,2.4079,2.3954,2.364,2.3678,2.2982,2.2026,2.1033,2.126,2.18,2.1412,2.2164,2.3108,2.3754,2.3665,2.3452,2.364,2.3401,2.3075,2.2887,2.2586,2.2414,2.2276,2.1099,2.0092,1.9834,1.98,1.98,1.98,1.9961,2.0337,2.1129,2.1368,2.1418,2.1217,2.1192,2.0966,2.0401,2.0351,2.02,1.9823,1.9623,1.9384,1.8995,1.8493,1.7852,1.7087,1.5969,1.4325,0.0,0.0,0.0,0.0,0.0,0.0,0.0,0.0,0.0,0.0,0.0,0.0,0.0,0.0,0.0,0.0,0.0,0.0,0.0,0.0,0.0,0.0,0.0,0.0,0.0,0.0,1.4541,1.4297,1.6069,1.6912,1.5757,1.6812,1.7675,1.7958,1.8889,1.9707,2.0137,2.0703,2.1143,2.1445,2.1738,2.1885,2.1885,2.1885,2.1885,2.1885,2.1885,2.1885,2.1885,2.2656,2.3192,2.3551,2.4547,2.5396,2.6127,2.6394,2.6176,2.5636,2.5448,2.5372,2.5372,2.5372,2.5372,2.5347,2.5146,2.5084,2.4996,2.4456,2.4017,2.3517,2.2718,2.3313,2.4129,2.3313,2.3916,2.482,2.482,2.4556,2.428,2.428,2.3979,2.3703,2.3703,2.3703,2.3703,2.3703,2.2369,2.1329,2.1262,2.1217,2.1217,2.1217,2.1217,2.1418,2.197,2.2046,2.197,2.1782,2.1769,2.1468,2.0781,2.0489,2.0213,1.9823,1.9459,1.9196,1.8983,1.8493,1.794,1.7388,1.6082,1.4714,1.3211,0.0,0.0,0.0,0.0,0.0,0.0,0.0,0.0,0.0,0.0,0.0,0.0,0.0,0.0,0.0,0.0,0.0,0.0,0.0,0.0,0.0,0.0,0.0,1.2735,1.4587,1.5716,1.4972,1.7525,1.8962,1.7821,1.9113,2.0332,2.1191,2.125,2.1445,2.1865,2.1894,2.1904,2.1904,2.1924,2.1924,2.1924,2.1924,2.1924,2.1924,2.1924,2.1924,2.2007,2.2007,2.2625,2.3615,2.3684,2.4837,2.6701,2.6677,2.6932,2.7268,2.6703,2.6546,2.6533,2.6533,2.6533,2.6445,2.5824,2.5624,2.5536,2.5034,2.487,2.4676,2.3827,2.4181,2.4663,2.3827,2.4181,2.487,2.487,2.4858,2.4845,2.4845,2.4833,2.482,2.482,2.482,2.482,2.482,2.3941,2.2952,2.246,2.2347,2.2334,2.2334,2.2334,0.0,2.3002,2.3078,2.2924,2.2397,2.2334,2.1895,2.0857,2.0188,1.9836,1.9798,1.8807,1.8455,1.8933,1.8493,1.7953,1.7433,1.5784,1.4902,1.4857,0.0,0.0,0.0,0.0,0.0,0.0,0.0,0.0,0.0,0.0,0.0,0.0,0.0,0.0,0.0,0.0,0.0,0.0,0.0,0.0,0.0,1.3901,1.5477,1.5287,1.6788,1.8158,1.886,1.9976,2.0693,2.0729,2.1121,2.1445,2.1689,2.1709,2.1758,2.1875,2.2178,2.2344,2.2344,2.2637,2.2793,2.2793,2.2793,2.2793,2.2793,2.2793,2.3202,2.4011,2.4847,2.5813,2.6828,2.7263,2.7733,2.8263,2.7866,2.7952,2.8222,2.7381,2.6816,2.6533,2.6533,2.6533,2.6508,2.6276,2.6226,2.6201,2.605,2.6013,2.6013,2.5716,2.5865,2.6,2.5716,2.5865,2.6013,2.6013,2.5699,2.5385,2.5385,2.5096,2.482,2.482,2.482,2.482,2.482,2.4569,2.418,2.364,2.3188,2.2852,2.2852,2.2852,0.0,2.3053,2.3078,2.3015,2.2924,2.2852,2.2623,2.192,2.1343,2.0677,1.9849,1.9171,1.8694,1.8442,1.8292,1.8113,1.7974,1.6701,1.6078,0.0,0.0,0.0,0.0,0.0,0.0,0.0,0.0,0.0,0.0,0.0,0.0,0.0,0.0,0.0,0.0,0.0,0.0,0.0,0.0,0.0,0.0,1.6307,1.7953,1.8313,1.901,1.9863,2.0986,2.1348,2.168,2.2109,2.2148,2.2217,2.2402,2.2412,2.2412,2.2412,2.2646,2.2773,2.2773,2.3018,2.3135,2.3135,2.3135,2.3135,2.3135,2.3135,2.3714,2.4787,2.5462,2.6614,0.0,2.8426,2.887,2.9264,2.895,2.88,0.0,0.0,0.0,0.0,0.0,2.6804,2.6766,2.6609,2.6533,2.6533,2.6533,2.6533,2.6533,2.6533,2.6533,2.6533,2.6533,2.6533,2.6533,2.6533,2.6214,2.5963,2.5963,2.5724,2.5511,2.5511,2.5511,2.5511,2.5511,0.0,0.0,2.472,2.4205,2.3779,2.3779,2.364,2.3502,2.3502,2.3288,2.3078,2.3078,2.3078,2.2852,2.2359,2.1594,0.0,0.0,0.0,1.8543,1.8216,1.8204,0.0,0.0,0.0,0.0,0.0,0.0,0.0,0.0,1.7762,1.7669,0.0,0.0,0.0,0.0,0.0,0.0,0.0,0.0,0.0,0.0,0.0,0.0,0.0,0.0,0.0,0.0,1.8781,2.0371,2.125,2.1035,2.1074,2.1865,2.1953,2.2119,2.2539,2.2578,2.2744,2.3105,2.3135,2.3135,2.3135,0.0,0.0,0.0,0.0,2.3135,2.3135,2.3135,2.3135,2.3135,2.3222,2.3887,2.5041,2.5115,2.6273,2.8267,2.8267,2.8858,2.9792,2.9792,2.949,2.8963,2.8348,2.8323,2.8524,2.7695,2.7369,0.0,2.6753,0.0,0.0,2.6622,2.6584,2.6533,2.6596,2.6622,2.6609,2.6546,2.6571,2.6609,2.6546,2.6533,2.6533,2.6533,2.6533,2.6533,2.6533,2.6533,2.6533,2.6533,2.605,2.5686,2.5686,2.5209,2.482,2.482,2.4406,2.4067,2.4004,2.3552,2.3213,2.3078,0.0,0.0,2.2447,2.1443,2.0869,2.0819,1.9321,1.848,1.848,1.8627,1.8674,1.8707,1.9298,2.018,2.1335,2.2536,2.3349,2.3759,2.0709,1.9774,0.0,0.0,0.0,0.0,0.0,0.0,0.0,0.0,0.0,0.0,0.0,0.0,0.0,0.0,0.0,1.7888,1.9659,2.1279,2.2148,2.2187,2.2197,2.2373,2.2393,2.2559,2.2978,2.3018,2.3057,2.3135,2.3135,2.3135,2.3135,2.3135,2.3135,2.3135,2.3135,2.3135,2.3135,2.3135,2.3135,2.3135,0.0,0.0,2.6224,2.7105,2.8187,2.9456,2.9456,2.9624,2.9792,2.9792,2.9729,2.9528,2.8499,2.816,2.8197,2.8009,2.7946,2.7871,2.7318,2.713,2.713,2.713,2.6816,2.6609,2.6979,2.713,0.0,2.6647,2.6779,2.7017,2.6647,2.6533,2.6533,2.6533,2.6533,2.6533,2.6533,2.6533,2.6533,2.6533,2.6445,2.6302,2.6302,2.5473,2.482,2.482,2.4732,2.4506,2.4054,2.3904,2.3653,2.3128,2.3078,2.3027,2.2927,2.2372,2.1807,2.1355,2.0614,2.024,2.024,2.1212,2.173,2.1749,2.246,2.3141,2.3865,2.4133,2.4611,2.5196,2.4,2.357,0.0,0.0,0.0,0.0,0.0,0.0,0.0,0.0,0.0,0.0,0.0,1.4711,1.5489,0.0,1.8815,1.9925,2.1067,2.21,2.2734,2.2822,2.2822,2.2822,2.2822,2.291,2.3115,2.3135,2.3135,2.3135,2.3135,2.3135,2.3135,2.3135,2.3135,2.3135,2.3135,2.3135,2.3135,2.3135,2.3387,2.3963,2.4542,2.5703,2.729,2.7844,2.8688,2.9792,2.9792,2.9792,2.9792,2.9792,2.9792,2.9729,2.9164,2.895,2.8913,2.8624,2.8511,2.8436,2.7883,2.7695,2.7695,2.7695,2.7507,2.7331,2.7607,2.7695,2.7582,2.703,2.7067,2.7155,2.6672,2.6533,2.6533,2.6533,2.6533,2.6533,2.6533,2.6533,2.6533,2.6533,2.6533,2.6533,2.6533,2.6,2.5636,2.5636,2.5398,2.5109,2.4833,2.4569,2.4192,2.3627,2.3565,2.3452,2.3103,2.2636,2.2071,2.1518,2.123,2.1079,2.1079,2.1703,2.2232,2.2596,2.327,2.4132,2.5096,2.5458,2.6123,2.7096,2.6767,2.6437,0.0,0.0,0.0,0.0,0.0,0.0,0.0,1.2018,1.2972,1.4533,1.5881,1.718,1.8109,1.9266,2.0429,2.1802,2.2353,2.2754,2.3096,2.3135,2.3135,2.3135,2.3135,2.3135,2.3135,2.3135,2.3135,2.3135,2.3135,2.3135,2.3135,2.3135,2.3135,2.3135,2.3135,2.3135,2.3135,2.3299,2.3877,2.4787,2.5199,2.6356,2.8096,2.8347,2.8937,2.9792,2.9792,2.9792,2.9792,2.9792,2.9792,2.9792,2.9792,2.9792,2.9729,2.9264,2.9089,2.9013,2.8461,2.826,2.826,2.826,2.8197,2.8122,2.8235,2.826,2.8147,2.7595,2.7519,2.7469,2.6917,2.6779,2.6779,2.6779,2.6703,2.6684,2.6684,2.6596,2.6533,2.6533,2.6533,2.6533,2.6533,2.6533,2.6533,2.6533,2.6063,2.5724,2.5611,2.5234,2.4757,2.4217,2.4155,2.3929,2.3351,2.2786,2.2284,2.1832,2.1807,2.1864,2.2033,2.2189,2.2659,2.3555,2.4094,2.5023,2.6403,2.6772,2.7604,2.8786,2.8786,2.8487,1.1435,1.1582,1.2262,1.3786,1.3746,1.409,0.0,1.7245,1.73,1.8854,1.9947,2.0642,2.0769,2.1516,2.224,2.2432,2.2793,2.3086,2.3135,2.3135,2.3135,2.3135,2.3135,2.3135,2.3135,2.3135,2.3135,2.3135,2.3135,2.3135,2.3135,2.3135,2.3135,2.3135,2.3135,2.3135,2.3135,2.4125,2.4702,2.4787,2.6767,2.7844,2.8096,2.9118,2.9702,2.9792,2.9792,2.9792,2.9792,2.9792,2.9792,2.9792,2.9792,2.9792,2.9779,2.9716,2.9691,2.9616,2.9038,2.8837,2.8837,2.8837,2.8511,2.8197,2.8687,2.8837,2.8725,2.8172,2.836,2.8612,2.8059,2.7921,2.7921,2.7921,2.7544,2.7193,2.7193,2.6804,2.6533,2.6533,2.6533,2.6533,2.6533,2.6533,2.6533,2.6533,2.6471,2.6176,2.5661,2.5548,2.531,2.4782,2.4732,2.4506,2.3954,2.3376,2.2952,2.289,2.289,2.3234,2.3992,2.4649,2.5605,2.6952,2.7107,2.7809,2.9128,2.8599,2.8757,2.9475,2.9475,2.943,1.3298,1.3867,1.4506,1.4855,1.564,1.6591,1.7727,1.8322,1.9002,2.0391,2.1367,2.1982,2.1982,2.2471,2.2881,0.0,2.3027,2.3135,2.3135,2.3135,2.3047,2.2803,2.2988,2.3135,2.3135,2.3135,2.3135,2.3135,2.3135,2.3135,2.3135,2.3135,2.3135,2.3135,2.3135,2.3387,2.4049,2.4542,2.5452,2.6767,2.7683,2.8438,2.9106,2.9611,2.9792,2.9792,2.9792,2.9792,2.9792,2.9792,2.9792,2.9792,2.9792,2.9792,2.9792,2.9792,2.9792,2.9754,2.9515,2.9428,2.9428,2.9428,2.9277,2.9126,2.9365,2.9428,2.9315,2.875,2.875,2.88,2.8247,2.8109,2.8109,2.8109,2.7682,2.7281,2.7281,2.6854,2.6533,2.6533,2.6533,2.6533,2.6533,2.6533,2.6533,2.6533,2.6533,2.6445,2.6138,2.6101,2.5887,2.5335,2.5008,2.4732,2.4494,2.4255,2.4117,2.4117,2.4117,2.4466,2.5295,2.5641,2.65,2.802,2.8035,2.8577,2.9579,2.931,2.9505,3.0118,3.0118,3.0328,1.458,1.541,1.6111,1.6062,1.7348,1.8611,1.861,1.9474,2.0529,2.1351,2.2178,2.2685,2.2685,2.293,2.3135,2.3135,2.3135,2.3135,2.3135,2.3037,2.2852,2.2549,2.2783,2.2969,2.2969,2.3066,2.3135,2.3135,2.3135,2.3135,2.3135,2.3135,2.3135,2.3135,2.3377,2.3963,2.4787,2.5452,2.6521,2.8096,2.8426,2.9028,2.9792,2.9792,2.9792,2.9792,2.9792,2.9792,2.9792,2.9792,2.9792,2.9792,2.9792,2.9792,2.9792,2.9792,2.9792,2.9792,2.9792,2.9792,2.9792,2.9792,2.9792,2.9792,2.9792,2.9792,2.9704,2.9289,2.9164,2.9076,2.8674,2.8574,2.8574,2.8574,2.8147,2.7733,2.7733,2.718,2.6691,2.6691,2.6634,2.6533,2.6533,2.6533,2.6533,2.6533,2.6533,2.6533,2.6533,2.6533,2.6302,2.5875,2.536,2.5034,2.5034,2.4908,2.482,2.482,2.482,2.5294,2.6363,2.6425,2.7203,2.8953,2.8793,2.9189,3.0118,2.9924,3.0163,3.0791,3.0791,3.1061,1.4658,1.541,1.6465,1.8076,1.9156,2.0041,2.0878,2.1744,2.2461,2.2471,2.2822,2.3125,2.3125,2.3125,2.3135,2.3135,2.3135,2.3135,2.3135,2.2783,2.2529,2.251,2.2519,2.2529,2.2529,2.29,2.3135,2.3135,2.3135,2.3135,2.3135,2.3135,2.3135,2.3135,2.4211,2.4787,2.4787,2.693,2.8004,2.8084,2.9197,2.9792,2.9792,2.9792,2.9792,2.9792,2.9792,2.9792,2.9792,2.9792,2.9792,2.9792,2.9792,2.9792,2.9792,2.9792,2.9792,2.9792,2.9792,2.9792,2.9792,2.9792,2.9792,2.9792,2.9792,2.9792,2.9792,2.9779,2.9767,2.9767,2.9741,2.9741,2.9741,2.9741,2.9302,2.8875,2.8875,2.8021,2.7256,2.7256,2.6829,2.6533,2.6533,2.6533,2.6533,2.6533,2.6533,2.6533,2.6533,2.6533,2.6521,2.6496,2.5912,2.5573,2.5573,2.5109,2.482,2.482,2.482,2.5534,2.7088,2.7134,2.8179,3.0391,2.9879,3.0208,3.1422,3.0806,3.0836,3.1437,3.1437,3.1452,1.5801,1.7119,1.8408,1.9268,2.0566,2.1719,2.2012,2.2519,2.293,2.293,2.2822,2.2725,2.2725,2.249,2.2402,2.2676,2.2725,2.2822,2.3096,2.3018,2.2822,2.2549,2.2754,2.2822,2.2539,2.2891,0.0,2.3135,2.3135,2.3135,2.3135,2.3135,2.3474,2.4211,2.4628,2.5535,2.7012,2.7763,2.8505,2.9197,2.9624,2.9792,2.9792,2.9792,2.9792,2.9792,2.9792,2.9792,2.9792,2.9792,2.9792,2.9792,2.9792,2.9792,2.9792,2.9792,2.9792,2.9792,2.9792,2.9792,2.9792,2.9792,2.9792,2.9792,2.9792,2.9792,2.9792,2.9792,2.9792,2.9792,2.9792,2.9792,2.9792,2.9792,2.9352,2.8925,2.8925,2.8348,2.772,2.7356,2.713,2.6892,2.6596,2.6533,2.6533,2.6533,2.6533,2.6533,2.6533,2.6533,2.6533,2.6533,2.6289,2.6163,2.6163,2.6013,2.6155,2.6726,2.6713,2.7464,2.9203,2.9263,2.9854,3.1123,3.0986,3.1091,3.1482,3.1243,3.13,3.1482,3.1482,3.1764,1.7021,1.833,1.9541,2.0576,2.1689,2.2549,2.2705,2.2832,2.2871,2.2725,2.2227,2.1816,2.1816,2.1465,2.1426,2.2168,2.2295,2.249,2.3057,2.3008,2.2812,2.2549,2.2754,2.2812,2.2539,2.2891,0.0,2.3135,2.3135,2.3135,2.3135,2.3135,2.3637,2.4787,2.521,2.6284,2.8084,2.8518,2.9106,2.9792,2.9792,2.9792,2.9792,2.9792,2.9792,2.9792,2.9792,2.9792,2.9792,2.9792,2.9792,2.9792,2.9792,2.9792,2.9792,2.9792,2.9792,2.9792,2.9792,2.9792,2.9792,2.9792,2.9792,2.9792,2.9792,2.9792,2.9792,2.9792,2.9792,2.9792,2.9792,2.9792,2.9792,2.9792,2.9503,2.9239,2.9239,2.88,2.8298,2.7946,2.7708,2.7469,2.7105,2.6892,2.6691,2.6559,2.6533,2.6533,2.6533,2.6533,2.6533,2.6533,2.6533,2.6533,2.6533,2.6533,2.685,2.767,2.767,2.8492,3.0208,3.0329,3.0703,3.1467,3.1482,3.1482,3.1482,3.1482,3.1601,3.1884,3.1884,3.2243,1.8242,1.9072,1.9941,2.2002,2.2529,2.2646,2.3018,2.2783,2.2353,2.1904,2.1113,2.0488,2.0439,2.0127,2.0293,2.1582,2.1846,2.2178,2.3018,2.2793,2.2549,0.0,2.2549,2.2549,2.2549,2.291,0.0,2.3135,0.0,2.3135,2.3135,2.3135,2.3627,2.4872,2.5964,2.7046,2.8176,2.9275,2.9792,2.9792,2.9792,2.9792,2.9792,2.9792,2.9792,2.9792,2.9792,2.9792,2.9792,2.9792,2.9792,2.9792,2.9792,2.9792,2.9792,2.9792,2.9792,2.9792,2.9792,2.9792,2.9792,2.9792,2.9792,2.9792,2.9792,2.9792,2.9792,2.9792,2.9792,2.9792,2.9792,2.9792,2.9792,2.9792,2.9792,2.9792,2.9792,2.9365,2.8963,2.8938,2.8486,2.8109,2.8109,2.767,2.7155,2.6697,2.6584,2.6559,2.6533,2.6533,2.6533,2.6533,2.6533,2.6533,2.6533,2.6521,2.6905,2.7736,2.7802,2.862,3.0269,3.0329,3.0718,3.1482,3.1482,3.1482,3.1482,3.1511,3.1898,3.2512,3.2557,3.2916,1.9297,2.0615,2.1826,2.2373,2.2744,2.292,2.2715,2.2344,2.1826,2.1064,2.0215,1.9424,1.8779,1.9092,1.9658,2.0312,2.124,2.2178,2.3018,2.3047,2.2978,2.2978,2.2978,2.2978,2.2978,2.3076,0.0,0.0,2.3135,2.3135,2.3135,2.3135,2.3973,2.5964,2.6307,2.7383,2.9365,2.9624,2.9792,2.9792,2.9792,2.9792,2.9792,2.9792,2.9792,2.9792,2.9792,2.9792,2.9792,2.9792,2.9792,2.9792,2.9792,2.9792,2.9792,2.9792,2.9792,2.9792,2.9792,2.9792,2.9792,2.9792,2.9792,2.9792,2.9792,2.9792,2.9792,2.9792,2.9792,2.9792,2.9792,2.9792,2.9792,2.9792,2.9792,2.9792,2.9792,2.9679,2.9453,2.9013,2.8486,2.8109,2.8109,2.7996,2.7846,2.7708,2.7331,2.6917,2.6584,2.6533,2.6533,2.6533,2.6533,2.6533,2.6533,2.704,2.7736,2.862,2.9254,3.0133,3.1161,3.1219,3.1278,3.1482,3.1482,3.1482,3.1482,3.2018,3.2347,3.2527,3.3021,3.3589,2.0254,2.1484,2.2559,2.2744,2.2822,2.2656,2.1846,2.1191,2.0391,1.9141,1.8193,1.7441,1.6963,1.7578,1.8428,1.9228,2.0615,2.1894,2.2744,2.3027,2.3135,2.3135,2.3135,2.3135,2.3135,2.3135,2.3135,0.0,2.3135,2.3135,2.3135,2.3551,2.4638,2.6472,2.6964,2.8039,2.9792,2.9792,2.9792,2.9792,2.9792,2.9792,2.9792,2.9792,2.9792,2.9792,0.0,2.9792,2.9792,2.9792,2.9792,2.9792,2.9792,2.9792,2.9792,2.9792,2.9792,2.9792,2.9792,2.9792,2.9792,2.9792,2.9792,2.9792,2.9792,2.9792,2.9792,2.9792,2.9792,2.9792,2.9792,2.9792,2.9792,2.9792,2.9792,2.9792,2.9792,2.9792,2.9691,2.9365,2.9063,2.8762,2.8511,2.8461,2.8386,2.8147,2.7632,2.7168,2.6866,2.6684,2.6533,2.6533,2.6533,2.6533,2.6533,2.7229,2.8051,2.8939,2.9827,3.0644,3.1467,3.1482,3.1482,3.1482,3.1482,3.1482,3.1482,3.2198,3.2662,3.2961,3.3619,3.4277,2.1094,2.1943,2.2676,2.2978,2.2648,2.1894,2.0625,1.9493,1.8331,1.6712,1.5778,1.5177,1.5061,1.5906,1.6977,1.8123,1.9847,2.1396,2.2373,2.2822,2.3076,2.3135,2.3135,2.3135,2.3135,2.3135,2.3135,2.3135,2.3135,2.3135,2.3135,2.4211,2.5378,2.6637,2.7775,2.8767,2.9792,2.9792,2.9792,2.9792,2.9792,2.9792,2.9792,2.9792,2.9792,2.9792,0.0,0.0,2.9792,2.9792,2.9792,2.9792,2.9792,2.9792,2.9792,2.9792,2.9792,2.9792,2.9792,2.9792,2.9792,2.9792,2.9792,2.9792,2.9792,2.9792,2.9792,2.9792,2.9792,2.9792,2.9792,2.9792,2.9792,2.9792,2.9792,2.9792,2.9792,2.9792,2.9792,2.9792,2.9792,2.9628,2.9126,2.9038,2.8888,2.8398,2.7858,2.7469,2.7406,2.6854,2.6533,2.6533,2.6533,2.6533,2.6533,2.7351,2.8182,2.8939,2.995,3.0777,3.1467,3.1482,3.1482,3.1482,3.1556,3.1601,3.1601,3.2422,3.3066,3.3649,3.4307,3.4936,2.1631,2.2393,2.2959,2.2685,2.1674,2.042,1.9023,1.7433,1.598,1.4992,1.4403,1.3876,1.3148,1.4764,1.6287,1.6646,1.8634,2.0693,2.2285,2.2578,2.2754,2.3096,2.3135,2.3135,2.3135,2.3135,0.0,0.0,0.0,2.3135,2.3135,2.4211,2.5703,2.7763,2.8937,2.9624,2.9792,2.9792,2.9792,2.9792,2.9792,2.9792,2.9792,2.9792,2.9792,2.9792,2.9792,0.0,2.9792,2.9792,2.9792,2.9792,2.9792,2.9792,2.9792,2.9792,2.9792,2.9792,2.9792,2.9792,2.9792,2.9792,2.9792,2.9792,2.9792,2.9792,2.9792,2.9792,2.9792,2.9792,2.9792,2.9792,2.9792,2.9792,2.9792,2.9792,2.9792,2.9792,2.9792,2.9792,2.9792,2.9767,2.9666,2.9641,2.9616,2.9515,2.9013,2.8473,2.8021,2.708,2.6533,2.6533,2.6533,2.6533,2.6533,2.792,2.8812,2.9002,3.045,3.1351,3.1482,3.1482,3.1482,3.1482,3.2063,3.2347,3.2347,3.3544,3.4188,3.4322,3.5011,3.5385,2.0993,2.1882,2.2764,2.2568,2.1305,1.9613,1.7659,1.5875,1.4165,1.2824,1.2654,1.2519,1.1774,1.37,1.5419,1.5337,1.7369,1.9521,2.126,2.1699,2.2168,2.3037,2.3135,2.3135,2.3135,2.3135,2.3135,2.3135,0.0,2.3135,2.3135,2.4713,2.6707,2.8937,2.9534,2.9792,2.9792,2.9792,2.9792,2.9792,2.9792,2.9792,2.9792,2.9792,2.9792,2.9792,2.9792,0.0,2.9792,2.9792,2.9792,2.9792,2.9792,2.9792,2.9792,2.9792,2.9792,2.9792,2.9792,2.9792,2.9792,2.9792,2.9792,2.9792,2.9792,2.9792,2.9792,2.9792,2.9792,2.9792,2.9792,2.9792,2.9792,2.9792,2.9792,2.9792,2.9792,2.9792,2.9792,2.9792,2.9792,2.9792,2.9792,2.9792,2.9792,2.9792,2.9302,2.8737,2.8185,2.7394,2.6779,2.6559,2.6533,2.6533,2.6533,2.8051,2.9002,2.9002,3.0584,3.1482,3.1482,3.1482,3.1631,3.2033,3.2362,3.2677,3.3021,3.4008,3.4472,3.4487,3.519,3.5504,1.9696,2.066,2.1731,2.1815,2.0319,1.8335,1.6556,1.4457,1.2474,1.1055,1.1116,1.1266,1.0864,1.2609,1.4185,1.4359,1.6128,1.8249,2.0303,2.0947,2.1709,2.2988,2.3135,2.3135,2.3135,2.3135,0.0,2.3135,0.0,0.0,2.38,2.5568,2.7545,2.9714,2.9792,2.9792,2.9792,2.9792,2.9792,2.9792,2.9792,2.9792,2.9792,2.9792,2.9792,2.9792,2.9792,0.0,0.0,2.9792,2.9792,2.9792,2.9792,2.9792,2.9792,2.9792,2.9792,2.9792,2.9792,2.9792,2.9792,2.9792,2.9792,2.9792,2.9792,2.9792,2.9792,2.9792,2.9792,2.9792,2.9792,2.9792,2.9792,2.9792,2.9792,2.9792,2.9792,2.9792,2.9792,2.9792,2.9792,2.9792,2.9792,2.9792,2.9792,2.9792,2.9402,2.8913,2.8348,2.7896,2.749,2.7201,2.6922,2.6782,2.6782,2.8298,2.9254,2.9254,3.0703,3.1482,3.1482,3.1482,3.1839,3.2497,3.2647,3.3051,3.3709,3.4367,3.4696,3.4711,3.525,3.5504,1.7742,1.8355,1.9076,1.9742,1.7649,1.5463,1.5677,1.2994,1.0505,1.0741,1.0364,1.0167,1.0712,1.1325,1.2344,1.4141,1.5247,1.7004,2.0129,2.0947,2.1709,2.2988,2.3135,2.3135,2.3135,2.3135,2.3135,2.3135,0.0,0.0,2.6069,2.64,2.7545,2.9714,2.9792,2.9792,2.9792,2.9792,2.9792,2.9792,2.9792,2.9792,2.9792,2.9792,2.9792,2.9792,2.9792,0.0,0.0,2.9792,2.9792,2.9792,2.9792,2.9792,2.9792,2.9792,2.9792,2.9792,2.9792,2.9792,2.9792,2.9792,2.9792,2.9792,2.9792,2.9792,2.9792,2.9792,2.9792,2.9792,2.9792,2.9792,2.9792,2.9792,2.9792,2.9792,2.9792,2.9792,2.9792,2.9792,2.9792,2.9792,2.9792,2.9792,2.9792,2.9792,2.9741,2.9503,2.8925,2.88,2.8832,2.9162,2.8221,2.7604,2.7604,2.9192,3.0208,3.0208,3.1029,3.1482,3.1482,3.1482,3.1839,3.2497,3.3095,3.3724,3.4382,3.507,3.5415,3.5415,3.5474,3.5504,1.6452,1.7373,1.8313,1.8588,1.6814,1.4818,1.4277,1.2059,0.9978,0.9652,0.9718,0.9762,0.9614,1.0732,1.1843,1.2257,1.3696,1.5463,1.7567,1.8706,1.9961,2.1777,2.2227,2.2578,0.0,0.0,2.3135,2.3135,0.0,0.0,2.5378,2.6141,2.7545,2.9714,2.9792,2.9792,2.9792,2.9792,2.9792,2.9792,2.9792,2.9792,2.9792,2.9792,2.9792,2.9792,2.9792,0.0,0.0,2.9792,2.9792,2.9792,2.9792,2.9792,2.9792,2.9792,2.9792,2.9792,2.9792,2.9792,2.9792,2.9792,2.9792,2.9792,2.9792,2.9792,2.9792,2.9792,2.9792,2.9792,2.9792,2.9792,2.9792,2.9792,2.9792,2.9792,2.9792,2.9792,2.9792,2.9792,2.9792,2.9792,2.9792,2.9792,2.9998,3.0558,3.062,3.0624,3.0677,3.0668,3.0569,3.0392,2.9441,2.9038,2.9617,3.039,3.0863,3.0863,3.1235,3.1482,3.1482,3.1913,3.2437,3.3095,3.3754,3.4427,3.51,3.537,3.5504,3.5504,3.5504,3.5504,1.4758,1.5678,1.6672,1.6992,1.556,1.3918,1.3351,1.1549,0.9818,0.9226,0.9309,0.9413,0.9159,1.0261,1.1225,1.1382,1.2877,1.4563,1.6253,1.7484,1.8906,2.081,2.1426,2.1973,2.2705,2.2988,2.3135,0.0,0.0,0.0,2.4702,2.588,2.7383,2.9197,2.9624,2.9792,2.9792,2.9792,2.9792,2.9792,2.9792,2.9792,2.9792,2.9792,2.9792,2.9792,0.0,0.0,0.0,2.9792,2.9792,2.9792,2.9792,2.9792,2.9792,2.9792,2.9792,2.9792,2.9792,2.9792,2.9792,2.9792,2.9792,2.9792,2.9792,2.9792,2.9792,2.9792,2.9792,2.9792,2.9792,2.9792,2.9792,2.9792,2.9792,2.9792,2.9792,2.9792,2.9792,2.9792,2.9792,2.9869,3.0139,3.0216,3.0558,3.1462,3.1609,3.1739,3.2013,3.2041,3.2013,3.1921,3.1268,3.098,3.1307,3.1645,3.1827,3.1576,3.1916,3.2018,3.1824,3.2452,3.311,3.3769,3.4247,3.4816,3.5504,3.5504,3.5504,3.5504,3.5504,3.5504,1.2238,1.2759,1.3529,1.4584,1.334,1.22,1.3324,1.1571,0.974,0.9798,0.9263,0.9008,0.9666,0.9814,1.0387,1.2183,1.3232,1.466,1.7074,1.8105,1.9111,2.042,2.0967,2.1416,2.1855,2.2646,2.3135,0.0,0.0,0.0,2.4702,2.588,2.6964,2.8084,2.9197,2.9792,2.9792,2.9792,2.9792,2.9792,2.9792,2.9792,2.9792,2.9792,2.9792,0.0,0.0,0.0,0.0,2.9792,2.9792,2.9792,2.9792,2.9792,2.9792,2.9792,2.9792,2.9792,2.9792,2.9792,2.9792,2.9792,2.9792,2.9792,2.9792,2.9792,2.9792,2.9792,2.9792,2.9792,2.9792,2.9792,2.9792,2.9792,2.9792,2.9792,2.9792,2.9792,2.9792,2.9792,2.9792,3.0075,3.1044,3.118,3.1536,3.2464,3.2593,3.2593,3.2593,3.2593,3.2947,3.3862,3.393,3.3494,3.232,3.2945,3.32,3.2557,3.3125,3.3185,3.2527,3.314,3.3784,3.4457,3.4472,3.4816,3.5504,3.5504,3.5504,3.5504,3.5504,3.5504,1.1216,1.169,1.2056,1.24,1.1744,1.1064,1.1155,1.0272,0.9327,0.9136,0.8962,0.8857,0.9061,0.9865,1.087,1.2126,1.3736,1.5276,1.6337,1.7983,1.9346,2.0039,2.1553,2.2588,0.0,0.0,0.0,0.0,0.0,0.0,2.3637,2.4713,2.6202,2.8004,2.9197,2.9792,2.9792,2.9792,2.9792,2.9792,2.9792,2.9792,2.9792,2.9792,0.0,0.0,0.0,0.0,0.0,2.9792,2.9792,2.9792,2.9792,2.9792,2.9792,2.9792,2.9792,2.9792,2.9792,2.9792,2.9792,2.9792,2.9792,2.9792,2.9792,2.9792,2.9792,2.9792,2.9792,2.9792,2.9792,2.9792,2.9792,2.9792,2.9792,2.9792,2.9792,2.9792,2.9792,2.9792,2.9792,2.9856,3.0216,3.0771,3.1315,3.1609,3.2749,3.3533,3.3533,3.4192,3.4706,3.4986,3.5052,3.4889,3.449,3.4301,3.4068,3.3858,3.3634,3.3395,3.3185,3.3814,3.4262,3.4472,3.4936,3.5295,3.5504,3.5504,3.5504,3.5504,3.5504,3.5504,1.0194,1.0795,1.1096,1.1096,1.0742,1.0314,1.002,0.9586,0.9103,0.8871,0.8804,0.8804,0.8804,0.9666,1.0701,1.1567,1.327,1.4895,1.5944,1.7696,1.9209,2.0283,2.1748,0.0,0.0,2.3047,0.0,0.0,0.0,0.0,2.3135,2.4211,2.5452,2.6767,2.8359,2.9365,2.9792,2.9792,2.9792,2.9792,2.9792,2.9792,2.9792,2.9792,0.0,0.0,0.0,0.0,0.0,2.9792,2.9792,2.9792,2.9792,2.9792,2.9792,2.9792,2.9792,2.9792,2.9792,2.9792,2.9792,2.9792,2.9792,2.9792,2.9792,2.9792,2.9792,2.9792,2.9792,2.9792,2.9792,2.9792,2.9792,2.9792,2.9792,2.9792,2.9792,2.9792,2.9792,2.9792,2.9792,2.9934,3.0279,3.0833,3.1462,3.2177,3.3241,3.4163,3.4543,3.5133,3.5504,3.5504,3.5504,3.5504,3.5504,3.5115,3.4756,3.4487,3.4337,3.4143,3.3873,3.4502,3.4861,3.4861,3.5295,3.5504,3.5504,3.5504,3.5504,3.5504,3.5504,3.5504,0.0,0.994,1.0436,1.0436,1.018,0.992,0.9653,0.9392,0.0,0.8864,0.8804,0.8818,0.8864,0.9389,1.0058,1.0916,1.2307,1.3931,1.5994,1.7393,1.9014,0.0,2.1728,0.0,2.2519,0.0,0.0,0.0,0.0,0.0,2.3135,2.4125,2.4787,2.4957,2.693,2.8518,2.9702,2.9792,2.9792,2.9792,2.9792,2.9792,2.9792,2.9792,0.0,0.0,0.0,0.0,0.0,2.9792,2.9792,2.9792,2.9792,2.9792,2.9792,2.9792,2.9792,2.9792,2.9792,2.9792,2.9792,2.9792,2.9792,2.9792,2.9792,2.9792,2.9792,2.9792,2.9792,2.9792,2.9792,2.9792,2.9792,2.9792,2.9792,2.9792,2.9792,2.9792,2.9792,2.9792,2.9792,3.0075,3.097,3.118,3.1888,3.3518,3.3959,3.4394,3.5279,3.5439,3.5504,3.5504,3.5504,3.5504,3.5504,3.5504,3.5235,3.4592,3.516,3.522,3.4577,3.516,3.5504,3.5504,3.5504,3.5504,3.5504,3.5504,3.5504,3.5504,3.5504,3.5504,0.7936,0.0,0.855,0.855,0.8664,0.8764,0.0,0.8804,0.8891,0.8824,0.8804,0.8945,0.9392,0.9634,1.0632,1.3103,1.4153,1.5414,1.7668,1.9443,2.1025,2.2519,2.2783,2.2881,2.2978,0.0,0.0,0.0,0.0,2.3135,2.3135,2.3387,2.4307,2.6058,2.6637,2.7371,2.8518,2.9365,2.9792,2.9792,2.9792,2.9792,2.9792,2.9792,0.0,0.0,0.0,0.0,2.9792,2.9792,2.9792,2.9792,2.9792,2.9792,2.9792,2.9792,2.9792,2.9792,2.9792,2.9792,2.9792,2.9792,2.9792,2.9792,2.9792,2.9792,2.9792,2.9792,2.9792,2.9792,2.9792,2.9792,2.9792,2.9792,2.9792,2.9792,2.9792,2.9792,2.9792,2.9792,2.9792,2.9856,3.0075,3.1328,3.2177,3.1888,3.3768,3.4986,3.4394,3.5052,3.5504,3.5504,3.5504,3.5504,3.5504,3.5504,3.5429,3.5265,3.5415,3.5429,3.5265,3.5415,3.5504,3.5504,3.5504,3.5504,3.5504,3.5504,3.5504,3.5504,3.5504,3.5782,0.7261,0.7689,0.817,0.8297,0.8457,0.8611,0.8744,0.8791,0.8804,0.8804,0.8804,0.8905,0.9225,0.9878,1.1051,1.2962,1.4489,1.6356,1.9146,2.0684,2.1934,2.3008,2.3135,2.3135,0.0,0.0,0.0,0.0,0.0,2.3135,2.3135,2.3637,2.4467,2.5714,2.6707,2.7775,2.8858,2.9456,2.9792,2.9792,2.9792,2.9792,2.9792,2.9792,2.9792,0.0,0.0,0.0,2.9792,2.9792,2.9792,2.9792,2.9792,2.9792,2.9792,2.9792,2.9792,2.9792,2.9792,2.9792,2.9792,2.9792,3.0075,3.0419,3.0419,3.0419,3.0343,2.9934,2.9792,2.9792,2.9792,2.9792,2.9792,2.9792,2.9792,2.9792,2.9792,2.9792,2.9934,3.0343,3.0419,3.0558,3.0983,3.1901,3.2593,3.2536,3.3822,3.4758,3.4691,3.5133,3.5504,3.5504,3.5504,3.5504,3.5504,3.5504,3.5504,3.5504,3.5504,3.5504,3.5504,3.5504,3.5504,3.5504,3.5504,3.5504,3.5504,3.5504,3.5504,3.5504,3.5831,3.6228,0.7078,0.7756,0.841,0.8564,0.8671,0.8804,0.9051,0.8951,0.8804,0.8804,0.8804,0.8844,0.8985,1.0064,1.1214,1.2126,1.4435,0.0,2.0352,2.1465,2.2266,2.3047,2.3135,0.0,0.0,0.0,0.0,0.0,0.0,2.3135,2.3135,2.4049,2.4713,2.5041,2.686,2.8518,2.9792,2.9792,2.9792,2.9792,2.9792,2.9792,2.9792,2.9792,2.9792,0.0,0.0,0.0,2.9792,2.9792,2.9792,2.9792,2.9792,2.9792,2.9792,2.9792,2.9792,2.9792,2.9792,2.9792,2.9792,3.0011,3.0419,3.1044,3.118,3.1106,3.0833,2.9998,2.9792,2.9792,2.9792,2.9792,2.9792,2.9792,2.9792,2.9792,2.9792,2.9792,3.0075,3.0833,3.1106,3.1462,3.2249,3.2593,3.3101,3.3876,3.4095,3.4543,3.5359,3.5504,3.5504,3.5504,3.5504,3.5504,3.5504,3.5504,3.5504,3.5504,3.5504,3.5504,3.5504,3.5504,3.5504,3.5504,3.5504,3.5504,3.5504,3.5504,3.5504,3.5504,3.6275,3.6676,0.7543,0.8076,0.8313,0.7836,0.8104,0.8457,0.8497,0.8664,0.8804,0.8804,0.8804,0.9031,0.978,1.01,1.0856,1.2639,1.5715,1.8782,0.0,0.0,2.2598,2.3076,0.0,0.0,0.0,0.0,0.0,0.0,0.0,2.3135,2.3135,2.3299,2.4221,2.6141,2.6554,2.7718,2.9792,2.9792,2.9792,2.9792,2.9792,2.9792,2.9792,2.9792,2.9792,0.0,0.0,2.9792,2.9792,2.9792,2.9792,2.9792,2.9792,2.9792,2.9792,2.9792,2.9792,2.9792,2.9792,2.9792,2.9934,3.0696,3.0558,3.0139,3.097,3.062,2.9998,2.9869,2.9792,2.9792,2.9792,2.9792,2.9792,2.9792,2.9792,2.9792,2.9792,2.9792,2.9856,3.0011,3.062,3.1254,3.1389,3.2749,3.3808,3.3959,3.4691,3.5359,3.5504,3.5504,3.5504,3.5504,3.5504,3.5504,3.5504,3.5504,3.5504,3.5504,3.5504,3.5504,3.5504,3.5504,3.5504,3.5504,3.5504,3.5504,3.5504,3.5504,3.5504,3.5504,3.6275,3.6964,0.6789,0.7472,0.8103,0.8031,0.8524,0.9085,0.9085,0.9185,0.9325,0.9486,0.9519,0.9686,1.0254,1.1184,1.2781,1.5823,0.0,2.0429,2.1987,2.2393,2.2666,0.0,0.0,0.0,0.0,0.0,0.0,0.0,0.0,0.0,2.3135,2.3714,2.4467,2.5546,2.6141,2.7302,2.8858,2.8858,2.9197,2.9792,2.9792,2.9792,2.9792,2.9792,2.9792,2.9792,0.0,2.9792,2.9792,2.9792,2.9792,2.9792,2.9792,2.9792,2.9792,2.9792,2.9792,2.9792,2.9792,2.9792,2.9856,3.0279,3.0482,3.062,3.1031,3.0895,3.0558,3.0558,3.0216,2.9792,2.9792,2.9792,2.9792,2.9792,2.9792,2.9792,2.9792,2.9792,2.9934,3.0482,3.0895,3.1389,3.1888,3.3101,3.4027,3.4027,3.4839,3.5504,3.5504,3.5504,3.5504,3.5504,3.5504,3.5504,3.5504,3.5504,3.5504,3.5504,3.5504,3.5504,3.5504,3.5504,3.5504,3.5504,3.5504,3.5504,3.5504,3.5504,3.5504,3.5504,3.6275,3.7024,0.6239,0.709,0.8103,0.8404,0.8978,0.9532,0.974,0.9786,0.9886,1.0247,1.0374,1.0494,1.0722,1.2291,1.4757,1.8346,2.0077,2.1342,2.2454,2.2656,2.2783,0.0,0.0,0.0,0.0,0.0,0.0,0.0,0.0,0.0,2.3135,2.3963,2.4542,2.4787,2.563,2.6707,2.8096,2.8096,2.8688,2.9792,2.9792,2.9792,2.9792,2.9792,2.9792,2.9792,2.9792,2.9792,2.9792,2.9792,2.9792,2.9792,2.9792,2.9792,2.9792,2.9792,2.9792,2.9792,2.9792,2.9792,2.9869,3.0075,3.0495,3.0895,3.1106,3.1044,3.0908,3.0908,3.0343,2.9869,3.0075,3.0292,3.0432,3.0432,3.0432,3.0432,3.0216,3.0139,3.0279,3.0771,3.1254,3.1742,3.2464,3.338,3.4027,3.4027,3.4691,3.5133,3.5133,3.5359,3.5504,3.5504,3.5504,3.5504,3.5504,3.5504,3.5504,3.5504,3.5504,3.5504,3.5504,3.5504,3.5504,3.5504,3.5504,3.5504,3.5504,3.5504,3.5504,3.5504,3.6461,3.7219,0.6881,0.7681,0.841,0.8704,0.8824,0.9085,0.99,1.0087,1.0247,1.0815,1.1142,1.1336,1.1363,1.3006,1.5234,1.8128,1.9551,2.0959,2.2785,0.0,0.0,0.0,0.0,0.0,0.0,0.0,0.0,0.0,0.0,0.0,2.3135,2.3135,2.3714,2.4787,2.4872,2.5953,2.8084,2.8096,2.8688,2.9792,2.9792,2.9792,2.9792,2.9792,2.9792,2.9792,2.9792,2.9792,2.9792,2.9792,2.9792,2.9792,2.9792,2.9792,2.9792,2.9792,2.9792,2.9792,2.9792,2.9792,2.9934,3.0833,3.0558,3.0075,3.097,3.0633,2.9934,2.9934,2.9856,2.9998,3.0908,3.1756,3.2393,3.2393,3.2393,3.2177,3.1328,3.1106,3.0833,3.0075,3.1341,3.2522,3.2593,3.338,3.4027,3.4027,3.4095,3.4095,3.4095,3.4905,3.5504,3.5504,3.5504,3.5504,3.5504,3.5504,3.5504,3.5504,3.5504,3.5504,3.5504,3.5504,3.5504,3.5504,3.5504,3.5504,3.5504,3.5504,3.5504,3.5569,3.7011,3.7748,0.5676,0.6904,0.817,0.8464,0.8945,0.9532,1.0234,1.0528,1.0929,1.1891,1.2171,1.2365,1.2739,1.4145,1.6048,1.8225,1.972,2.1216,2.2872,0.0,0.0,0.0,0.0,0.0,0.0,0.0,0.0,0.0,0.0,0.0,0.0,2.3135,2.3299,2.3714,2.3714,2.4798,2.7035,2.7128,2.8039,2.9792,2.9792,2.9792,2.9792,2.9792,2.9792,2.9792,2.9792,2.9792,2.9792,2.9792,2.9792,2.9792,2.9792,2.9792,2.9792,2.9792,2.9792,2.9792,2.9792,2.9792,2.9869,3.0216,3.0075,2.9869,3.0203,3.0075,2.9792,2.9792,3.0203,3.062,3.0419,3.0558,3.0846,3.0846,3.1328,3.1462,3.0558,3.1267,3.1815,3.0833,3.1683,3.2593,3.2593,3.338,3.4027,3.4027,3.4543,3.492,3.492,3.5279,3.5504,3.5504,3.5504,3.5504,3.5504,3.5504,3.5504,3.5504,3.5504,3.5504,3.5504,3.5504,3.5504,3.5504,3.5504,3.5504,3.5504,3.5504,3.5504,3.5504,3.6585,3.7338,0.5148,0.6524,0.8143,0.8437,0.9098,0.9913,1.0775,1.1129,1.1577,1.2665,1.2893,1.308,1.3674,1.4832,0.0,0.0,1.9497,2.0947,0.0,0.0,0.0,0.0,0.0,0.0,0.0,0.0,0.0,0.0,0.0,0.0,0.0,2.3135,2.3135,0.0,2.3135,2.4059,2.5964,2.6307,2.7464,2.9275,2.9624,2.9792,2.9792,2.9792,2.9792,2.9792,2.9792,2.9792,2.9792,2.9792,2.9792,2.9792,2.9792,2.9792,2.9792,2.9792,2.9792,2.9792,2.9792,2.9792,2.9792,2.9792,2.9792,2.9792,2.9792,2.9792,2.9792,2.9792,3.0279,3.062,3.0011,3.0216,3.0709,3.0709,3.1193,3.1402,3.0419,3.1267,3.1888,3.0908,3.1549,3.2249,3.2522,3.3101,3.3671,3.3959,3.461,3.5052,3.5052,3.5279,3.5504,3.5504,3.5504,3.5504,3.5504,3.5504,3.5504,3.5504,3.5504,3.5504,3.5504,3.5504,3.5504,3.5504,3.5504,3.5504,3.5504,3.5504,3.5504,3.5504,3.6523,3.7144,0.5572,0.6923,0.8444,0.8738,0.9259,1.0074,1.1536,1.187,1.2131,1.3033,1.322,1.3394,1.3981,1.4721,0.0,1.8234,1.8712,0.0,0.0,0.0,0.0,0.0,0.0,0.0,0.0,0.0,0.0,0.0,0.0,0.0,0.0,2.3135,2.3135,0.0,2.3135,2.3627,2.4787,2.5891,2.7046,2.8096,2.9275,2.9792,2.9792,2.9792,2.9792,2.9792,2.9792,2.9792,2.9792,2.9792,2.9792,2.9792,2.9792,2.9792,2.9792,2.9792,2.9792,2.9792,2.9792,2.9792,2.9792,2.9792,2.9792,2.9792,2.9792,2.9792,2.9792,2.9792,2.9792,2.9792,2.9792,3.1206,3.2593,3.2593,3.2593,3.2321,3.1389,3.118,3.097,2.9998,3.0558,3.1536,3.2464,3.2593,3.289,3.3876,3.4027,3.4027,3.4027,3.4839,3.5504,3.5504,3.5504,3.5504,3.5504,3.5504,3.5504,3.5504,3.5504,3.5504,3.5504,3.5504,3.5504,3.5504,3.5504,3.5504,3.5504,3.5504,3.5504,3.5569,3.7055,3.7381,0.4601,0.6017,0.7623,0.8226,0.9356,1.0638,1.163,1.2031,1.2492,1.3601,1.3828,1.3881,1.4055,1.4343,0.0,1.6983,0.0,0.0,0.0,0.0,0.0,0.0,0.0,0.0,0.0,0.0,0.0,0.0,0.0,0.0,0.0,2.3135,0.0,0.0,2.3135,2.3627,2.4787,2.5126,2.588,2.6964,2.8108,2.9028,2.9792,2.9792,2.9792,2.9792,2.9792,2.9792,2.9792,2.9792,2.9792,2.9792,2.9792,2.9792,2.9792,2.9792,2.9792,2.9792,2.9792,2.9792,2.9792,2.9792,2.9792,2.9792,2.9792,2.9792,2.9792,2.9792,2.9792,2.9792,2.9792,3.0216,3.0633,3.0633,3.1119,3.1402,3.0419,3.1267,3.1888,3.0983,3.1536,3.2249,3.2522,3.2593,3.2678,3.2961,3.3031,3.3241,3.3945,3.4245,3.4691,3.5424,3.5504,3.5504,3.5504,3.5504,3.5504,3.5504,3.5504,3.5504,3.5504,3.5504,3.5504,3.5504,3.5504,3.5504,3.5504,3.5504,3.5504,3.5504,3.6523,3.6859,0.528,0.6671,0.8099,0.8764,0.9855,1.1022,1.2144,1.2625,1.3073,1.3915,1.3995,1.3948,1.4068,1.4088,0.0,0.0,0.0,0.0,0.0,0.0,0.0,0.0,0.0,0.0,0.0,0.0,0.0,0.0,0.0,0.0,0.0,0.0,0.0,0.0,2.2803,2.3216,2.387,2.4449,2.5126,2.5808,2.6953,2.7787,2.8542,2.9378,2.9792,2.9792,2.9792,2.9792,2.9792,2.9792,2.9792,2.9792,2.9792,2.9792,2.9792,2.9792,2.9792,2.9792,2.9792,2.9792,2.9792,2.9792,2.9792,2.9792,2.9792,2.9792,2.9792,2.9792,2.9792,2.9792,2.9792,2.9792,2.9792,2.9792,3.0203,3.0482,2.9934,3.0709,3.1341,3.0771,3.1132,3.1623,3.196,3.2033,3.2177,3.2522,3.2593,3.2961,3.3876,3.4027,3.4394,3.5359,3.5504,3.5504,3.5504,3.5504,3.5504,3.5504,3.5504,3.5504,3.5504,3.5504,3.5504,3.5504,3.5504,3.5504,3.5504,3.5504,3.5504,3.5504,3.6275,3.6446,0.6854,0.8069,0.9246,0.9906,1.0611,1.151,1.2859,1.3414,1.3728,1.4021,1.3874,1.3768,1.4041,1.4088,1.4592,0.0,0.0,0.0,0.0,0.0,0.0,0.0,0.0,0.0,0.0,0.0,0.0,0.0,0.0,0.0,0.0,0.0,0.0,2.1885,2.2256,2.2461,2.2461,2.3808,2.4502,0.0,2.5721,2.63,2.6255,2.8585,2.9702,2.9792,2.9792,2.9792,2.9792,2.9792,2.9792,2.9792,2.9792,2.9792,2.9792,2.9792,2.9792,2.9792,2.9792,2.9792,2.9792,2.9792,2.9792,2.9792,2.9792,2.9792,2.9792,2.9792,2.9792,2.9792,2.9792,2.9792,2.9792,2.9792,2.9792,2.9792,2.9792,2.9792,2.9792,2.9792,2.9792,3.0075,3.0895,3.1031,3.1402,3.2249,3.2321,3.2678,3.3671,3.3808,3.4245,3.5359,3.5504,3.5504,3.5504,3.5504,3.5504,3.5504,3.5504,3.5504,3.5504,3.5504,3.5504,3.5504,3.5504,3.5504,3.5504,3.5504,3.5504,3.5504,3.6165,3.6165,0.5611,0.6951,0.846,0.9642,1.1166,1.2526,1.2772,1.326,1.3728,1.4021,1.4035,1.4008,1.4075,1.4088,1.426,0.0,0.0,0.0,0.0,0.0,0.0,0.0,0.0,0.0,0.0,0.0,0.0,0.0,0.0,0.0,2.1885,0.0,0.0,2.1885,2.1973,2.2021,2.2021,2.235,2.2556,0.0,2.4022,2.4474,2.4213,2.7149,2.8937,2.9792,2.9792,2.9792,2.9792,2.9792,2.9792,2.9792,2.9792,2.9792,2.9792,2.9792,2.9792,2.9792,2.9792,2.9792,2.9792,2.9792,2.9792,2.9792,2.9792,2.9792,2.9792,2.9792,2.9792,2.9792,2.9792,2.9792,2.9792,2.9792,2.9792,2.9792,2.9792,2.9792,2.9792,2.9792,2.9792,2.9856,3.0075,3.0075,3.0139,3.0355,3.0432,3.0859,3.2074,3.2205,3.3073,3.5294,3.5504,3.5504,3.5504,3.5504,3.5504,3.5504,3.5504,3.5504,3.5504,3.5504,3.5504,3.5504,3.5504,3.5504,3.5504,3.5504,3.5504,3.5504,3.5668,3.5668,0.5519,0.6582,0.792,0.9568,1.1395,1.2822,1.2822,1.3106,1.352,1.3814,1.3988,1.4088,1.4088,1.4088,0.0,0.0,0.0,0.0,0.0,0.0,0.0,0.0,0.0,0.0,0.0,0.0,0.0,0.0,0.0,2.125,0.0,2.125,2.125,2.125,2.1465,2.1572,2.1572,2.1777,2.1885,2.1885,2.2734,2.3268,2.3594,2.5915,2.766,2.8725,2.8635,2.8879,2.9365,2.9089,2.9139,2.9377,2.9377,2.9553,2.9754,2.9478,2.9553,2.9754,2.9478,2.9566,2.9792,2.9792,2.9792,2.9792,2.9792,2.9792,2.9792,2.9792,2.9792,2.9792,2.9792,2.9792,2.9792,2.9792,2.9792,2.9792,2.9792,2.9792,2.9792,2.9792,2.9792,2.9792,2.9792,2.9792,2.9792,2.9792,2.9792,3.0011,3.0722,3.0797,3.1636,3.3837,3.4124,3.4491,3.5439,3.5504,3.5504,3.5504,3.5504,3.5504,3.5504,3.5504,3.5504,3.5504,3.5504,3.5504,3.5504,3.5504,3.5504,3.5504,3.5504,3.5668,0.5692,0.6587,0.7634,0.9394,1.1099,1.2454,1.2424,1.2828,1.32,1.344,1.3768,1.4028,1.4075,0.0,0.0,0.0,0.0,0.0,0.0,0.0,0.0,0.0,0.0,0.0,0.0,0.0,0.0,0.0,0.0,2.0401,2.0566,2.0566,2.0566,2.0566,2.0928,2.1123,2.1123,2.1475,2.166,2.166,2.166,2.2159,2.3168,2.4421,2.5837,2.7346,2.7257,2.7819,2.875,2.8298,2.8373,2.8787,2.8787,2.9089,2.9453,2.8963,2.9089,2.9453,2.9063,2.9239,2.9666,2.9767,2.9792,2.9792,2.9792,2.9792,2.9792,2.9792,2.9792,2.9792,2.9792,2.9792,2.9792,2.9792,2.9792,2.9792,2.9792,2.9792,2.9792,2.9792,2.9792,2.9792,2.9792,2.9792,2.9792,2.9792,2.9792,2.9792,2.9792,2.9792,3.0432,3.1974,3.2678,3.3754,3.5359,3.5504,3.5504,3.5504,3.5504,3.5504,3.5504,3.5504,3.5504,3.5504,3.5504,3.5504,3.5504,3.5504,3.5504,3.5504,3.5619,3.6006,0.4966,0.6299,0.7788,0.8485,0.9752,1.0949,1.1019,1.1974,1.2896,0.0,1.3313,1.3781,1.4041,0.0,0.0,0.0,0.0,0.0,0.0,0.0,0.0,0.0,0.0,0.0,0.0,0.0,0.0,0.0,1.9116,1.9599,2.0557,2.0566,2.0566,2.0566,2.0625,2.0654,2.0654,2.0713,2.0742,2.0742,2.0742,2.1017,2.155,2.1679,2.3602,2.6697,2.6697,2.7259,2.821,2.8134,2.8147,2.821,2.821,2.826,2.8323,2.8247,2.826,2.8386,2.8787,2.8976,2.9126,2.9628,2.9792,2.9792,2.9792,2.9792,2.9792,2.9792,2.9792,2.9792,2.9792,2.9792,2.9792,2.9792,2.9792,2.9792,2.9792,2.9792,2.9792,2.9792,2.9792,2.9792,2.9792,2.9792,2.9792,2.9792,2.9792,2.9792,2.9792,2.9792,2.9856,3.0152,3.3143,3.5213,3.5504,3.5504,3.5504,3.5504,3.5504,3.5504,3.5504,3.5504,3.5504,3.5504,3.5504,3.5504,3.5504,3.5504,3.5504,3.5504,3.618,3.6508,0.4202,0.5597,0.6973,0.7423,0.8555,0.967,1.0489,1.112,1.1819,1.2603,1.2959,1.328,0.0,0.0,0.0,0.0,0.0,0.0,0.0,0.0,0.0,0.0,0.0,0.0,0.0,0.0,0.0,0.0,1.7738,1.855,1.9599,1.9678,2.0001,2.0566,2.0566,2.0566,2.0566,2.0566,2.0566,2.0566,2.0566,2.0674,2.0859,2.0859,2.2527,2.5327,2.5263,2.6184,2.762,2.7306,2.7369,2.7645,2.7645,2.7833,2.8059,2.7758,2.7846,2.8097,2.8034,2.821,2.8561,2.9126,2.9315,2.9365,2.9691,2.9792,2.9792,2.9792,2.9792,2.9792,2.9792,2.9792,2.9792,2.9792,2.9792,2.9792,2.9792,2.9792,2.9792,2.9792,2.9792,2.9792,2.9792,2.9792,2.9792,2.9792,2.9792,2.9792,2.9792,2.9792,2.9792,2.9792,3.1294,3.3143,3.5294,3.5504,3.5504,3.5504,3.5504,3.5504,3.5504,3.5504,3.5504,3.5504,3.5504,3.5504,3.5504,3.5504,3.5504,3.5504,3.5831,3.6228,0.3673,0.4738,0.569,0.6237,0.7251,0.8451,0.9482,0.9962,1.0603,0.0,1.227,1.2555,0.0,0.0,0.0,0.0,0.0,0.0,0.0,0.0,0.0,0.0,0.0,0.0,0.0,0.0,0.0,0.0,1.6437,1.7415,1.847,1.8877,1.9362,2.0167,2.0479,2.0566,2.0566,2.0566,2.0566,2.0566,2.0566,2.0566,2.0566,2.0566,2.1712,2.3687,2.3687,2.4671,2.6284,2.6186,2.6177,2.6392,2.6926,2.7176,2.7259,2.7147,2.7331,2.7645,2.7369,2.7557,2.7996,2.8536,2.8812,2.8988,2.9277,2.9566,2.9767,2.9616,2.9679,2.9792,2.9792,2.9792,2.9792,2.9792,2.9792,2.9792,2.9792,2.9792,2.9792,2.9792,2.9792,2.9792,2.9792,2.9792,2.9792,2.9792,2.9792,2.9792,2.9792,2.9792,2.9792,2.9792,2.9792,3.0934,3.3796,3.4935,3.5504,3.5504,3.5504,3.5504,3.5504,3.5504,3.5504,3.5504,3.5504,3.5504,3.5504,3.5504,3.5504,3.5504,3.5668,3.6054,0.3437,0.3763,0.4077,0.4688,0.5914,0.7061,0.7269,0.0,0.9478,1.0527,1.0795,1.1271,0.0,0.0,0.0,0.0,0.0,0.0,0.0,0.0,0.0,0.0,0.0,0.0,0.0,0.0,0.0,0.0,1.5779,1.6273,1.7334,1.839,1.9045,1.9116,2.0079,2.0566,2.0566,2.0566,2.0566,2.0566,2.0566,2.0566,2.0566,2.0566,2.1165,2.2145,2.2145,2.2734,2.3779,2.4719,2.4504,2.3925,2.5828,2.6005,2.5301,2.6213,2.6584,2.6615,2.7105,2.7306,2.7419,2.7971,2.8499,2.8837,2.8348,2.8938,2.9679,2.9126,2.9365,2.9792,2.9792,2.9792,2.9792,2.9792,2.9792,2.9792,2.9792,2.9792,2.9792,2.9792,2.9792,2.9792,2.9792,2.9792,2.9792,2.9792,2.9792,2.9792,2.9792,2.9792,2.9792,2.9792,2.9792,2.9869,3.0075,3.3437,3.5504,3.5504,3.5504,3.5504,3.5504,3.5504,3.5504,3.5504,3.5504,3.5504,3.5504,3.5504,3.5504,3.5504,3.6228,3.6554,0.3049,0.3398,0.3751,0.4158,0.48,0.5557,0.6466,0.7218,0.802,0.906,0.9411,0.0,0.0,0.0,0.0,0.0,0.0,0.0,0.0,0.0,0.0,0.0,0.0,0.0,0.0,0.0,0.0,0.0,0.0,0.0,1.5622,1.6086,1.6951,1.8276,1.8665,1.925,2.0146,2.0146,2.0283,2.0566,2.0566,2.0566,2.0566,2.0566,2.0789,2.1078,2.1078,2.2038,2.3514,2.3891,2.4192,2.4564,2.5288,2.5734,2.6025,2.6383,2.6533,2.6559,2.6747,2.6753,2.6841,2.7394,2.7708,2.7896,2.8059,2.8398,2.875,2.8888,2.9076,2.9327,2.9691,2.9792,2.9792,2.9792,2.9792,2.9792,2.9792,2.9792,2.9792,2.9792,2.9792,2.9792,2.9792,2.9792,2.9792,2.9792,2.9792,2.9792,2.9792,2.9792,2.9792,2.9792,2.9792,2.9792,2.9792,3.1084,3.2362,3.3547,3.4056,3.4356,3.4543,3.5133,3.5504,3.5504,3.5504,3.5504,3.5504,3.5504,3.5504,3.5504,3.5782,3.5894,0.2839,0.3161,0.351,0.3856,0.4131,0.462,0.5572,0.6014,0.6548,0.7797,0.8157,0.0,0.0,0.0,0.0,0.0,0.0,0.0,0.0,0.0,0.0,0.0,0.0,0.0,0.0,0.0,0.0,0.0,0.0,0.0,1.4194,1.4872,1.6236,1.8304,1.8387,1.8815,1.9697,1.9707,1.9922,2.0352,2.0352,2.042,2.0566,2.0566,2.0566,2.0566,2.0566,2.1298,2.2563,2.285,2.322,2.3599,2.4264,2.4696,2.5052,2.5346,2.5721,2.5943,2.5581,2.5721,2.6005,2.5995,2.6369,2.6853,2.7038,2.7578,2.8147,2.8323,2.8637,2.9013,2.9402,2.9641,2.9792,2.9792,2.9792,2.9792,2.9792,2.9792,2.9792,2.9792,2.9792,2.9792,2.9792,2.9792,2.9792,2.9792,2.9792,2.9792,2.9792,2.9792,2.9792,2.9792,2.9792,2.9792,2.9792,2.9792,3.0495,3.2191,3.3143,3.3699,3.4027,3.4986,3.5504,3.5504,3.5504,3.5504,3.5504,3.5504,3.5504,3.5504,3.5504,3.5619,0.0,0.0,0.0,0.3656,0.3883,0.4114,0.4555,0.0,0.5218,0.6557,0.6914,0.0,0.0,0.0,0.0,0.0,0.0,0.0,0.0,0.0,0.0,0.0,0.0,0.0,0.0,0.0,0.0,0.0,0.0,1.3186,1.3186,1.5065,1.7032,1.9093,1.9175,1.9258,1.9268,1.9268,1.9482,1.9893,1.9893,2.0117,2.0527,2.0527,2.0527,2.0527,2.0537,2.0547,2.0624,2.1583,2.1441,2.0867,2.2713,2.285,2.2178,2.3147,2.412,2.4791,2.3818,2.4108,2.4791,2.3818,2.4503,2.5623,2.5075,2.6383,2.7873,2.7431,2.8047,2.8888,2.89,2.9315,2.9741,2.9741,2.9754,2.9767,2.9767,2.9779,2.9792,2.9792,2.9792,2.9792,2.9792,2.9792,2.9792,2.9792,2.9792,2.9792,2.9792,2.9792,2.9792,2.9792,2.9792,2.9792,2.9792,2.9792,3.0292,3.1576,3.2861,3.363,3.3891,3.4905,3.5439,3.5439,3.5504,3.5504,3.5504,3.5504,3.5504,3.5504,3.5504,3.5894,0.2552,0.0,0.0,0.0,0.0,0.0,0.0,0.0,0.4405,0.5048,0.5244,0.0,0.0,0.0,0.0,0.0,0.0,0.0,0.0,0.0,0.0,0.0,0.0,0.0,0.0,0.0,0.0,0.0,1.2552,1.2552,1.2552,1.3718,1.5025,1.626,1.6971,1.7835,1.8809,1.8818,1.9033,1.9463,1.9463,1.9521,1.9639,1.9639,1.9639,1.9658,1.9961,2.0088,2.0117,2.0728,2.1221,2.1669,2.2178,2.2702,2.3147,2.3368,2.3672,2.3891,2.3599,2.3672,2.3891,2.3588,2.3751,2.4134,2.3925,2.4823,2.5924,2.6142,2.6954,2.7821,2.8235,2.8448,2.8574,2.8574,2.8787,2.9001,2.9001,2.9415,2.9792,2.9792,2.9792,2.9792,2.9792,2.9792,2.9792,2.9792,2.9792,2.9792,2.9792,2.9792,2.9792,2.9792,2.9792,2.9792,2.9792,2.9792,2.9934,3.0292,3.1267,3.1901,3.196,3.3533,3.4394,3.4394,3.5133,3.5504,3.5504,3.5504,3.5504,3.5504,3.5504,3.5619,0.2496,0.28,0.2936,0.2951,0.0,0.0,0.3748,0.3941,0.0,0.0,0.4629,0.0,0.0,0.0,0.0,0.0,0.0,0.0,0.0,0.0,0.0,0.0,0.0,0.0,0.0,1.2124,1.2171,1.2291,1.2305,1.2445,1.2879,1.3382,1.4171,1.5163,1.614,1.6963,1.7783,1.8151,1.8594,1.9014,1.9014,1.9111,1.9287,1.9287,1.9287,1.9297,1.9541,1.9648,1.9668,1.9922,2.0605,2.1451,2.1451,2.1745,2.2264,2.2264,2.2563,2.285,2.2414,2.2563,2.2776,2.2414,2.2563,2.285,2.285,2.3891,2.5064,2.5361,2.6345,2.7406,2.7959,2.8109,2.8147,2.831,2.8524,2.8775,2.9089,2.949,2.9792,2.9792,2.9792,2.9792,2.9792,2.9792,2.9792,2.9792,2.9792,2.9792,2.9792,2.9792,2.9792,2.9792,2.9792,2.9792,2.9792,2.9792,2.9792,2.9792,3.0696,3.118,3.118,3.3031,3.4027,3.4027,3.4986,3.5504,3.5504,3.5504,3.5504,3.5504,3.5504,3.5504,0.2237,0.2686,0.2623,0.2775,0.0,0.0,0.3963,0.4006,0.409,0.0,0.0,0.0,0.0,0.0,0.0,0.0,0.0,0.0,0.0,0.0,0.0,0.0,0.0,0.0,1.1649,1.1817,1.1924,1.2184,1.2238,1.2611,1.3476,1.3513,1.4027,1.5021,1.593,1.6489,1.6636,1.7501,1.8193,1.8494,1.8494,1.8769,1.915,1.915,1.915,1.915,1.9189,1.9219,1.9219,1.9268,1.9766,2.0498,2.0498,2.0518,2.0566,2.0566,2.1155,2.1745,2.0857,2.1155,2.1735,2.0857,2.1155,2.1811,2.1811,2.3147,2.4707,2.4791,2.5851,2.6996,2.7493,2.7605,2.7777,2.8126,2.8374,2.8624,2.9277,2.9616,2.9792,2.9792,2.9792,2.9792,2.9792,2.9792,2.9792,2.9792,2.9792,2.9792,2.9792,2.9792,2.9792,2.9792,2.9792,2.9792,2.9792,2.9792,2.9792,2.9792,3.0558,3.1044,3.1044,3.282,3.3808,3.3808,3.492,3.5504,3.5504,3.5504,3.5504,3.5504,3.5504,3.5504,0.0485,0.1259,0.0,0.0,0.0,0.0,0.346,0.3557,0.3724,0.0,0.3968,0.4053,0.0,0.0,0.0,0.0,0.0,0.0,0.0,0.0,0.0,0.0,0.0,0.0,1.0451,1.1088,1.1536,1.159,1.1817,1.2094,1.2237,1.2462,1.3025,1.3954,1.495,1.586,1.6558,1.7501,1.8047,1.8135,1.8135,1.8174,1.8262,1.8262,1.8262,1.8281,1.8623,1.876,1.8789,1.9141,1.959,2.0039,2.0039,2.0254,2.0566,2.0566,2.0712,2.0857,2.0634,2.0712,2.0867,2.0644,2.0712,2.0857,2.0857,2.1669,2.2776,2.3588,2.4032,2.4281,2.4372,2.4772,2.523,2.5301,2.6149,2.6999,2.708,2.8524,2.9792,2.9792,2.9792,2.9792,2.9792,2.9792,2.9792,2.9792,2.9792,2.9792,2.9792,2.9792,2.9792,2.9792,2.9792,2.9792,2.9792,2.9792,2.9792,2.9792,3.0011,3.0075,3.0075,3.1901,3.289,3.289,3.4624,3.5504,3.5504,3.5504,3.5504,3.5504,3.5504,3.5504,0.0,0.0,0.0,0.0702,0.0,0.0,0.0,0.3627,0.3681,0.3837,0.3866,0.3883,0.4,0.0,0.0,0.0,0.0,0.0,0.0,0.0,0.0,0.0,0.0,0.0,0.9759,1.0182,1.0702,1.1334,1.1563,1.165,1.165,1.1924,1.2301,1.2799,1.3871,1.4665,1.5155,1.6576,1.7285,1.7285,1.7794,1.8008,1.8008,1.8008,1.8008,1.8018,1.8232,1.832,1.834,1.8555,1.8896,1.9316,1.9746,2.0049,2.0273,2.0478,2.0566,2.0566,2.0566,2.0566,2.0566,2.0566,2.0566,2.0566,2.0566,2.1221,2.2178,2.322,2.3514,2.3514,2.3514,2.4036,2.4696,2.5346,2.6013,2.6766,2.7883,2.9001,2.9792,2.9792,2.9792,2.9792,2.9792,2.9792,2.9792,2.9792,2.9792,2.9792,2.9792,2.9792,2.9792,2.9792,2.9792,2.9792,2.9792,2.9792,2.9792,2.9792,2.9792,2.9792,2.9792,3.1119,3.2249,3.3059,3.4706,3.5504,3.5504,3.5504,3.5504,3.5504,3.5504,3.5504,0.0,0.0,0.0,0.0,0.0,0.0583,0.0,0.0,0.0,0.3533,0.3519,0.0,0.0,0.0,0.0,0.0,0.0,0.0,0.0,0.0,0.0,0.0,0.0,0.0,0.0,0.9,0.964,1.1062,1.1035,1.1081,1.1336,1.1623,1.181,1.187,1.3021,1.3678,1.3673,1.5438,1.6349,1.6349,1.7285,1.7725,1.7725,1.794,1.8008,1.8008,1.8008,1.8008,1.8008,1.8008,1.8213,1.8594,1.9365,1.9717,1.9844,2.0283,2.0439,2.0449,2.0537,2.0566,2.0566,2.0566,2.0566,2.0566,2.0566,2.1155,2.1886,2.2702,2.2936,2.2936,2.2936,2.3368,2.4024,2.5134,2.5943,2.7024,2.8762,2.949,2.9792,2.9792,2.9792,2.9792,2.9792,2.9792,2.9792,2.9792,2.9792,2.9792,2.9792,2.9792,2.9792,2.9792,2.9792,2.9792,2.9792,2.9792,2.9792,2.9792,2.9792,2.9792,2.9792,3.0558,3.1915,3.3934,3.5001,3.5504,3.5504,3.5504,3.5504,3.5504,3.5504,3.5504,0.0,0.0,0.0,0.0,0.0,0.0,0.0,0.0,0.2321,0.2085,0.0,0.0,0.0,0.0,0.0,0.0,0.0,0.0,0.0,0.0,0.0,0.0,0.0,0.0,0.0,0.7188,0.8323,1.0091,0.9816,0.9971,1.1015,1.1316,1.1597,1.1864,1.2812,1.3454,1.3665,1.4807,1.5376,1.5376,1.6289,1.6775,1.6784,1.7647,1.8008,1.8008,1.8008,1.8008,1.8008,1.8008,1.8037,1.8125,1.8594,1.9014,1.9404,1.9834,1.999,2.0049,2.043,2.0566,2.0566,2.0566,2.0566,2.0566,2.0566,2.0634,2.0789,2.0934,2.0934,2.0934,2.0934,2.1011,2.1088,2.1231,2.3952,2.6596,2.6848,2.8398,2.9792,2.9792,2.9792,2.9792,2.9792,2.9792,2.9792,2.9792,2.9792,2.9792,2.9792,2.9792,2.9792,2.9792,2.9792,2.9792,2.9792,2.9792,2.9792,2.9792,2.9792,2.9792,2.9792,2.9934,3.1649,3.5213,3.5439,3.5504,3.5504,3.5504,3.5504,3.5504,3.5504,3.5504,0.0,0.0,0.0,0.0,0.0,0.0,0.0,0.0,0.0912,0.0,0.0,0.0,0.0,0.0,0.0,0.0,0.3942,0.0,0.0,0.0,0.0,0.0,0.0,0.0,0.0,0.0,0.0,0.0,0.0,0.9254,1.0392,1.0762,1.1062,1.1349,1.193,1.2375,1.2684,1.3595,1.4191,1.4314,1.5296,1.607,1.6627,1.7001,1.7501,1.8008,1.8008,1.8008,1.8008,1.8008,1.8008,1.8027,1.8203,1.8535,1.8965,1.9394,1.9707,1.9941,2.0127,2.0352,2.0566,2.0566,2.0566,2.0566,2.0566,2.0566,2.0566,2.0566,2.0566,2.0566,2.0566,2.0566,2.0566,2.0566,2.1897,2.3073,2.3073,2.5597,2.8235,2.9541,2.9792,2.9792,2.9792,2.9792,2.9792,2.9792,2.9792,2.9792,2.9792,2.9792,2.9792,2.9792,2.9792,2.9792,2.9792,2.9792,2.9792,2.9792,2.9792,2.9792,2.9792,2.9792,3.0583,3.2146,3.4356,3.5504,3.5504,3.5504,3.5504,3.5504,3.5504,3.5504,0.0,0.0,0.0,0.0,0.0,0.0,0.0,0.0,0.0,0.0,0.0,0.0,0.0,0.0,0.0,0.0,0.0,0.3392,0.0,0.0,0.0,0.0,0.0,0.0,0.0,0.0,0.0,0.0,0.0,0.0,0.99,1.0274,1.0575,1.0868,1.1156,1.145,1.1744,1.2522,1.3026,1.3259,1.4268,1.5155,1.579,1.6349,1.6991,1.7647,1.7872,1.8008,1.8008,1.8008,1.8008,1.8008,1.8008,1.8193,1.8516,1.8955,1.9307,1.96,1.9834,2.0195,2.0566,2.0566,2.0566,2.0566,2.0566,2.0566,2.0566,2.0566,2.0566,2.0566,2.0566,2.0566,2.0566,2.0566,2.0566,2.0566,2.0566,2.285,2.536,2.6966,2.7263,2.7854,2.9524,2.9792,2.9792,2.9792,2.9792,2.9792,2.9792,2.9792,2.9792,2.9792,2.9792,2.9792,2.9792,2.9792,2.9792,2.9792,2.9792,2.9792,2.9792,2.9792,2.9792,2.9792,3.3575,3.5359,3.5001,3.5359,3.5504,3.5504,3.5504,3.5504,0.0,0.0,0.0,0.0,0.0,0.0,0.0,0.0,0.0,0.0,0.0,0.0,0.0,0.0,0.0053,0.0101,0.0,0.0,0.0,0.0,0.0,0.0,0.0,0.0,0.0,0.0,0.0,0.0,0.0,0.0,0.9595,0.9973,1.0267,1.0624,1.0855,1.1142,1.1436,1.1794,1.1942,1.1955,1.3165,1.3745,1.3882,1.572,1.6636,1.6706,1.7579,1.8008,1.8008,1.8008,1.8008,1.8008,1.8008,1.8018,1.8076,1.8496,1.8592,1.8789,1.9629,2.0195,2.0566,2.0566,2.0566,2.0566,2.0566,2.0566,2.0566,2.0566,2.0566,2.0566,2.0566,2.0566,2.0566,2.0566,2.0566,2.0566,2.0566,2.0712,2.0799,2.0858,2.0878,2.2776,2.8762,2.9792,2.9792,2.9792,2.9792,2.9792,2.9792,2.9792,2.9792,2.9792,2.9792,2.9792,2.9792,2.9792,2.9792,2.9792,2.9792,2.9792,2.9792,2.9792,2.9792,2.9792,3.3575,3.4868,3.3644,3.4935,3.5504,3.5504,3.5504,3.5504,0.0,0.0,0.0,0.0,0.0,0.0,0.0,0.0,0.0,0.0,0.0,0.0,0.0,0.0,0.0,0.0,0.1038,0.2065,0.0,0.0,0.0,0.0,0.0,0.0,0.0,0.0,0.0,0.0,0.6221,0.0,0.0,0.9434,0.996,1.0254,1.0555,1.0842,1.1136,1.1243,1.1383,1.1577,1.2226,1.2863,1.3431,1.4277,1.5013,1.5728,1.6645,1.707,1.7139,1.7725,1.8008,1.8008,1.8008,1.8008,1.8027,1.8164,1.8398,1.8689,1.9619,2.0195,2.0566,2.0566,2.0566,2.0566,2.0566,2.0566,2.0566,2.0566,2.0566,2.0566,2.0566,2.0566,2.0566,2.0566,2.0566,2.0566,2.0566,2.0566,2.0566,2.0566,2.0566,2.1278,2.3335,2.3675,2.5115,2.9167,2.9792,2.9792,2.9792,2.9792,2.9792,2.9792,2.9792,2.9792,2.9792,2.9792,2.9792,2.9792,2.9792,2.9792,2.9792,2.8373,2.7582,2.7582,3.0688,3.2466,3.2858,3.3984,3.4839,3.5504,3.5504,3.5504,0.0,0.0,0.0,0.0,0.0,0.0,0.0,0.0,0.0,0.0,0.0,0.0,0.0,0.0,0.0,0.0,0.0629,0.1435,0.0,0.1736,0.0,0.0,0.0,0.0,0.0,0.0,0.3913,0.4961,0.5448,0.0,0.0,0.0,0.9427,0.9953,1.0247,1.0541,1.0835,1.0942,1.1089,1.1276,1.157,1.2054,1.2618,1.3282,1.3922,1.456,1.5668,1.607,1.6149,1.7148,1.7501,1.7579,1.7872,1.8008,1.8008,1.8008,1.8271,1.873,1.9443,1.9971,2.0361,2.0518,2.0566,2.0566,2.0566,2.0566,2.0566,2.0566,2.0566,2.0566,2.0566,2.0566,2.0566,2.0566,2.0566,2.0566,2.0566,2.0566,2.0566,2.0566,2.0566,2.0566,2.0566,2.0566,2.1927,2.5931,2.6539,2.7014,2.845,2.8612,2.8612,2.8612,2.8612,2.8612,2.8612,2.8612,2.8612,2.8612,2.8612,2.8612,2.8612,2.7231,2.6533,2.6533,2.8529,3.0247,3.1746,3.2815,3.3857,3.4801,3.5026,3.513]}]]